﻿ProjectID	SampleID	SampleType	TaxonomyID	UniqCodeType	UniqCode	SampleName	ScientificName	CommonName	CollectionYear	CollectionMonth	CollectionDay	SamplingTimeStartEnd	SamplingTimeAMPM	SamplingDuration	WeatherStartEnd	CollectionRegion	CollectionCountry	CollectionArea	CollectionLatitudeFrom	CollectionLatitudeTo	CollectionLongitudeFrom	CollectionLongitudeTo	Sex	TissueOrgan	TissueLipid	TissueMoist	Weight	WeightUnit	Length	LengthUnit	LengthType	GrowthStage	Age	Disease	TemperatureStartEnd	WaterTemperatureStartEnd	pH	DO	EC	EC_temp	Salinity	SS	WaterDepthM	TransparencyM	WaterColor	SedimentTemperatureStartEnd	SedimentDepthM	SedimentAppearance	SedimentColor	SedimentSurfaceColor	SedimentOdor	SedimentImpurities	SedimentMoistureOnSiteAnalysis	IgnitionLossOnSiteAnalysis	SoilDepthM	FlowRate	MeanPM10	MeanTotalSuspendedParticles	HumidityStartEnd	WindDirectionStartEnd	WindSpeedMSStartEnd	AmountOfCollectedAirStartEnd	Remarks	RegisterDate	UpdateDate
PRA000020	SAA000760	ST008	217509			CF1	"Carassius carassius"	"Crucian carp"	2011	11	2					Asia	Japan	Kumamoto	32.09472222	33.19527778	129.9402778	131.3294444	Female	Plasma			1000	g	32	cm	"Body length"																																	2017/1/13	2017/1/13
PRA000020	SAA000761	ST008	217509			CF2	"Carassius carassius"	"Crucian carp"	2011	11	2					Asia	Japan	Kumamoto	32.09472222	33.19527778	129.9402778	131.3294444	Female	Plasma			650	g	27	cm	"Body length"																																	2017/1/13	2017/1/13
PRA000020	SAA000762	ST008	217509			CF3	"Carassius carassius"	"Crucian carp"	2011	11	2					Asia	Japan	Kumamoto	32.09472222	33.19527778	129.9402778	131.3294444	Male	Plasma			630	g	27	cm	"Body length"																																	2017/1/13	2017/1/13
PRA000020	SAA000763	ST008	217509			CF4	"Carassius carassius"	"Crucian carp"	2011	11	2					Asia	Japan	Kumamoto	32.09472222	33.19527778	129.9402778	131.3294444	Female	Plasma			510	g	27.5	cm	"Body length"																																	2017/1/13	2017/1/13
PRA000020	SAA000764	ST008	217509			CF5	"Carassius carassius"	"Crucian carp"	2011	11	2					Asia	Japan	Kumamoto	32.09472222	33.19527778	129.9402778	131.3294444	Female	Plasma			500	g	27	cm	"Body length"																																	2017/1/13	2017/1/13
PRA000020	SAA000765	ST008	217509			CF6	"Carassius carassius"	"Crucian carp"	2011	11	2					Asia	Japan	Kumamoto	32.09472222	33.19527778	129.9402778	131.3294444	Male	Plasma			550	g	25	cm	"Body length"																																	2017/1/13	2017/1/13
PRA000020	SAA000766	ST008	217509	es-BANK	"EF15380 "	CF7	"Carassius carassius"	"Crucian carp"	2013	8	8					Asia	Japan	Ehime	32.88472222	34.30166667	132.0125	133.6930556	Female	Plasma			640	g	27.5	cm	"Body length"																																	2017/1/13	2017/1/13
PRA000020	SAA000767	ST008	217509	es-BANK	"EF15381 "	CF8	"Carassius carassius"	"Crucian carp"	2013	8	8					Asia	Japan	Ehime	32.88472222	34.30166667	132.0125	133.6930556	Female	Plasma			590	g	27	cm	"Body length"																																	2017/1/13	2017/1/13
PRA000020	SAA000768	ST008	217509	es-BANK	"EF15382 "	CF9	"Carassius carassius"	"Crucian carp"	2013	8	8					Asia	Japan	Ehime	32.88472222	34.30166667	132.0125	133.6930556	Female	Plasma			800	g	29	cm	"Body length"																																	2017/1/13	2017/1/13
PRA000020	SAA000769	ST008	217509	es-BANK	"EF15383 "	CF10	"Carassius carassius"	"Crucian carp"	2013	8	8					Asia	Japan	Ehime	32.88472222	34.30166667	132.0125	133.6930556	Female	Plasma			710	g	26.5	cm	"Body length"																																	2017/1/13	2017/1/13
PRA000020	SAA000770	ST008	217509	es-BANK	"EF15384 "	CF11	"Carassius carassius"	"Crucian carp"	2013	8	8					Asia	Japan	Ehime	32.88472222	34.30166667	132.0125	133.6930556	unknown	Plasma			150	g	16.5	cm	"Body length"																																	2017/1/13	2017/1/13
PRA000020	SAA000771	ST008	7962	es-BANK	"EF15385 "	CF12	"Cyprinus carpio"	"Common carp"	2013	8	8					Asia	Japan	Ehime	32.88472222	34.30166667	132.0125	133.6930556	unknown	Plasma			270	g	22	cm	"Body length"																																	2017/1/13	2017/1/13
PRA000020	SAA000772	ST008	7962	es-BANK	"EF15386 "	CF13	"Cyprinus carpio"	"Common carp"	2013	8	8					Asia	Japan	Ehime	32.88472222	34.30166667	132.0125	133.6930556	Male	Plasma			1600	g	42.5	cm	"Body length"																																	2017/1/13	2017/1/13
PRA000020	SAA000773	ST008	7962	es-BANK	"EF15387 "	CF14	"Cyprinus carpio"	"Common carp"	2013	12	3					Asia	Japan	Ehime	32.88472222	34.30166667	132.0125	133.6930556	Female	Plasma			2550	g	49	cm	"Body length"																																	2017/1/13	2017/1/13
PRA000020	SAA000774	ST008	7962	es-BANK	"EF15388 "	CF15	"Cyprinus carpio"	"Common carp"	2013	12	3					Asia	Japan	Ehime	32.88472222	34.30166667	132.0125	133.6930556	Female	Plasma			3100	g	51	cm	"Body length"																																	2017/1/13	2017/1/13
PRA000020	SAA000775	ST008	7962	es-BANK	"EF15389 "	CF16	"Cyprinus carpio"	"Common carp"	2013	12	3					Asia	Japan	Ehime	32.88472222	34.30166667	132.0125	133.6930556	Female	Plasma			4150	g	55	cm	"Body length"																																	2017/1/13	2017/1/13
PRA000020	SAA000776	ST008	7962	es-BANK	"EF15390 "	CF17	"Cyprinus carpio"	"Common carp"	2013	12	3					Asia	Japan	Ehime	32.88472222	34.30166667	132.0125	133.6930556	Female	Plasma			3050	g	54	cm	"Body length"																																	2017/1/13	2017/1/13
PRA000020	SAA000777	ST008	7962	es-BANK	"EF15391 "	CF18	"Cyprinus carpio"	"Common carp"	2013	12	3					Asia	Japan	Ehime	32.88472222	34.30166667	132.0125	133.6930556	Female	Plasma			700	g	30	cm	"Body length"																																	2017/1/13	2017/1/13
PRA000020	SAA000778	ST008	7962	es-BANK	EF15392	CF19	"Cyprinus carpio"	"Common carp"	2014	4	23					Asia	Japan	Ehime	32.88472222	34.30166667	132.0125	133.6930556	Male	Plasma			2450	g	51.5	cm	"Body length"																																	2017/1/13	2017/1/13
PRA000020	SAA000779	ST008	217509	es-BANK	EF15393	CF20	"Carassius carassius"	"Crucian carp"	2014	4	23					Asia	Japan	Ehime	32.88472222	34.30166667	132.0125	133.6930556	Female	Plasma			850	g	29.5	cm	"Body length"																																	2017/1/13	2017/1/13
PRA000020	SAA000780	ST008	217509	es-BANK	"EF15394 "	CF21	"Carassius carassius"	"Crucian carp"	2014	4	23					Asia	Japan	Ehime	32.88472222	34.30166667	132.0125	133.6930556	Female	Plasma			650	g	26	cm	"Body length"																																	2017/1/13	2017/1/13
PRA000020	SAA000781	ST008	7962	es-BANK	"EF15395 "	CF22	"Cyprinus carpio"	"Common carp"	2014	4	23					Asia	Japan	Ehime	32.88472222	34.30166667	132.0125	133.6930556	Female	Plasma			1450	g	38	cm	"Body length"																																	2017/1/13	2017/1/13
PRA000020	SAA000782	ST008	7962	es-BANK	"EF15396 "	CF23	"Cyprinus carpio"	"Common carp"	2014	4	23					Asia	Japan	Ehime	32.88472222	34.30166667	132.0125	133.6930556	Female	Plasma			1700	g	40.5	cm	"Body length"																																	2017/1/13	2017/1/13
PRA000020	SAA000783	ST008	7962	es-BANK	"EF15397 "	CF24	"Cyprinus carpio"	"Common carp"	2014	4	23					Asia	Japan	Ehime	32.88472222	34.30166667	132.0125	133.6930556	Female	Plasma			2750	g	49	cm	"Body length"																																	2017/1/13	2017/1/13
PRA000020	SAA000784	ST008	217509	es-BANK	"EF15380 "	CF7	"Carassius carassius"	"Crucian carp"	2013	8	8					Asia	Japan	Ehime	32.88472222	34.30166667	132.0125	133.6930556	Female	Brain			640	g	27.5	cm	"Body length"																																	2017/1/13	2017/1/13
PRA000020	SAA000785	ST008	217509	es-BANK	"EF15381 "	CF8	"Carassius carassius"	"Crucian carp"	2013	8	8					Asia	Japan	Ehime	32.88472222	34.30166667	132.0125	133.6930556	Female	Brain			590	g	27	cm	"Body length"																																	2017/1/13	2017/1/13
PRA000020	SAA000786	ST008	217509	es-BANK	"EF15382 "	CF9	"Carassius carassius"	"Crucian carp"	2013	8	8					Asia	Japan	Ehime	32.88472222	34.30166667	132.0125	133.6930556	Female	Brain			800	g	29	cm	"Body length"																																	2017/1/13	2017/1/13
PRA000020	SAA000787	ST008	217509	es-BANK	"EF15383 "	CF10	"Carassius carassius"	"Crucian carp"	2013	8	8					Asia	Japan	Ehime	32.88472222	34.30166667	132.0125	133.6930556	Female	Brain			710	g	26.5	cm	"Body length"																																	2017/1/13	2017/1/13
PRA000020	SAA000788	ST008	217509	es-BANK	"EF15384 "	CF11	"Carassius carassius"	"Crucian carp"	2013	8	8					Asia	Japan	Ehime	32.88472222	34.30166667	132.0125	133.6930556	unknown	Brain			150	g	16.5	cm	"Body length"																																	2017/1/13	2017/1/13
PRA000020	SAA000789	ST008	7962	es-BANK	"EF15385 "	CF12	"Cyprinus carpio"	"Common carp"	2013	8	8					Asia	Japan	Ehime	32.88472222	34.30166667	132.0125	133.6930556	unknown	Brain			270	g	22	cm	"Body length"																																	2017/1/13	2017/1/13
PRA000020	SAA000790	ST008	7962	es-BANK	"EF15386 "	CF13	"Cyprinus carpio"	"Common carp"	2013	8	8					Asia	Japan	Ehime	32.88472222	34.30166667	132.0125	133.6930556	Male	Brain			1600	g	42.5	cm	"Body length"																																	2017/1/13	2017/1/13
PRA000020	SAA000791	ST008	7962	es-BANK	"EF15387 "	CF14	"Cyprinus carpio"	"Common carp"	2013	12	3					Asia	Japan	Ehime	32.88472222	34.30166667	132.0125	133.6930556	Female	Brain			2550	g	49	cm	"Body length"																																	2017/1/13	2017/1/13
PRA000020	SAA000792	ST008	7962	es-BANK	"EF15388 "	CF15	"Cyprinus carpio"	"Common carp"	2013	12	3					Asia	Japan	Ehime	32.88472222	34.30166667	132.0125	133.6930556	Female	Brain			3100	g	51	cm	"Body length"																																	2017/1/13	2017/1/13
PRA000020	SAA000793	ST008	7962	es-BANK	"EF15389 "	CF16	"Cyprinus carpio"	"Common carp"	2013	12	3					Asia	Japan	Ehime	32.88472222	34.30166667	132.0125	133.6930556	Female	Brain			4150	g	55	cm	"Body length"																																	2017/1/13	2017/1/13
PRA000020	SAA000794	ST008	7962	es-BANK	"EF15390 "	CF17	"Cyprinus carpio"	"Common carp"	2013	12	3					Asia	Japan	Ehime	32.88472222	34.30166667	132.0125	133.6930556	Female	Brain			3050	g	54	cm	"Body length"																																	2017/1/13	2017/1/13
PRA000020	SAA000795	ST008	7962	es-BANK	"EF15391 "	CF18	"Cyprinus carpio"	"Common carp"	2013	12	3					Asia	Japan	Ehime	32.88472222	34.30166667	132.0125	133.6930556	Female	Brain			700	g	30	cm	"Body length"																																	2017/1/13	2017/1/13
PRA000020	SAA000796	ST008	7962	es-BANK	EF15392	CF19	"Cyprinus carpio"	"Common carp"	2014	4	23					Asia	Japan	Ehime	32.88472222	34.30166667	132.0125	133.6930556	Male	Brain			2450	g	51.5	cm	"Body length"																																	2017/1/13	2017/1/13
PRA000020	SAA000797	ST008	217509	es-BANK	EF15393	CF20	"Carassius carassius"	"Crucian carp"	2014	4	23					Asia	Japan	Ehime	32.88472222	34.30166667	132.0125	133.6930556	Female	Brain			850	g	29.5	cm	"Body length"																																	2017/1/13	2017/1/13
PRA000020	SAA000798	ST008	217509	es-BANK	"EF15394 "	CF21	"Carassius carassius"	"Crucian carp"	2014	4	23					Asia	Japan	Ehime	32.88472222	34.30166667	132.0125	133.6930556	Female	Brain			650	g	26	cm	"Body length"																																	2017/1/13	2017/1/13
PRA000020	SAA000799	ST008	7962	es-BANK	"EF15395 "	CF22	"Cyprinus carpio"	"Common carp"	2014	4	23					Asia	Japan	Ehime	32.88472222	34.30166667	132.0125	133.6930556	Female	Brain			1450	g	38	cm	"Body length"																																	2017/1/13	2017/1/13
PRA000020	SAA000800	ST008	7962	es-BANK	"EF15396 "	CF23	"Cyprinus carpio"	"Common carp"	2014	4	23					Asia	Japan	Ehime	32.88472222	34.30166667	132.0125	133.6930556	Female	Brain			1700	g	40.5	cm	"Body length"																																	2017/1/13	2017/1/13
PRA000020	SAA000801	ST008	7962	es-BANK	"EF15397 "	CF24	"Cyprinus carpio"	"Common carp"	2014	4	23					Asia	Japan	Ehime	32.88472222	34.30166667	132.0125	133.6930556	Female	Brain			2750	g	49	cm	"Body length"																																	2017/1/13	2017/1/13
PRA000020	SAA000802	ST008	217509	es-BANK	"EF15380 "	CF7	"Carassius carassius"	"Crucian carp"	2013	8	8					Asia	Japan	Ehime	32.88472222	34.30166667	132.0125	133.6930556	Female	Liver			640	g	27.5	cm	"Body length"																																	2017/1/13	2017/1/13
PRA000020	SAA000803	ST008	217509	es-BANK	"EF15381 "	CF8	"Carassius carassius"	"Crucian carp"	2013	8	8					Asia	Japan	Ehime	32.88472222	34.30166667	132.0125	133.6930556	Female	Liver			590	g	27	cm	"Body length"																																	2017/1/13	2017/1/13
PRA000020	SAA000804	ST008	217509	es-BANK	"EF15382 "	CF9	"Carassius carassius"	"Crucian carp"	2013	8	8					Asia	Japan	Ehime	32.88472222	34.30166667	132.0125	133.6930556	Female	Liver			800	g	29	cm	"Body length"																																	2017/1/13	2017/1/13
PRA000020	SAA000805	ST008	217509	es-BANK	"EF15383 "	CF10	"Carassius carassius"	"Crucian carp"	2013	8	8					Asia	Japan	Ehime	32.88472222	34.30166667	132.0125	133.6930556	Female	Liver			710	g	26.5	cm	"Body length"																																	2017/1/13	2017/1/13
PRA000020	SAA000806	ST008	217509	es-BANK	"EF15384 "	CF11	"Carassius carassius"	"Crucian carp"	2013	8	8					Asia	Japan	Ehime	32.88472222	34.30166667	132.0125	133.6930556	unknown	Liver			150	g	16.5	cm	"Body length"																																	2017/1/13	2017/1/13
PRA000020	SAA000807	ST008	7962	es-BANK	"EF15385 "	CF12	"Cyprinus carpio"	"Common carp"	2013	8	8					Asia	Japan	Ehime	32.88472222	34.30166667	132.0125	133.6930556	unknown	Liver			270	g	22	cm	"Body length"																																	2017/1/13	2017/1/13
PRA000020	SAA000808	ST008	7962	es-BANK	"EF15386 "	CF13	"Cyprinus carpio"	"Common carp"	2013	8	8					Asia	Japan	Ehime	32.88472222	34.30166667	132.0125	133.6930556	Male	Liver			1600	g	42.5	cm	"Body length"																																	2017/1/13	2017/1/13
PRA000020	SAA000809	ST008	7962	es-BANK	"EF15387 "	CF14	"Cyprinus carpio"	"Common carp"	2013	12	3					Asia	Japan	Ehime	32.88472222	34.30166667	132.0125	133.6930556	Female	Liver			2550	g	49	cm	"Body length"																																	2017/1/13	2017/1/13
PRA000020	SAA000810	ST008	7962	es-BANK	"EF15388 "	CF15	"Cyprinus carpio"	"Common carp"	2013	12	3					Asia	Japan	Ehime	32.88472222	34.30166667	132.0125	133.6930556	Female	Liver			3100	g	51	cm	"Body length"																																	2017/1/13	2017/1/13
PRA000020	SAA000811	ST008	7962	es-BANK	"EF15389 "	CF16	"Cyprinus carpio"	"Common carp"	2013	12	3					Asia	Japan	Ehime	32.88472222	34.30166667	132.0125	133.6930556	Female	Liver			4150	g	55	cm	"Body length"																																	2017/1/13	2017/1/13
PRA000020	SAA000812	ST008	7962	es-BANK	"EF15390 "	CF17	"Cyprinus carpio"	"Common carp"	2013	12	3					Asia	Japan	Ehime	32.88472222	34.30166667	132.0125	133.6930556	Female	Liver			3050	g	54	cm	"Body length"																																	2017/1/13	2017/1/13
PRA000020	SAA000813	ST008	7962	es-BANK	"EF15391 "	CF18	"Cyprinus carpio"	"Common carp"	2013	12	3					Asia	Japan	Ehime	32.88472222	34.30166667	132.0125	133.6930556	Female	Liver			700	g	30	cm	"Body length"																																	2017/1/13	2017/1/13
PRA000020	SAA000814	ST008	7962	es-BANK	EF15392	CF19	"Cyprinus carpio"	"Common carp"	2014	4	23					Asia	Japan	Ehime	32.88472222	34.30166667	132.0125	133.6930556	Male	Liver			2450	g	51.5	cm	"Body length"																																	2017/1/13	2017/1/13
PRA000020	SAA000815	ST008	217509	es-BANK	EF15393	CF20	"Carassius carassius"	"Crucian carp"	2014	4	23					Asia	Japan	Ehime	32.88472222	34.30166667	132.0125	133.6930556	Female	Liver			850	g	29.5	cm	"Body length"																																	2017/1/13	2017/1/13
PRA000020	SAA000816	ST008	217509	es-BANK	"EF15394 "	CF21	"Carassius carassius"	"Crucian carp"	2014	4	23					Asia	Japan	Ehime	32.88472222	34.30166667	132.0125	133.6930556	Female	Liver			650	g	26	cm	"Body length"																																	2017/1/13	2017/1/13
PRA000020	SAA000817	ST008	7962	es-BANK	"EF15395 "	CF22	"Cyprinus carpio"	"Common carp"	2014	4	23					Asia	Japan	Ehime	32.88472222	34.30166667	132.0125	133.6930556	Female	Liver			1450	g	38	cm	"Body length"																																	2017/1/13	2017/1/13
PRA000020	SAA000818	ST008	7962	es-BANK	"EF15396 "	CF23	"Cyprinus carpio"	"Common carp"	2014	4	23					Asia	Japan	Ehime	32.88472222	34.30166667	132.0125	133.6930556	Female	Liver			1700	g	40.5	cm	"Body length"																																	2017/1/13	2017/1/13
PRA000020	SAA000819	ST008	7962	es-BANK	"EF15397 "	CF24	"Cyprinus carpio"	"Common carp"	2014	4	23					Asia	Japan	Ehime	32.88472222	34.30166667	132.0125	133.6930556	Female	Liver			2750	g	49	cm	"Body length"																																	2017/1/13	2017/1/13
PRA000020	SAA000820	ST008	217509	es-BANK	"EF15380 "	CF7	"Carassius carassius"	"Crucian carp"	2013	8	8					Asia	Japan	Ehime	32.88472222	34.30166667	132.0125	133.6930556	Female	Kidney			640	g	27.5	cm	"Body length"																																	2017/1/13	2017/1/13
PRA000020	SAA000821	ST008	217509	es-BANK	"EF15381 "	CF8	"Carassius carassius"	"Crucian carp"	2013	8	8					Asia	Japan	Ehime	32.88472222	34.30166667	132.0125	133.6930556	Female	Kidney			590	g	27	cm	"Body length"																																	2017/1/13	2017/1/13
PRA000020	SAA000822	ST008	217509	es-BANK	"EF15382 "	CF9	"Carassius carassius"	"Crucian carp"	2013	8	8					Asia	Japan	Ehime	32.88472222	34.30166667	132.0125	133.6930556	Female	Kidney			800	g	29	cm	"Body length"																																	2017/1/13	2017/1/13
PRA000020	SAA000823	ST008	217509	es-BANK	"EF15383 "	CF10	"Carassius carassius"	"Crucian carp"	2013	8	8					Asia	Japan	Ehime	32.88472222	34.30166667	132.0125	133.6930556	Female	Kidney			710	g	26.5	cm	"Body length"																																	2017/1/13	2017/1/13
PRA000020	SAA000824	ST008	217509	es-BANK	"EF15384 "	CF11	"Carassius carassius"	"Crucian carp"	2013	8	8					Asia	Japan	Ehime	32.88472222	34.30166667	132.0125	133.6930556	unknown	Kidney			150	g	16.5	cm	"Body length"																																	2017/1/13	2017/1/13
PRA000020	SAA000825	ST008	7962	es-BANK	"EF15385 "	CF12	"Cyprinus carpio"	"Common carp"	2013	8	8					Asia	Japan	Ehime	32.88472222	34.30166667	132.0125	133.6930556	unknown	Kidney			270	g	22	cm	"Body length"																																	2017/1/13	2017/1/13
PRA000020	SAA000826	ST008	7962	es-BANK	"EF15386 "	CF13	"Cyprinus carpio"	"Common carp"	2013	8	8					Asia	Japan	Ehime	32.88472222	34.30166667	132.0125	133.6930556	Male	Kidney			1600	g	42.5	cm	"Body length"																																	2017/1/13	2017/1/13
PRA000020	SAA000827	ST008	7962	es-BANK	"EF15387 "	CF14	"Cyprinus carpio"	"Common carp"	2013	12	3					Asia	Japan	Ehime	32.88472222	34.30166667	132.0125	133.6930556	Female	Kidney			2550	g	49	cm	"Body length"																																	2017/1/13	2017/1/13
PRA000020	SAA000828	ST008	7962	es-BANK	"EF15388 "	CF15	"Cyprinus carpio"	"Common carp"	2013	12	3					Asia	Japan	Ehime	32.88472222	34.30166667	132.0125	133.6930556	Female	Kidney			3100	g	51	cm	"Body length"																																	2017/1/13	2017/1/13
PRA000020	SAA000829	ST008	7962	es-BANK	"EF15389 "	CF16	"Cyprinus carpio"	"Common carp"	2013	12	3					Asia	Japan	Ehime	32.88472222	34.30166667	132.0125	133.6930556	Female	Kidney			4150	g	55	cm	"Body length"																																	2017/1/13	2017/1/13
PRA000020	SAA000830	ST008	7962	es-BANK	"EF15390 "	CF17	"Cyprinus carpio"	"Common carp"	2013	12	3					Asia	Japan	Ehime	32.88472222	34.30166667	132.0125	133.6930556	Female	Kidney			3050	g	54	cm	"Body length"																																	2017/1/13	2017/1/13
PRA000020	SAA000831	ST008	7962	es-BANK	"EF15391 "	CF18	"Cyprinus carpio"	"Common carp"	2013	12	3					Asia	Japan	Ehime	32.88472222	34.30166667	132.0125	133.6930556	Female	Kidney			700	g	30	cm	"Body length"																																	2017/1/13	2017/1/13
PRA000020	SAA000832	ST008	7962	es-BANK	EF15392	CF19	"Cyprinus carpio"	"Common carp"	2014	4	23					Asia	Japan	Ehime	32.88472222	34.30166667	132.0125	133.6930556	Male	Kidney			2450	g	51.5	cm	"Body length"																																	2017/1/13	2017/1/13
PRA000020	SAA000833	ST008	217509	es-BANK	EF15393	CF20	"Carassius carassius"	"Crucian carp"	2014	4	23					Asia	Japan	Ehime	32.88472222	34.30166667	132.0125	133.6930556	Female	Kidney			850	g	29.5	cm	"Body length"																																	2017/1/13	2017/1/13
PRA000020	SAA000834	ST008	217509	es-BANK	"EF15394 "	CF21	"Carassius carassius"	"Crucian carp"	2014	4	23					Asia	Japan	Ehime	32.88472222	34.30166667	132.0125	133.6930556	Female	Kidney			650	g	26	cm	"Body length"																																	2017/1/13	2017/1/13
PRA000020	SAA000835	ST008	7962	es-BANK	"EF15395 "	CF22	"Cyprinus carpio"	"Common carp"	2014	4	23					Asia	Japan	Ehime	32.88472222	34.30166667	132.0125	133.6930556	Female	Kidney			1450	g	38	cm	"Body length"																																	2017/1/13	2017/1/13
PRA000020	SAA000836	ST008	7962	es-BANK	"EF15396 "	CF23	"Cyprinus carpio"	"Common carp"	2014	4	23					Asia	Japan	Ehime	32.88472222	34.30166667	132.0125	133.6930556	Female	Kidney			1700	g	40.5	cm	"Body length"																																	2017/1/13	2017/1/13
PRA000020	SAA000837	ST008	7962	es-BANK	"EF15397 "	CF24	"Cyprinus carpio"	"Common carp"	2014	4	23					Asia	Japan	Ehime	32.88472222	34.30166667	132.0125	133.6930556	Female	Kidney			2750	g	49	cm	"Body length"																																	2017/1/13	2017/1/13
PRA000020	SAA000838	ST008	217509	es-BANK	"EF15380 "	CF7	"Carassius carassius"	"Crucian carp"	2013	8	8					Asia	Japan	Ehime	32.88472222	34.30166667	132.0125	133.6930556	Female	Muscle			640	g	27.5	cm	"Body length"																																	2017/1/13	2017/1/13
PRA000020	SAA000839	ST008	217509	es-BANK	"EF15381 "	CF8	"Carassius carassius"	"Crucian carp"	2013	8	8					Asia	Japan	Ehime	32.88472222	34.30166667	132.0125	133.6930556	Female	Muscle			590	g	27	cm	"Body length"																																	2017/1/13	2017/1/13
PRA000020	SAA000840	ST008	217509	es-BANK	"EF15382 "	CF9	"Carassius carassius"	"Crucian carp"	2013	8	8					Asia	Japan	Ehime	32.88472222	34.30166667	132.0125	133.6930556	Female	Muscle			800	g	29	cm	"Body length"																																	2017/1/13	2017/1/13
PRA000020	SAA000841	ST008	217509	es-BANK	"EF15383 "	CF10	"Carassius carassius"	"Crucian carp"	2013	8	8					Asia	Japan	Ehime	32.88472222	34.30166667	132.0125	133.6930556	Female	Muscle			710	g	26.5	cm	"Body length"																																	2017/1/13	2017/1/13
PRA000020	SAA000842	ST008	217509	es-BANK	"EF15384 "	CF11	"Carassius carassius"	"Crucian carp"	2013	8	8					Asia	Japan	Ehime	32.88472222	34.30166667	132.0125	133.6930556	unknown	Muscle			150	g	16.5	cm	"Body length"																																	2017/1/13	2017/1/13
PRA000020	SAA000843	ST008	7962	es-BANK	"EF15385 "	CF12	"Cyprinus carpio"	"Common carp"	2013	8	8					Asia	Japan	Ehime	32.88472222	34.30166667	132.0125	133.6930556	unknown	Muscle			270	g	22	cm	"Body length"																																	2017/1/13	2017/1/13
PRA000020	SAA000844	ST008	7962	es-BANK	"EF15386 "	CF13	"Cyprinus carpio"	"Common carp"	2013	8	8					Asia	Japan	Ehime	32.88472222	34.30166667	132.0125	133.6930556	Male	Muscle			1600	g	42.5	cm	"Body length"																																	2017/1/13	2017/1/13
PRA000020	SAA000845	ST008	7962	es-BANK	"EF15387 "	CF14	"Cyprinus carpio"	"Common carp"	2013	12	3					Asia	Japan	Ehime	32.88472222	34.30166667	132.0125	133.6930556	Female	Muscle			2550	g	49	cm	"Body length"																																	2017/1/13	2017/1/13
PRA000020	SAA000846	ST008	7962	es-BANK	"EF15388 "	CF15	"Cyprinus carpio"	"Common carp"	2013	12	3					Asia	Japan	Ehime	32.88472222	34.30166667	132.0125	133.6930556	Female	Muscle			3100	g	51	cm	"Body length"																																	2017/1/13	2017/1/13
PRA000020	SAA000847	ST008	7962	es-BANK	"EF15389 "	CF16	"Cyprinus carpio"	"Common carp"	2013	12	3					Asia	Japan	Ehime	32.88472222	34.30166667	132.0125	133.6930556	Female	Muscle			4150	g	55	cm	"Body length"																																	2017/1/13	2017/1/13
PRA000020	SAA000848	ST008	7962	es-BANK	"EF15390 "	CF17	"Cyprinus carpio"	"Common carp"	2013	12	3					Asia	Japan	Ehime	32.88472222	34.30166667	132.0125	133.6930556	Female	Muscle			3050	g	54	cm	"Body length"																																	2017/1/13	2017/1/13
PRA000020	SAA000849	ST008	7962	es-BANK	"EF15391 "	CF18	"Cyprinus carpio"	"Common carp"	2013	12	3					Asia	Japan	Ehime	32.88472222	34.30166667	132.0125	133.6930556	Female	Muscle			700	g	30	cm	"Body length"																																	2017/1/13	2017/1/13
PRA000020	SAA000850	ST008	7962	es-BANK	EF15392	CF19	"Cyprinus carpio"	"Common carp"	2014	4	23					Asia	Japan	Ehime	32.88472222	34.30166667	132.0125	133.6930556	Male	Muscle			2450	g	51.5	cm	"Body length"																																	2017/1/13	2017/1/13
PRA000020	SAA000851	ST008	217509	es-BANK	EF15393	CF20	"Carassius carassius"	"Crucian carp"	2014	4	23					Asia	Japan	Ehime	32.88472222	34.30166667	132.0125	133.6930556	Female	Muscle			850	g	29.5	cm	"Body length"																																	2017/1/13	2017/1/13
PRA000020	SAA000852	ST008	217509	es-BANK	"EF15394 "	CF21	"Carassius carassius"	"Crucian carp"	2014	4	23					Asia	Japan	Ehime	32.88472222	34.30166667	132.0125	133.6930556	Female	Muscle			650	g	26	cm	"Body length"																																	2017/1/13	2017/1/13
PRA000020	SAA000853	ST008	7962	es-BANK	"EF15395 "	CF22	"Cyprinus carpio"	"Common carp"	2014	4	23					Asia	Japan	Ehime	32.88472222	34.30166667	132.0125	133.6930556	Female	Muscle			1450	g	38	cm	"Body length"																																	2017/1/13	2017/1/13
PRA000020	SAA000854	ST008	7962	es-BANK	"EF15396 "	CF23	"Cyprinus carpio"	"Common carp"	2014	4	23					Asia	Japan	Ehime	32.88472222	34.30166667	132.0125	133.6930556	Female	Muscle			1700	g	40.5	cm	"Body length"																																	2017/1/13	2017/1/13
PRA000020	SAA000855	ST008	7962	es-BANK	"EF15397 "	CF24	"Cyprinus carpio"	"Common carp"	2014	4	23					Asia	Japan	Ehime	32.88472222	34.30166667	132.0125	133.6930556	Female	Muscle			2750	g	49	cm	"Body length"																																	2017/1/13	2017/1/13
PRA000020	SAA000856	ST008	217509	es-BANK	"EF15380 "	CF7	"Carassius carassius"	"Crucian carp"	2013	8	8					Asia	Japan	Ehime	32.88472222	34.30166667	132.0125	133.6930556	Female	Gills			640	g	27.5	cm	"Body length"																																	2017/1/13	2017/1/13
PRA000020	SAA000857	ST008	217509	es-BANK	"EF15381 "	CF8	"Carassius carassius"	"Crucian carp"	2013	8	8					Asia	Japan	Ehime	32.88472222	34.30166667	132.0125	133.6930556	Female	Gills			590	g	27	cm	"Body length"																																	2017/1/13	2017/1/13
PRA000020	SAA000858	ST008	217509	es-BANK	"EF15382 "	CF9	"Carassius carassius"	"Crucian carp"	2013	8	8					Asia	Japan	Ehime	32.88472222	34.30166667	132.0125	133.6930556	Female	Gills			800	g	29	cm	"Body length"																																	2017/1/13	2017/1/13
PRA000020	SAA000859	ST008	217509	es-BANK	"EF15383 "	CF10	"Carassius carassius"	"Crucian carp"	2013	8	8					Asia	Japan	Ehime	32.88472222	34.30166667	132.0125	133.6930556	Female	Gills			710	g	26.5	cm	"Body length"																																	2017/1/13	2017/1/13
PRA000020	SAA000860	ST008	217509	es-BANK	"EF15384 "	CF11	"Carassius carassius"	"Crucian carp"	2013	8	8					Asia	Japan	Ehime	32.88472222	34.30166667	132.0125	133.6930556	unknown	Gills			150	g	16.5	cm	"Body length"																																	2017/1/13	2017/1/13
PRA000020	SAA000861	ST008	7962	es-BANK	"EF15385 "	CF12	"Cyprinus carpio"	"Common carp"	2013	8	8					Asia	Japan	Ehime	32.88472222	34.30166667	132.0125	133.6930556	unknown	Gills			270	g	22	cm	"Body length"																																	2017/1/13	2017/1/13
PRA000020	SAA000862	ST008	7962	es-BANK	"EF15386 "	CF13	"Cyprinus carpio"	"Common carp"	2013	8	8					Asia	Japan	Ehime	32.88472222	34.30166667	132.0125	133.6930556	Male	Gills			1600	g	42.5	cm	"Body length"																																	2017/1/13	2017/1/13
PRA000020	SAA000863	ST008	7962	es-BANK	"EF15387 "	CF14	"Cyprinus carpio"	"Common carp"	2013	12	3					Asia	Japan	Ehime	32.88472222	34.30166667	132.0125	133.6930556	Female	Gills			2550	g	49	cm	"Body length"																																	2017/1/13	2017/1/13
PRA000020	SAA000864	ST008	7962	es-BANK	"EF15388 "	CF15	"Cyprinus carpio"	"Common carp"	2013	12	3					Asia	Japan	Ehime	32.88472222	34.30166667	132.0125	133.6930556	Female	Gills			3100	g	51	cm	"Body length"																																	2017/1/13	2017/1/13
PRA000020	SAA000865	ST008	7962	es-BANK	"EF15389 "	CF16	"Cyprinus carpio"	"Common carp"	2013	12	3					Asia	Japan	Ehime	32.88472222	34.30166667	132.0125	133.6930556	Female	Gills			4150	g	55	cm	"Body length"																																	2017/1/13	2017/1/13
PRA000020	SAA000866	ST008	7962	es-BANK	"EF15390 "	CF17	"Cyprinus carpio"	"Common carp"	2013	12	3					Asia	Japan	Ehime	32.88472222	34.30166667	132.0125	133.6930556	Female	Gills			3050	g	54	cm	"Body length"																																	2017/1/13	2017/1/13
PRA000020	SAA000867	ST008	7962	es-BANK	"EF15391 "	CF18	"Cyprinus carpio"	"Common carp"	2013	12	3					Asia	Japan	Ehime	32.88472222	34.30166667	132.0125	133.6930556	Female	Gills			700	g	30	cm	"Body length"																																	2017/1/13	2017/1/13
PRA000020	SAA000868	ST008	7962	es-BANK	EF15392	CF19	"Cyprinus carpio"	"Common carp"	2014	4	23					Asia	Japan	Ehime	32.88472222	34.30166667	132.0125	133.6930556	Male	Gills			2450	g	51.5	cm	"Body length"																																	2017/1/13	2017/1/13
PRA000020	SAA000869	ST008	217509	es-BANK	EF15393	CF20	"Carassius carassius"	"Crucian carp"	2014	4	23					Asia	Japan	Ehime	32.88472222	34.30166667	132.0125	133.6930556	Female	Gills			850	g	29.5	cm	"Body length"																																	2017/1/13	2017/1/13
PRA000020	SAA000870	ST008	217509	es-BANK	"EF15394 "	CF21	"Carassius carassius"	"Crucian carp"	2014	4	23					Asia	Japan	Ehime	32.88472222	34.30166667	132.0125	133.6930556	Female	Gills			650	g	26	cm	"Body length"																																	2017/1/13	2017/1/13
PRA000020	SAA000871	ST008	7962	es-BANK	"EF15395 "	CF22	"Cyprinus carpio"	"Common carp"	2014	4	23					Asia	Japan	Ehime	32.88472222	34.30166667	132.0125	133.6930556	Female	Gills			1450	g	38	cm	"Body length"																																	2017/1/13	2017/1/13
PRA000020	SAA000872	ST008	7962	es-BANK	"EF15396 "	CF23	"Cyprinus carpio"	"Common carp"	2014	4	23					Asia	Japan	Ehime	32.88472222	34.30166667	132.0125	133.6930556	Female	Gills			1700	g	40.5	cm	"Body length"																																	2017/1/13	2017/1/13
PRA000020	SAA000873	ST008	7962	es-BANK	"EF15397 "	CF24	"Cyprinus carpio"	"Common carp"	2014	4	23					Asia	Japan	Ehime	32.88472222	34.30166667	132.0125	133.6930556	Female	Gills			2750	g	49	cm	"Body length"																																	2017/1/13	2017/1/13
PRA000020	SAA000874	ST015				WK1	Water	"Ambient water from effluent-dominated streams"	2011	11	2					Asia	Japan	Kumamoto	32.09472222	33.19527778	129.9402778	131.3294444																																									"n=3; At 6-h intervals"	2017/1/13	2017/1/13
PRA000020	SAA000875	ST015				WE1	Water	"Ambient water from effluent-dominated streams"	2013	8	8					Asia	Japan	Ehime	32.88472222	34.30166667	132.0125	133.6930556																																									"n=5; At 6-h intervals"	2017/1/13	2017/1/13
PRA000020	SAA000876	ST015				WE2	Water	"Ambient water from effluent-dominated streams"	2013	12	3					Asia	Japan	Ehime	32.88472222	34.30166667	132.0125	133.6930556																																									"n=4; At 6-h intervals"	2017/1/13	2017/1/13
PRA000020	SAA000877	ST015				WE3	Water	"Ambient water from effluent-dominated streams"	2014	4	23					Asia	Japan	Ehime	32.88472222	34.30166667	132.0125	133.6930556																																									"n=4; At 6-h intervals"	2017/1/13	2017/1/13
PRA000020	SAA000878	ST015				WE4	Water	"Ambient water from effluent-dominated streams"	2014	8	18					Asia	Japan	Ehime	32.88472222	34.30166667	132.0125	133.6930556																																									n=1	2017/1/13	2017/1/13
PRA000020	SAA000879	ST010				P1	Plant	Periphytons	2014	8	18					Asia	Japan	Ehime	32.88472222	34.30166667	132.0125	133.6930556																																									"Periphyton communities on rocks collected from the same site as the collection site of fish and water."	2017/1/13	2017/1/13
PRA000055	SAA003483	ST008	454008			Bt4-1	"Carangoides hedlandensis"	"Bumpnose trevally"	2008							Asia	Philippines	"Manila Bay"	14.240205	14.81182	120.500971	120.982587		Muscle	0.57	77.47	36.6	g	13.1	cm	"Fork length"																																"Collection Month: 6 or 11; Collected from local fish market; Habitat: Demersal; Major food items: Shrimps, small crabs and fishes"	2017/12/18	2017/12/18
PRA000055	SAA003484	ST008	454008			Bt4-2	"Carangoides hedlandensis"	"Bumpnose trevally"	2008							Asia	Philippines	"Manila Bay"	14.240205	14.81182	120.500971	120.982587		Muscle	0.23	80.43	40	g	13.3	cm	"Fork length"																																"Collection Month: 6 or 11; Collected from local fish market; Habitat: Demersal; Major food items: Shrimps, small crabs and fishes"	2017/12/18	2017/12/18
PRA000055	SAA003485	ST008	454008			Bt4-3	"Carangoides hedlandensis"	"Bumpnose trevally"	2008							Asia	Philippines	"Manila Bay"	14.240205	14.81182	120.500971	120.982587		Muscle	0.41	77.05	38.5	g	13.4	cm	"Fork length"																																"Collection Month: 6 or 11; Collected from local fish market; Habitat: Demersal; Major food items: Shrimps, small crabs and fishes"	2017/12/18	2017/12/18
PRA000055	SAA003486	ST008	146146			Ps3-1	"Selar crumenthalmops"	"Purse-eye scad"	2008							Asia	Philippines	"Manila Bay"	14.240205	14.81182	120.500971	120.982587		Muscle	4.38	71.4	163.8	g	22	cm	"Fork length"																																"Collection Month: 6 or 11; Collected from local fish market; Habitat: Pelagic; Major food items: Shrimps and small invertebrates"	2017/12/18	2017/12/18
PRA000055	SAA003487	ST008	146146			Ps3-2	"Selar crumenthalmops"	"Purse-eye scad"	2008							Asia	Philippines	"Manila Bay"	14.240205	14.81182	120.500971	120.982587		Muscle	0.89	75.79	118	g	19.5	cm	"Fork length"																																"Collection Month: 6 or 11; Collected from local fish market; Habitat: Pelagic; Major food items: Shrimps and small invertebrates"	2017/12/18	2017/12/18
PRA000055	SAA003488	ST008	146146			Ps3-3	"Selar crumenthalmops"	"Purse-eye scad"	2008							Asia	Philippines	"Manila Bay"	14.240205	14.81182	120.500971	120.982587		Muscle	2.55	72.91	113.6	g	19	cm	"Fork length"																																"Collection Month: 6 or 11; Collected from local fish market; Habitat: Pelagic; Major food items: Shrimps and small invertebrates"	2017/12/18	2017/12/18
PRA000055	SAA003489	ST008	197572			Yts27-1	"Atule mate"	"Yellowtail scad"	2008							Asia	Philippines	"Manila Bay"	14.240205	14.81182	120.500971	120.982587		Muscle	0.99	74.91	15	g	11	cm	"Fork length"																																"Collection Month: 6 or 11; Collected from local fish market; Habitat: Pelagic; Major food items: Crustaceans and cephalopods"	2017/12/18	2017/12/18
PRA000055	SAA003490	ST008	197572			Yts27-2	"Atule mate"	"Yellowtail scad"	2008							Asia	Philippines	"Manila Bay"	14.240205	14.81182	120.500971	120.982587		Muscle	3.52	73.7	15.3	g	11.5	cm	"Fork length"																																"Collection Month: 6 or 11; Collected from local fish market; Habitat: Pelagic; Major food items: Crustaceans and cephalopods"	2017/12/18	2017/12/18
PRA000055	SAA003491	ST008	197572			Yts27-3	"Atule mate"	"Yellowtail scad"	2008							Asia	Philippines	"Manila Bay"	14.240205	14.81182	120.500971	120.982587		Muscle	2.78	74.58	12.3	g	10.5	cm	"Fork length"																																"Collection Month: 6 or 11; Collected from local fish market; Habitat: Pelagic; Major food items: Crustaceans and cephalopods"	2017/12/18	2017/12/18
PRA000055	SAA003492	ST008	173311			Yss21-1	"Selaroides leptolepis"	"Yellowstripe scad "	2008							Asia	Philippines	"Manila Bay"	14.240205	14.81182	120.500971	120.982587		Muscle	2.29	74.56	15.9	g	11	cm	"Fork length"																																"Collection Month: 6 or 11; Collected from local fish market; Habitat: Demersal; Major food items: Ostracods, gastropods and euphausiids"	2017/12/18	2017/12/18
PRA000055	SAA003493	ST008	173311			Yss21-2	"Selaroides leptolepis"	"Yellowstripe scad "	2008							Asia	Philippines	"Manila Bay"	14.240205	14.81182	120.500971	120.982587		Muscle	4	72.38	21.4	g	12	cm	"Fork length"																																"Collection Month: 6 or 11; Collected from local fish market; Habitat: Demersal; Major food items: Ostracods, gastropods and euphausiids"	2017/12/18	2017/12/18
PRA000055	SAA003494	ST008	173311			Yss21-3	"Selaroides leptolepis"	"Yellowstripe scad "	2008							Asia	Philippines	"Manila Bay"	14.240205	14.81182	120.500971	120.982587		Muscle	1.19	83.55	12.7	g	10.5	cm	"Fork length"																																"Collection Month: 6 or 11; Collected from local fish market; Habitat: Demersal; Major food items: Ostracods, gastropods and euphausiids"	2017/12/18	2017/12/18
PRA000055	SAA003495	ST008	146142			Rs19-1	"Decapterus kurroides"	"Redtail scad"	2008							Asia	Philippines	"Manila Bay"	14.240205	14.81182	120.500971	120.982587		Muscle	1.37	75.3	69.6	g	20	cm	"Fork length"																																"Collection Month: 6 or 11; Collected from local fish market; Habitat: Pelagic; Major food items: Zooplankton and invertebrates"	2017/12/18	2017/12/18
PRA000055	SAA003496	ST008	146142			Rs19-2	"Decapterus kurroides"	"Redtail scad"	2008							Asia	Philippines	"Manila Bay"	14.240205	14.81182	120.500971	120.982587		Muscle	0.98	78.02	66.8	g	19	cm	"Fork length"																																"Collection Month: 6 or 11; Collected from local fish market; Habitat: Pelagic; Major food items: Zooplankton and invertebrates"	2017/12/18	2017/12/18
PRA000055	SAA003497	ST008	909127			Bm5-a	"Valamugil buchanani "	"Bluetail mullet  "	2008							Asia	Philippines	"Manila Bay"	14.240205	14.81182	120.500971	120.982587		Muscle	0.23	78.11	531	g	31	cm	"Fork length"	Adult																															"Collection Month: 6 or 11; Collected from local fish market; Habitat: Demersal; Major food items: Phytoplankton and crustaceans"	2017/12/18	2017/12/18
PRA000055	SAA003498	ST008	909127			Bm6-1j	"Valamugil buchanani "	"Bluetail mullet  "	2008							Asia	Philippines	"Manila Bay"	14.240205	14.81182	120.500971	120.982587		Muscle	0.9	76.17	143.9	g	24.5	cm	"Fork length"	Juvenile																															"Collection Month: 6 or 11; Collected from local fish market; Habitat: Demersal; Major food items: Phytoplankton and crustaceans"	2017/12/18	2017/12/18
PRA000055	SAA003499	ST008	909127			Bm6-2j	"Valamugil buchanani "	"Bluetail mullet  "	2008							Asia	Philippines	"Manila Bay"	14.240205	14.81182	120.500971	120.982587		Muscle	1.74	75.79	169.4	g	23.5	cm	"Fork length"	Juvenile																															"Collection Month: 6 or 11; Collected from local fish market; Habitat: Demersal; Major food items: Phytoplankton and crustaceans"	2017/12/18	2017/12/18
PRA000055	SAA003500	ST008	48193			Fgm13-1	"Mugil cephalus"	"Flathead grey mullet"	2008							Asia	Philippines	"Manila Bay"	14.240205	14.81182	120.500971	120.982587		Muscle	0.3	78.73	35.4	g	14.5	cm	"Fork length"																																"Collection Month: 6 or 11; Collected from local fish market; Habitat: Demersal; Major food items: Zooplankton, detritus, and benthic organisms"	2017/12/18	2017/12/18
PRA000055	SAA003501	ST008	48193			Fgm13-2	"Mugil cephalus"	"Flathead grey mullet"	2008							Asia	Philippines	"Manila Bay"	14.240205	14.81182	120.500971	120.982587		Muscle	0.97	77.69	31	g	15	cm	"Fork length"																																"Collection Month: 6 or 11; Collected from local fish market; Habitat: Demersal; Major food items: Zooplankton, detritus, and benthic organisms"	2017/12/18	2017/12/18
PRA000055	SAA003502	ST008	48193			Fgm13-3	"Mugil cephalus"	"Flathead grey mullet"	2008							Asia	Philippines	"Manila Bay"	14.240205	14.81182	120.500971	120.982587		Muscle	0.89	77.38	33.9	g	14.5	cm	"Fork length"																																"Collection Month: 6 or 11; Collected from local fish market; Habitat: Demersal; Major food items: Zooplankton, detritus, and benthic organisms"	2017/12/18	2017/12/18
PRA000055	SAA003503	ST008	604079			Cgs1-1	"Anodontostoma chacuda"	"Chacunda gizzard shad"	2008							Asia	Philippines	"Manila Bay"	14.240205	14.81182	120.500971	120.982587		Muscle	1.89	74.5	23.6	g	12.3	cm	"Fork length"																																"Collection Month: 6 or 11; Collected from local fish market; Habitat: Pelagic; Major food items: Phytoplankton, zooplankton, and crustaceans"	2017/12/18	2017/12/18
PRA000055	SAA003504	ST008	604079			Cgs1-2	"Anodontostoma chacuda"	"Chacunda gizzard shad"	2008							Asia	Philippines	"Manila Bay"	14.240205	14.81182	120.500971	120.982587		Muscle	1.96	75.79	19.6	g	12.5	cm	"Fork length"																																"Collection Month: 6 or 11; Collected from local fish market; Habitat: Pelagic; Major food items: Phytoplankton, zooplankton, and crustaceans"	2017/12/18	2017/12/18
PRA000055	SAA003505	ST008	604079			Cgs1-3	"Anodontostoma chacuda"	"Chacunda gizzard shad"	2008							Asia	Philippines	"Manila Bay"	14.240205	14.81182	120.500971	120.982587		Muscle	0.93	75.45	19.6	g	12.4	cm	"Fork length"																																"Collection Month: 6 or 11; Collected from local fish market; Habitat: Pelagic; Major food items: Phytoplankton, zooplankton, and crustaceans"	2017/12/18	2017/12/18
PRA000055	SAA003506	ST008	445363			Ts14-2	"Tenualosa toli "	"Toli shad"	2008							Asia	Philippines	"Manila Bay"	14.240205	14.81182	120.500971	120.982587		Muscle	1.09	76.38	22.7	g	13	cm	"Fork length"																																"Collection Month: 6 or 11; Collected from local fish market; Habitat: Pelagic; Major food items: Zooplankton"	2017/12/18	2017/12/18
PRA000055	SAA003507	ST008	445363			Ts14-3	"Tenualosa toli "	"Toli shad"	2008							Asia	Philippines	"Manila Bay"	14.240205	14.81182	120.500971	120.982587		Muscle	1.5	75.96	23.9	g	13	cm	"Fork length"																																"Collection Month: 6 or 11; Collected from local fish market; Habitat: Pelagic; Major food items: Zooplankton"	2017/12/18	2017/12/18
PRA000055	SAA003508	ST008	445363			Ts20-1	"Tenualosa toli "	"Toli shad"	2008							Asia	Philippines	"Manila Bay"	14.240205	14.81182	120.500971	120.982587		Muscle	1.58	76.42	20	g	12.5	cm	"Fork length"																																"Collection Month: 6 or 11; Collected from local fish market; Habitat: Pelagic; Major food items: Zooplankton"	2017/12/18	2017/12/18
PRA000055	SAA003509	ST008	445363			Ts20-2	"Tenualosa toli "	"Toli shad"	2008							Asia	Philippines	"Manila Bay"	14.240205	14.81182	120.500971	120.982587		Muscle	1.02	78.18	23.6	g	13	cm	"Fork length"																																"Collection Month: 6 or 11; Collected from local fish market; Habitat: Pelagic; Major food items: Zooplankton"	2017/12/18	2017/12/18
PRA000055	SAA003510	ST008	445363			Ts20-3	"Tenualosa toli "	"Toli shad"	2008							Asia	Philippines	"Manila Bay"	14.240205	14.81182	120.500971	120.982587		Muscle	1.06	76.8	19.7	g	12	cm	"Fork length"																																"Collection Month: 6 or 11; Collected from local fish market; Habitat: Pelagic; Major food items: Zooplankton"	2017/12/18	2017/12/18
PRA000055	SAA003511	ST008	445363			Ts22-1	"Tenualosa toli "	"Toli shad"	2008							Asia	Philippines	"Manila Bay"	14.240205	14.81182	120.500971	120.982587		Muscle	1.04	74.61	17.3	g	12	cm	"Fork length"																																"Collection Month: 6 or 11; Collected from local fish market; Habitat: Pelagic; Major food items: Zooplankton"	2017/12/18	2017/12/18
PRA000055	SAA003512	ST008	445363			Ts22-2	"Tenualosa toli "	"Toli shad"	2008							Asia	Philippines	"Manila Bay"	14.240205	14.81182	120.500971	120.982587		Muscle	1.31	75.55	16.3	g	11.5	cm	"Fork length"																																"Collection Month: 6 or 11; Collected from local fish market; Habitat: Pelagic; Major food items: Zooplankton"	2017/12/18	2017/12/18
PRA000055	SAA003513	ST008	332416			Dbm29-1	"Gerres erythrourus"	"Deep-bodied mojarra"	2008							Asia	Philippines	"Manila Bay"	14.240205	14.81182	120.500971	120.982587		Muscle	0.98	76.77	59	g	14.5	cm	"Fork length"																																"Collection Month: 6 or 11; Collected from local fish market; Habitat: Demersal; Major food items: Zooplankton, bivalves, crustaceans, and fishes"	2017/12/18	2017/12/18
PRA000055	SAA003514	ST008	332416			Dbm29-2	"Gerres erythrourus"	"Deep-bodied mojarra"	2008							Asia	Philippines	"Manila Bay"	14.240205	14.81182	120.500971	120.982587		Muscle	1.01	76.99	35.5	g	13	cm	"Fork length"																																"Collection Month: 6 or 11; Collected from local fish market; Habitat: Demersal; Major food items: Zooplankton, bivalves, crustaceans, and fishes"	2017/12/18	2017/12/18
PRA000055	SAA003515	ST008	332416			Dbm29-3	"Gerres erythrourus"	"Deep-bodied mojarra"	2008							Asia	Philippines	"Manila Bay"	14.240205	14.81182	120.500971	120.982587		Muscle	0.52	76.18	36.3	g	13	cm	"Fork length"																																"Collection Month: 6 or 11; Collected from local fish market; Habitat: Demersal; Major food items: Zooplankton, bivalves, crustaceans, and fishes"	2017/12/18	2017/12/18
PRA000055	SAA003516	ST008	495039			Lm7-1	"Pentaprion longimanus"	"Longfin mojarra"	2008							Asia	Philippines	"Manila Bay"	14.240205	14.81182	120.500971	120.982587		Muscle	0.35	77.16	35.3	g	13	cm	"Fork length"																																"Collection Month: 6 or 11; Collected from local fish market; Habitat: Demersal; Major food items: Benthic animals"	2017/12/18	2017/12/18
PRA000055	SAA003517	ST008	495039			Lm7-2	"Pentaprion longimanus"	"Longfin mojarra"	2008							Asia	Philippines	"Manila Bay"	14.240205	14.81182	120.500971	120.982587		Muscle	0.85	76.13	34.1	g	13	cm	"Fork length"																																"Collection Month: 6 or 11; Collected from local fish market; Habitat: Demersal; Major food items: Benthic animals"	2017/12/18	2017/12/18
PRA000055	SAA003518	ST008	495039			Lm7-3	"Pentaprion longimanus"	"Longfin mojarra"	2008							Asia	Philippines	"Manila Bay"	14.240205	14.81182	120.500971	120.982587		Muscle	0.27	77.24	27.7	g	12	cm	"Fork length"																																"Collection Month: 6 or 11; Collected from local fish market; Habitat: Demersal; Major food items: Benthic animals"	2017/12/18	2017/12/18
PRA000055	SAA003519	ST008	546549			Ft26-1	"Pelates quadrilineatus"	"Fourlined terapon"	2008							Asia	Philippines	"Manila Bay"	14.240205	14.81182	120.500971	120.982587		Muscle	1.52	76.91	17.5	g	11	cm	"Fork length"																																"Collection Month: 6 or 11; Collected from local fish market; Habitat: Pelagic; Major food items: Invertebrates"	2017/12/18	2017/12/18
PRA000055	SAA003520	ST008	546549			Ft26-2	"Pelates quadrilineatus"	"Fourlined terapon"	2008							Asia	Philippines	"Manila Bay"	14.240205	14.81182	120.500971	120.982587		Muscle	1.55	77.36	27.5	g	13	cm	"Fork length"																																"Collection Month: 6 or 11; Collected from local fish market; Habitat: Pelagic; Major food items: Invertebrates"	2017/12/18	2017/12/18
PRA000055	SAA003521	ST008	546549			Ft26-3	"Pelates quadrilineatus"	"Fourlined terapon"	2008							Asia	Philippines	"Manila Bay"	14.240205	14.81182	120.500971	120.982587		Muscle	4.44	73.73	18	g	10.5	cm	"Fork length"																																"Collection Month: 6 or 11; Collected from local fish market; Habitat: Pelagic; Major food items: Invertebrates"	2017/12/18	2017/12/18
PRA000055	SAA003522	ST008	529118			Ia25-1	"Stolephorus indicus"	"Indian anchovy"	2008							Asia	Philippines	"Manila Bay"	14.240205	14.81182	120.500971	120.982587		"Whole body"	3.29	73.64	5.3	g	8	cm	"Fork length"																																"Collection Month: 6 or 11; Collected from local fish market; Habitat: Pelagic; Major food items: Zooplankton"	2017/12/18	2017/12/18
PRA000055	SAA003523	ST008	529118			Ia25-2	"Stolephorus indicus"	"Indian anchovy"	2008							Asia	Philippines	"Manila Bay"	14.240205	14.81182	120.500971	120.982587		"Whole body"	0.58	75.99	9	g	9	cm	"Fork length"																																"Collection Month: 6 or 11; Collected from local fish market; Habitat: Pelagic; Major food items: Zooplankton"	2017/12/18	2017/12/18
PRA000055	SAA003524	ST008	529118			Ia25-3	"Stolephorus indicus"	"Indian anchovy"	2008							Asia	Philippines	"Manila Bay"	14.240205	14.81182	120.500971	120.982587		"Whole body"	0.85	75.93	7.6	g	8.5	cm	"Fork length"																																"Collection Month: 6 or 11; Collected from local fish market; Habitat: Pelagic; Major food items: Zooplankton"	2017/12/18	2017/12/18
PRA000055	SAA003525	ST008	70446			Im17	"Rastreliliger kanagurta"	"Indian mackerel"	2008							Asia	Philippines	"Manila Bay"	14.240205	14.81182	120.500971	120.982587		Muscle	1.18	73.66	93.4	g	20	cm	"Fork length"																																"Collection Month: 6 or 11; Collected from local fish market; Habitat: Pelagic; Major food items: Phytoplankton and zooplankton"	2017/12/18	2017/12/18
PRA000055	SAA003526	ST008	218804			Cp24-1	"Leiognathus equulus"	"Common ponyfish "	2008							Asia	Philippines	"Manila Bay"	14.240205	14.81182	120.500971	120.982587		Muscle	1.77	76.98	12.5	g	9	cm	"Fork length"																																"Collection Month: 6 or 11; Collected from local fish market; Habitat: Demersal; Major food items: Polychaetes, crustaceans, fishes and worms"	2017/12/18	2017/12/18
PRA000055	SAA003527	ST008	218804			Cp24-2	"Leiognathus equulus"	"Common ponyfish "	2008							Asia	Philippines	"Manila Bay"	14.240205	14.81182	120.500971	120.982587		Muscle	0.47	78.18	10.2	g	8	cm	"Fork length"																																"Collection Month: 6 or 11; Collected from local fish market; Habitat: Demersal; Major food items: Polychaetes, crustaceans, fishes and worms"	2017/12/18	2017/12/18
PRA000055	SAA003528	ST008	218804			Cp24-3	"Leiognathus equulus"	"Common ponyfish "	2008							Asia	Philippines	"Manila Bay"	14.240205	14.81182	120.500971	120.982587		Muscle	1.1	77.68	11.6	g	9	cm	"Fork length"																																"Collection Month: 6 or 11; Collected from local fish market; Habitat: Demersal; Major food items: Polychaetes, crustaceans, fishes and worms"	2017/12/18	2017/12/18
PRA000055	SAA003529	ST008	435225			Ssi16-1	"Sillago sihama"	"Silver sillago"	2008							Asia	Philippines	"Manila Bay"	14.240205	14.81182	120.500971	120.982587		Muscle	0.27	78.64	24.9	g	14.5	cm	"Fork length"																																"Collection Month: 6 or 11; Collected from local fish market; Habitat: Demersal; Major food items: Polychaete worms and crustaceans"	2017/12/18	2017/12/18
PRA000055	SAA003530	ST008	435225			Ssi16-2	"Sillago sihama"	"Silver sillago"	2008							Asia	Philippines	"Manila Bay"	14.240205	14.81182	120.500971	120.982587		Muscle	0.19	78.77	22.9	g	14	cm	"Fork length"																																"Collection Month: 6 or 11; Collected from local fish market; Habitat: Demersal; Major food items: Polychaete worms and crustaceans"	2017/12/18	2017/12/18
PRA000055	SAA003531	ST008	568894			Yg15-1	"Upeneus vittatus"	"Yellowstriped goatfish"	2008							Asia	Philippines	"Manila Bay"	14.240205	14.81182	120.500971	120.982587		Muscle	0.12	78.08	36	g	14	cm	"Fork length"																																"Collection Month: 6 or 11; Collected from local fish market; Habitat: Demersal; Major food items: Small crustaceans"	2017/12/18	2017/12/18
PRA000055	SAA003532	ST008	568894			Yg15-2	"Upeneus vittatus"	"Yellowstriped goatfish"	2008							Asia	Philippines	"Manila Bay"	14.240205	14.81182	120.500971	120.982587		Muscle	0.24	78.27	28.7	g	13	cm	"Fork length"																																"Collection Month: 6 or 11; Collected from local fish market; Habitat: Demersal; Major food items: Small crustaceans"	2017/12/18	2017/12/18
PRA000055	SAA003533	ST008	75038			Ssc11-1	"Scatophagus argus"	"Spotted scat"	2008							Asia	Philippines	"Manila Bay"	14.240205	14.81182	120.500971	120.982587		Muscle	0.47	77.56	167.9	g	18	cm	"Fork length"																																"Collection Month: 6 or 11; Collected from local fish market; Habitat: Pelagic; Major food items: Worms, crustaceans, insects, and plant matter"	2017/12/18	2017/12/18
PRA000055	SAA003534	ST008	75038			Ssc11-2	"Scatophagus argus"	"Spotted scat"	2008							Asia	Philippines	"Manila Bay"	14.240205	14.81182	120.500971	120.982587		Muscle	0.4	76.1	104.8	g	15	cm	"Fork length"																																"Collection Month: 6 or 11; Collected from local fish market; Habitat: Pelagic; Major food items: Worms, crustaceans, insects, and plant matter"	2017/12/18	2017/12/18
PRA000055	SAA003535	ST008	75038			Ssc23-1	"Scatophagus argus"	"Spotted scat"	2008							Asia	Philippines	"Manila Bay"	14.240205	14.81182	120.500971	120.982587		Muscle	0.41	72.22	83.1	g	13.5	cm	"Fork length"																																"Collection Month: 6 or 11; Collected from local fish market; Habitat: Pelagic; Major food items: Worms, crustaceans, insects, and plant matter"	2017/12/18	2017/12/18
PRA000055	SAA003536	ST008	290113			Tw10	"Cheilinus trilobatus"	"Tripletail wrasse "	2008							Asia	Philippines	"Manila Bay"	14.240205	14.81182	120.500971	120.982587		Muscle	0.27	78.27	156	g	20	cm	"Fork length"																																"Collection Month: 6 or 11; Collected from local fish market; Habitat: Demersal; Major food items: Benthic invertebrate and crustaceans"	2017/12/18	2017/12/18
PRA000055	SAA003537	ST008	327779			Cg9-a	"Epinephelus corallicola "	"Coral grouper "	2008							Asia	Philippines	"Manila Bay"	14.240205	14.81182	120.500971	120.982587		Muscle	0.13	78.8	369	g	27	cm	"Fork length"	Adult																															"Collection Month: 6 or 11; Collected from local fish market; Habitat: Demersal; Major food items: Crustaceans and fishes"	2017/12/18	2017/12/18
PRA000055	SAA003538	ST008	327779			Cg12-1j	"Epinephelus corallicola  "	"Coral grouper "	2008							Asia	Philippines	"Manila Bay"	14.240205	14.81182	120.500971	120.982587		Muscle	0.73	77.73	40.4	g	13.5	cm	"Fork length"	Juvenile																															"Collection Month: 6 or 11; Collected from local fish market; Habitat: Demersal; Major food items: crustaceans and fishes"	2017/12/18	2017/12/18
PRA000055	SAA003539	ST008	327779			Cg12-2j	"Epinephelus corallicola  "	"Coral grouper "	2008							Asia	Philippines	"Manila Bay"	14.240205	14.81182	120.500971	120.982587		Muscle	0.24	79.41	43.4	g	14	cm	"Fork length"	Juvenile																															"Collection Month: 6 or 11; Collected from local fish market; Habitat: Demersal; Major food items: crustaceans and fishes"	2017/12/18	2017/12/18
PRA000055	SAA003540	ST008	327779			Cg12-3j	"Epinephelus corallicola  "	"Coral grouper "	2008							Asia	Philippines	"Manila Bay"	14.240205	14.81182	120.500971	120.982587		Muscle	0.21	78.49	58.4	g	15.5	cm	"Fork length"	Juvenile																															"Collection Month: 6 or 11; Collected from local fish market; Habitat: Demersal; Major food items: crustaceans and fishes"	2017/12/18	2017/12/18
PRA000064	SAA003141	ST003	9606			CP2015_001	"Homo sapiens"	Human	2010							Asia	China	Shanghai	31.22221944		121.4580611		Female	Urine									"25 y.o."																														"Sample collected in 2010-2012"	2018/4/6	2018/4/6
PRA000064	SAA003142	ST003	9606			CP2015_002	"Homo sapiens"	Human	2010							Asia	China	Shanghai	31.22221944		121.4580611		Male	Urine									"24 y.o."																														"Sample collected in 2010-2012"	2018/4/6	2018/4/6
PRA000064	SAA003143	ST003	9606			CP2015_003	"Homo sapiens"	Human	2010							Asia	China	Shanghai	31.22221944		121.4580611		Male	Urine									"24 y.o."																														"Sample collected in 2010-2012"	2018/4/6	2018/4/6
PRA000064	SAA003144	ST003	9606			CP2015_004	"Homo sapiens"	Human	2010							Asia	China	Shanghai	31.22221944		121.4580611		Female	Urine									"23 y.o."																														"Sample collected in 2010-2012"	2018/4/6	2018/4/6
PRA000064	SAA003145	ST003	9606			CP2015_005	"Homo sapiens"	Human	2010							Asia	China	Shanghai	31.22221944		121.4580611		Male	Urine									"23 y.o."																														"Sample collected in 2010-2012"	2018/4/6	2018/4/6
PRA000064	SAA003146	ST003	9606			CP2015_006	"Homo sapiens"	Human	2010							Asia	China	Shanghai	31.22221944		121.4580611		Male	Urine									"22 y.o."																														"Sample collected in 2010-2012"	2018/4/6	2018/4/6
PRA000064	SAA003147	ST003	9606			CP2015_007	"Homo sapiens"	Human	2010							Asia	China	Shanghai	31.22221944		121.4580611		Male	Urine									"24 y.o."																														"Sample collected in 2010-2012"	2018/4/6	2018/4/6
PRA000064	SAA003148	ST003	9606			CP2015_008	"Homo sapiens"	Human	2010							Asia	China	Shanghai	31.22221944		121.4580611		Male	Urine									"23 y.o."																														"Sample collected in 2010-2012"	2018/4/6	2018/4/6
PRA000064	SAA003149	ST003	9606			CP2015_009	"Homo sapiens"	Human	2010							Asia	China	Shanghai	31.22221944		121.4580611		Male	Urine									"24 y.o."																														"Sample collected in 2010-2012"	2018/4/6	2018/4/6
PRA000064	SAA003150	ST003	9606			CP2015_010	"Homo sapiens"	Human	2010							Asia	China	Shanghai	31.22221944		121.4580611		Male	Urine									"23 y.o."																														"Sample collected in 2010-2012"	2018/4/6	2018/4/6
PRA000064	SAA003151	ST003	9606			CP2015_011	"Homo sapiens"	Human	2010							Asia	China	Shanghai	31.22221944		121.4580611		Male	Urine									"24 y.o."																														"Sample collected in 2010-2012"	2018/4/6	2018/4/6
PRA000064	SAA003152	ST003	9606			CP2015_012	"Homo sapiens"	Human	2010							Asia	China	Shanghai	31.22221944		121.4580611		Male	Urine									"23 y.o."																														"Sample collected in 2010-2012"	2018/4/6	2018/4/6
PRA000064	SAA003153	ST003	9606			CP2015_013	"Homo sapiens"	Human	2010							Asia	China	Shanghai	31.22221944		121.4580611		Female	Urine									"56 y.o."																														"Sample collected in 2010-2012"	2018/4/6	2018/4/6
PRA000064	SAA003154	ST003	9606			CP2015_014	"Homo sapiens"	Human	2010							Asia	China	Shanghai	31.22221944		121.4580611		Female	Urine									"22 y.o."																														"Sample collected in 2010-2012"	2018/4/6	2018/4/6
PRA000064	SAA003155	ST003	9606			CP2015_015	"Homo sapiens"	Human	2010							Asia	China	Shanghai	31.22221944		121.4580611		Female	Urine									"23 y.o."																														"Sample collected in 2010-2012"	2018/4/6	2018/4/6
PRA000064	SAA003156	ST003	9606			CP2015_016	"Homo sapiens"	Human	2010							Asia	China	Shanghai	31.22221944		121.4580611		Female	Urine									"26 y.o."																														"Sample collected in 2010-2012"	2018/4/6	2018/4/6
PRA000064	SAA003157	ST003	9606			CP2015_017	"Homo sapiens"	Human	2010							Asia	China	Guangzhou	23.128994		113.25325		Female	Urine									"34 y.o."																														"Sample collected in 2010-2012"	2018/4/6	2018/4/6
PRA000064	SAA003158	ST003	9606			CP2015_018	"Homo sapiens"	Human	2010							Asia	China	Guangzhou	23.128994		113.25325		Female	Urine									"4 y.o."																														"Sample collected in 2010-2012"	2018/4/6	2018/4/6
PRA000064	SAA003159	ST003	9606			CP2015_019	"Homo sapiens"	Human	2010							Asia	China	Guangzhou	23.128994		113.25325		Male	Urine									"39 y.o."																														"Sample collected in 2010-2012"	2018/4/6	2018/4/6
PRA000064	SAA003160	ST003	9606			CP2015_020	"Homo sapiens"	Human	2010							Asia	China	Guangzhou	23.128994		113.25325		Male	Urine									"14 y.o."																														"Sample collected in 2010-2012"	2018/4/6	2018/4/6
PRA000064	SAA003161	ST003	9606			CP2015_021	"Homo sapiens"	Human	2010							Asia	China	Guangzhou	23.128994		113.25325		Female	Urine									"29 y.o."																														"Sample collected in 2010-2012"	2018/4/6	2018/4/6
PRA000064	SAA003162	ST003	9606			CP2015_022	"Homo sapiens"	Human	2010							Asia	China	Guangzhou	23.128994		113.25325		Female	Urine									"4 y.o."																														"Sample collected in 2010-2012"	2018/4/6	2018/4/6
PRA000064	SAA003163	ST003	9606			CP2015_023	"Homo sapiens"	Human	2010							Asia	China	Guangzhou	23.128994		113.25325		Female	Urine									"23 y.o."																														"Sample collected in 2010-2012"	2018/4/6	2018/4/6
PRA000064	SAA003164	ST003	9606			CP2015_024	"Homo sapiens"	Human	2010							Asia	China	Guangzhou	23.128994		113.25325		Female	Urine									"12 y.o."																														"Sample collected in 2010-2012"	2018/4/6	2018/4/6
PRA000064	SAA003165	ST003	9606			CP2015_025	"Homo sapiens"	Human	2010							Asia	China	Guangzhou	23.128994		113.25325		Female	Urine									"42 y.o."																														"Sample collected in 2010-2012"	2018/4/6	2018/4/6
PRA000064	SAA003166	ST003	9606			CP2015_026	"Homo sapiens"	Human	2010							Asia	China	Guangzhou	23.128994		113.25325		Male	Urine									"2 y.o."																														"Sample collected in 2010-2012"	2018/4/6	2018/4/6
PRA000064	SAA003167	ST003	9606			CP2015_027	"Homo sapiens"	Human	2010							Asia	China	Guangzhou	23.128994		113.25325		Female	Urine									"36 y.o."																														"Sample collected in 2010-2012"	2018/4/6	2018/4/6
PRA000064	SAA003168	ST003	9606			CP2015_028	"Homo sapiens"	Human	2010							Asia	China	Guangzhou	23.128994		113.25325		Female	Urine									"36 y.o."																														"Sample collected in 2010-2012"	2018/4/6	2018/4/6
PRA000064	SAA003169	ST003	9606			CP2015_029	"Homo sapiens"	Human	2010							Asia	China	Guangzhou	23.128994		113.25325		Female	Urine									"42 y.o."																														"Sample collected in 2010-2012"	2018/4/6	2018/4/6
PRA000064	SAA003170	ST003	9606			CP2015_030	"Homo sapiens"	Human	2010							Asia	China	Guangzhou	23.128994		113.25325		Female	Urine									"28 y.o."																														"Sample collected in 2010-2012"	2018/4/6	2018/4/6
PRA000064	SAA003171	ST003	9606			CP2015_031	"Homo sapiens"	Human	2010							Asia	China	Guangzhou	23.128994		113.25325		Male	Urine									"30 y.o."																														"Sample collected in 2010-2012"	2018/4/6	2018/4/6
PRA000064	SAA003172	ST003	9606			CP2015_032	"Homo sapiens"	Human	2010							Asia	China	Guangzhou	23.128994		113.25325		Male	Urine									"28 y.o."																														"Sample collected in 2010-2012"	2018/4/6	2018/4/6
PRA000064	SAA003173	ST003	9606			CP2015_033	"Homo sapiens"	Human	2010							Asia	China	Qiqihar	47.34088056		123.96045		Female	Urine									"54 y.o."																														"Sample collected in 2010-2012"	2018/4/6	2018/4/6
PRA000064	SAA003174	ST003	9606			CP2015_034	"Homo sapiens"	Human	2010							Asia	China	Qiqihar	47.34088056		123.96045		Female	Urine									"37 y.o."																														"Sample collected in 2010-2012"	2018/4/6	2018/4/6
PRA000064	SAA003175	ST003	9606			CP2015_035	"Homo sapiens"	Human	2010							Asia	China	Qiqihar	47.34088056		123.96045		Female	Urine									"44 y.o."																														"Sample collected in 2010-2012"	2018/4/6	2018/4/6
PRA000064	SAA003176	ST003	9606			CP2015_036	"Homo sapiens"	Human	2010							Asia	China	Qiqihar	47.34088056		123.96045		Female	Urine									"29 y.o."																														"Sample collected in 2010-2012"	2018/4/6	2018/4/6
PRA000064	SAA003177	ST003	9606			CP2015_037	"Homo sapiens"	Human	2010							Asia	China	Qiqihar	47.34088056		123.96045		Male	Urine									"67 y.o."																														"Sample collected in 2010-2012"	2018/4/6	2018/4/6
PRA000064	SAA003178	ST003	9606			CP2015_038	"Homo sapiens"	Human	2010							Asia	China	Qiqihar	47.34088056		123.96045		Male	Urine									"66 y.o."																														"Sample collected in 2010-2012"	2018/4/6	2018/4/6
PRA000064	SAA003179	ST003	9606			CP2015_039	"Homo sapiens"	Human	2010							Asia	China	Qiqihar	47.34088056		123.96045		Male	Urine									"53 y.o."																														"Sample collected in 2010-2012"	2018/4/6	2018/4/6
PRA000064	SAA003180	ST003	9606			CP2015_040	"Homo sapiens"	Human	2010							Asia	China	Qiqihar	47.34088056		123.96045		Female	Urine									"60 y.o."																														"Sample collected in 2010-2012"	2018/4/6	2018/4/6
PRA000064	SAA003181	ST003	9606			CP2015_041	"Homo sapiens"	Human	2010							Asia	China	Qiqihar	47.34088056		123.96045		Female	Urine									"49 y.o."																														"Sample collected in 2010-2012"	2018/4/6	2018/4/6
PRA000064	SAA003182	ST003	9606			CP2015_042	"Homo sapiens"	Human	2010							Asia	China	Qiqihar	47.34088056		123.96045		Male	Urine									"39 y.o."																														"Sample collected in 2010-2012"	2018/4/6	2018/4/6
PRA000064	SAA003183	ST003	9606			CP2015_043	"Homo sapiens"	Human	2010							Asia	China	Qiqihar	47.34088056		123.96045		Male	Urine									"19 y.o."																														"Sample collected in 2010-2012"	2018/4/6	2018/4/6
PRA000064	SAA003184	ST003	9606			CP2015_044	"Homo sapiens"	Human	2010							Asia	China	Qiqihar	47.34088056		123.96045			Urine																																							"Sample collected in 2010-2012"	2018/4/6	2018/4/6
PRA000064	SAA003185	ST003	9606			CP2015_045	"Homo sapiens"	Human	2010							Asia	China	Qiqihar	47.34088056		123.96045		Female	Urine									"35 y.o."																														"Sample collected in 2010-2012"	2018/4/6	2018/4/6
PRA000064	SAA003186	ST003	9606			CP2015_046	"Homo sapiens"	Human	2010							Asia	China	Qiqihar	47.34088056		123.96045		Female	Urine									"44 y.o."																														"Sample collected in 2010-2012"	2018/4/6	2018/4/6
PRA000064	SAA003187	ST003	9606			CP2015_047	"Homo sapiens"	Human	2010							Asia	China	Qiqihar	47.34088056		123.96045		Female	Urine									"55 y.o."																														"Sample collected in 2010-2012"	2018/4/6	2018/4/6
PRA000064	SAA003188	ST003	9606			CP2015_048	"Homo sapiens"	Human	2010							Asia	India	"Mettupalayam or Chennai"	11.282004	13.245375	76.92109	80.334975		Urine																																							"Sample collected in 2010-2012"	2018/4/6	2018/4/6
PRA000064	SAA003189	ST003	9606			CP2015_049	"Homo sapiens"	Human	2010							Asia	India	"Mettupalayam or Chennai"	11.282004	13.245375	76.92109	80.334975		Urine																																							"Sample collected in 2010-2012"	2018/4/6	2018/4/6
PRA000064	SAA003190	ST003	9606			CP2015_050	"Homo sapiens"	Human	2010							Asia	India	"Mettupalayam or Chennai"	11.282004	13.245375	76.92109	80.334975		Urine																																							"Sample collected in 2010-2012"	2018/4/6	2018/4/6
PRA000064	SAA003191	ST003	9606			CP2015_051	"Homo sapiens"	Human	2010							Asia	India	"Mettupalayam or Chennai"	11.282004	13.245375	76.92109	80.334975		Urine																																							"Sample collected in 2010-2012"	2018/4/6	2018/4/6
PRA000064	SAA003192	ST003	9606			CP2015_052	"Homo sapiens"	Human	2010							Asia	India	"Mettupalayam or Chennai"	11.282004	13.245375	76.92109	80.334975		Urine																																							"Sample collected in 2010-2012"	2018/4/6	2018/4/6
PRA000064	SAA003193	ST003	9606			CP2015_053	"Homo sapiens"	Human	2010							Asia	India	"Mettupalayam or Chennai"	11.282004	13.245375	76.92109	80.334975		Urine																																							"Sample collected in 2010-2012"	2018/4/6	2018/4/6
PRA000064	SAA003194	ST003	9606			CP2015_054	"Homo sapiens"	Human	2010							Asia	India	"Mettupalayam or Chennai"	11.282004	13.245375	76.92109	80.334975		Urine																																							"Sample collected in 2010-2012"	2018/4/6	2018/4/6
PRA000064	SAA003195	ST003	9606			CP2015_055	"Homo sapiens"	Human	2010							Asia	India	"Mettupalayam or Chennai"	11.282004	13.245375	76.92109	80.334975		Urine																																							"Sample collected in 2010-2012"	2018/4/6	2018/4/6
PRA000064	SAA003196	ST003	9606			CP2015_056	"Homo sapiens"	Human	2010							Asia	India	"Mettupalayam or Chennai"	11.282004	13.245375	76.92109	80.334975		Urine																																							"Sample collected in 2010-2012"	2018/4/6	2018/4/6
PRA000064	SAA003197	ST003	9606			CP2015_057	"Homo sapiens"	Human	2010							Asia	India	"Mettupalayam or Chennai"	11.282004	13.245375	76.92109	80.334975		Urine																																							"Sample collected in 2010-2012"	2018/4/6	2018/4/6
PRA000064	SAA003198	ST003	9606			CP2015_058	"Homo sapiens"	Human	2010							Asia	India	"Mettupalayam or Chennai"	11.282004	13.245375	76.92109	80.334975		Urine																																							"Sample collected in 2010-2012"	2018/4/6	2018/4/6
PRA000064	SAA003199	ST003	9606			CP2015_059	"Homo sapiens"	Human	2010							Asia	India	"Mettupalayam or Chennai"	11.282004	13.245375	76.92109	80.334975		Urine																																							"Sample collected in 2010-2012"	2018/4/6	2018/4/6
PRA000064	SAA003200	ST003	9606			CP2015_060	"Homo sapiens"	Human	2010							Asia	India	"Mettupalayam or Chennai"	11.282004	13.245375	76.92109	80.334975		Urine																																							"Sample collected in 2010-2012"	2018/4/6	2018/4/6
PRA000064	SAA003201	ST003	9606			CP2015_061	"Homo sapiens"	Human	2010							Asia	India	"Mettupalayam or Chennai"	11.282004	13.245375	76.92109	80.334975		Urine																																							"Sample collected in 2010-2012"	2018/4/6	2018/4/6
PRA000064	SAA003202	ST003	9606			CP2015_062	"Homo sapiens"	Human	2010							Asia	India	"Mettupalayam or Chennai"	11.282004	13.245375	76.92109	80.334975		Urine																																							"Sample collected in 2010-2012"	2018/4/6	2018/4/6
PRA000064	SAA003203	ST003	9606			CP2015_063	"Homo sapiens"	Human	2010							Asia	India	"Mettupalayam or Chennai"	11.282004	13.245375	76.92109	80.334975		Urine																																							"Sample collected in 2010-2012"	2018/4/6	2018/4/6
PRA000064	SAA003204	ST003	9606			CP2015_064	"Homo sapiens"	Human	2010							Asia	India	"Mettupalayam or Chennai"	11.282004	13.245375	76.92109	80.334975		Urine																																							"Sample collected in 2010-2012"	2018/4/6	2018/4/6
PRA000064	SAA003205	ST003	9606			CP2015_065	"Homo sapiens"	Human	2010							Asia	India	"Mettupalayam or Chennai"	11.282004	13.245375	76.92109	80.334975		Urine																																							"Sample collected in 2010-2012"	2018/4/6	2018/4/6
PRA000064	SAA003206	ST003	9606			CP2015_066	"Homo sapiens"	Human	2010							Asia	India	"Mettupalayam or Chennai"	11.282004	13.245375	76.92109	80.334975		Urine																																							"Sample collected in 2010-2012"	2018/4/6	2018/4/6
PRA000064	SAA003207	ST003	9606			CP2015_067	"Homo sapiens"	Human	2010							Asia	India	"Mettupalayam or Chennai"	11.282004	13.245375	76.92109	80.334975		Urine																																							"Sample collected in 2010-2012"	2018/4/6	2018/4/6
PRA000064	SAA003208	ST003	9606			CP2015_068	"Homo sapiens"	Human	2010							Asia	India	"Mettupalayam or Chennai"	11.282004	13.245375	76.92109	80.334975		Urine																																							"Sample collected in 2010-2012"	2018/4/6	2018/4/6
PRA000064	SAA003209	ST003	9606			CP2015_069	"Homo sapiens"	Human	2010							Asia	India	"Mettupalayam or Chennai"	11.282004	13.245375	76.92109	80.334975		Urine																																							"Sample collected in 2010-2012"	2018/4/6	2018/4/6
PRA000064	SAA003210	ST003	9606			CP2015_070	"Homo sapiens"	Human	2010							Asia	India	"Mettupalayam or Chennai"	11.282004	13.245375	76.92109	80.334975		Urine																																							"Sample collected in 2010-2012"	2018/4/6	2018/4/6
PRA000064	SAA003211	ST003	9606			CP2015_071	"Homo sapiens"	Human	2010							Asia	India	"Mettupalayam or Chennai"	11.282004	13.245375	76.92109	80.334975		Urine																																							"Sample collected in 2010-2012"	2018/4/6	2018/4/6
PRA000064	SAA003212	ST003	9606			CP2015_072	"Homo sapiens"	Human	2010							Asia	India	"Mettupalayam or Chennai"	11.282004	13.245375	76.92109	80.334975		Urine																																							"Sample collected in 2010-2012"	2018/4/6	2018/4/6
PRA000064	SAA003213	ST003	9606			CP2015_073	"Homo sapiens"	Human	2010							Asia	India	"Mettupalayam or Chennai"	11.282004	13.245375	76.92109	80.334975		Urine																																							"Sample collected in 2010-2012"	2018/4/6	2018/4/6
PRA000064	SAA003214	ST003	9606			CP2015_074	"Homo sapiens"	Human	2010							Asia	India	"Mettupalayam or Chennai"	11.282004	13.245375	76.92109	80.334975		Urine																																							"Sample collected in 2010-2012"	2018/4/6	2018/4/6
PRA000064	SAA003215	ST003	9606			CP2015_075	"Homo sapiens"	Human	2010							Asia	India	"Mettupalayam or Chennai"	11.282004	13.245375	76.92109	80.334975		Urine																																							"Sample collected in 2010-2012"	2018/4/6	2018/4/6
PRA000064	SAA003216	ST003	9606			CP2015_076	"Homo sapiens"	Human	2010							Asia	India	"Mettupalayam or Chennai"	11.282004	13.245375	76.92109	80.334975	Female	Urine									"24 y.o."																														"Sample collected in 2010-2012"	2018/4/6	2018/4/6
PRA000064	SAA003217	ST003	9606			CP2015_077	"Homo sapiens"	Human	2010							Asia	India	"Mettupalayam or Chennai"	11.282004	13.245375	76.92109	80.334975	Male	Urine									"50 y.o."																														"Sample collected in 2010-2012"	2018/4/6	2018/4/6
PRA000064	SAA003218	ST003	9606			CP2015_078	"Homo sapiens"	Human	2010							Asia	India	"Mettupalayam or Chennai"	11.282004	13.245375	76.92109	80.334975	Female	Urine									"75 y.o."																														"Sample collected in 2010-2012"	2018/4/6	2018/4/6
PRA000064	SAA003219	ST003	9606			CP2015_079	"Homo sapiens"	Human	2010							Asia	India	"Mettupalayam or Chennai"	11.282004	13.245375	76.92109	80.334975	Female	Urine									"32 y.o."																														"Sample collected in 2010-2012"	2018/4/6	2018/4/6
PRA000064	SAA003220	ST003	9606			CP2015_080	"Homo sapiens"	Human	2010							Asia	India	"Mettupalayam or Chennai"	11.282004	13.245375	76.92109	80.334975		Urine																																							"Sample collected in 2010-2012"	2018/4/6	2018/4/6
PRA000064	SAA003221	ST003	9606			CP2015_081	"Homo sapiens"	Human	2010							Asia	India	"Mettupalayam or Chennai"	11.282004	13.245375	76.92109	80.334975	Male	Urine									"35 y.o."																														"Sample collected in 2010-2012"	2018/4/6	2018/4/6
PRA000064	SAA003222	ST003	9606			CP2015_082	"Homo sapiens"	Human	2010							Asia	India	"Mettupalayam or Chennai"	11.282004	13.245375	76.92109	80.334975	Female	Urine									"41 y.o."																														"Sample collected in 2010-2012"	2018/4/6	2018/4/6
PRA000064	SAA003223	ST003	9606			CP2015_083	"Homo sapiens"	Human	2010							Asia	India	"Mettupalayam or Chennai"	11.282004	13.245375	76.92109	80.334975	Female	Urine									"35 y.o."																														"Sample collected in 2010-2012"	2018/4/6	2018/4/6
PRA000064	SAA003224	ST003	9606			CP2015_084	"Homo sapiens"	Human	2010							Asia	India	"Mettupalayam or Chennai"	11.282004	13.245375	76.92109	80.334975	Female	Urine									"30 y.o."																														"Sample collected in 2010-2012"	2018/4/6	2018/4/6
PRA000064	SAA003225	ST003	9606			CP2015_085	"Homo sapiens"	Human	2010							Asia	India	"Mettupalayam or Chennai"	11.282004	13.245375	76.92109	80.334975	Male	Urine									"69 y.o."																														"Sample collected in 2010-2012"	2018/4/6	2018/4/6
PRA000064	SAA003226	ST003	9606			CP2015_086	"Homo sapiens"	Human	2010							Asia	India	"Mettupalayam or Chennai"	11.282004	13.245375	76.92109	80.334975	Female	Urine									"59 y.o."																														"Sample collected in 2010-2012"	2018/4/6	2018/4/6
PRA000064	SAA003227	ST003	9606			CP2015_087	"Homo sapiens"	Human	2010							Asia	India	"Mettupalayam or Chennai"	11.282004	13.245375	76.92109	80.334975	Female	Urine									"60 y.o."																														"Sample collected in 2010-2012"	2018/4/6	2018/4/6
PRA000064	SAA003228	ST003	9606			CP2015_088	"Homo sapiens"	Human	2010							Asia	India	"Mettupalayam or Chennai"	11.282004	13.245375	76.92109	80.334975	Female	Urine									"44 y.o."																														"Sample collected in 2010-2012"	2018/4/6	2018/4/6
PRA000064	SAA003229	ST003	9606			CP2015_089	"Homo sapiens"	Human	2010							Asia	Japan	"Matsuyama or Kumamoto"	32.66027778	34.07388889	130.5716667	132.9266667	Male	Urine									"46 y.o."																														"Sample collected in 2010-2012"	2018/4/6	2018/4/6
PRA000064	SAA003230	ST003	9606			CP2015_090	"Homo sapiens"	Human	2010							Asia	Japan	"Matsuyama or Kumamoto"	32.66027778	34.07388889	130.5716667	132.9266667	Male	Urine									"39 y.o."																														"Sample collected in 2010-2012"	2018/4/6	2018/4/6
PRA000064	SAA003231	ST003	9606			CP2015_091	"Homo sapiens"	Human	2010							Asia	Japan	"Matsuyama or Kumamoto"	32.66027778	34.07388889	130.5716667	132.9266667	Male	Urine									"50 y.o."																														"Sample collected in 2010-2012"	2018/4/6	2018/4/6
PRA000064	SAA003232	ST003	9606			CP2015_092	"Homo sapiens"	Human	2010							Asia	Japan	"Matsuyama or Kumamoto"	32.66027778	34.07388889	130.5716667	132.9266667	Male	Urine									"47 y.o."																														"Sample collected in 2010-2012"	2018/4/6	2018/4/6
PRA000064	SAA003233	ST003	9606			CP2015_093	"Homo sapiens"	Human	2010							Asia	Japan	"Matsuyama or Kumamoto"	32.66027778	34.07388889	130.5716667	132.9266667	Male	Urine									"36 y.o."																														"Sample collected in 2010-2012"	2018/4/6	2018/4/6
PRA000064	SAA003234	ST003	9606			CP2015_094	"Homo sapiens"	Human	2010							Asia	Japan	"Matsuyama or Kumamoto"	32.66027778	34.07388889	130.5716667	132.9266667	Male	Urine									"41 y.o."																														"Sample collected in 2010-2012"	2018/4/6	2018/4/6
PRA000064	SAA003235	ST003	9606			CP2015_095	"Homo sapiens"	Human	2010							Asia	Japan	"Matsuyama or Kumamoto"	32.66027778	34.07388889	130.5716667	132.9266667	Male	Urine									"32 y.o."																														"Sample collected in 2010-2012"	2018/4/6	2018/4/6
PRA000064	SAA003236	ST003	9606			CP2015_096	"Homo sapiens"	Human	2010							Asia	Japan	"Matsuyama or Kumamoto"	32.66027778	34.07388889	130.5716667	132.9266667	Male	Urine									"36 y.o."																														"Sample collected in 2010-2012"	2018/4/6	2018/4/6
PRA000064	SAA003237	ST003	9606			CP2015_097	"Homo sapiens"	Human	2010							Asia	Japan	"Matsuyama or Kumamoto"	32.66027778	34.07388889	130.5716667	132.9266667	Male	Urine									"22 y.o."																														"Sample collected in 2010-2012"	2018/4/6	2018/4/6
PRA000064	SAA003238	ST003	9606			CP2015_098	"Homo sapiens"	Human	2010							Asia	Japan	"Matsuyama or Kumamoto"	32.66027778	34.07388889	130.5716667	132.9266667	Male	Urine									"29 y.o."																														"Sample collected in 2010-2012"	2018/4/6	2018/4/6
PRA000064	SAA003239	ST003	9606			CP2015_099	"Homo sapiens"	Human	2010							Asia	Japan	"Matsuyama or Kumamoto"	32.66027778	34.07388889	130.5716667	132.9266667	Male	Urine									"32 y.o."																														"Sample collected in 2010-2012"	2018/4/6	2018/4/6
PRA000064	SAA003240	ST003	9606			CP2015_100	"Homo sapiens"	Human	2010							Asia	Japan	"Matsuyama or Kumamoto"	32.66027778	34.07388889	130.5716667	132.9266667	Male	Urine									"59 y.o."																														"Sample collected in 2010-2012"	2018/4/6	2018/4/6
PRA000064	SAA003241	ST003	9606			CP2015_101	"Homo sapiens"	Human	2010							Asia	Japan	"Matsuyama or Kumamoto"	32.66027778	34.07388889	130.5716667	132.9266667	Male	Urine									"25 y.o."																														"Sample collected in 2010-2012"	2018/4/6	2018/4/6
PRA000064	SAA003242	ST003	9606			CP2015_102	"Homo sapiens"	Human	2010							Asia	Japan	"Matsuyama or Kumamoto"	32.66027778	34.07388889	130.5716667	132.9266667	Male	Urine									"31 y.o."																														"Sample collected in 2010-2012"	2018/4/6	2018/4/6
PRA000064	SAA003243	ST003	9606			CP2015_103	"Homo sapiens"	Human	2010							Asia	Japan	"Matsuyama or Kumamoto"	32.66027778	34.07388889	130.5716667	132.9266667	Male	Urine									"35 y.o."																														"Sample collected in 2010-2012"	2018/4/6	2018/4/6
PRA000064	SAA003244	ST003	9606			CP2015_104	"Homo sapiens"	Human	2010							Asia	Japan	"Matsuyama or Kumamoto"	32.66027778	34.07388889	130.5716667	132.9266667	Male	Urine									"39 y.o."																														"Sample collected in 2010-2012"	2018/4/6	2018/4/6
PRA000064	SAA003245	ST003	9606			CP2015_105	"Homo sapiens"	Human	2010							Asia	Japan	"Matsuyama or Kumamoto"	32.66027778	34.07388889	130.5716667	132.9266667	Female	Urine									"32 y.o."																														"Sample collected in 2010-2012"	2018/4/6	2018/4/6
PRA000064	SAA003246	ST003	9606			CP2015_106	"Homo sapiens"	Human	2010							Asia	Japan	"Matsuyama or Kumamoto"	32.66027778	34.07388889	130.5716667	132.9266667	Female	Urine									"36 y.o."																														"Sample collected in 2010-2012"	2018/4/6	2018/4/6
PRA000064	SAA003247	ST003	9606			CP2015_107	"Homo sapiens"	Human	2010							Asia	Japan	"Matsuyama or Kumamoto"	32.66027778	34.07388889	130.5716667	132.9266667	Female	Urine									"24 y.o."																														"Sample collected in 2010-2012"	2018/4/6	2018/4/6
PRA000064	SAA003248	ST003	9606			CP2015_108	"Homo sapiens"	Human	2010							Asia	Japan	"Matsuyama or Kumamoto"	32.66027778	34.07388889	130.5716667	132.9266667	Female	Urine									"23 y.o."																														"Sample collected in 2010-2012"	2018/4/6	2018/4/6
PRA000064	SAA003249	ST003	9606			CP2015_109	"Homo sapiens"	Human	2010							Asia	Japan	"Matsuyama or Kumamoto"	32.66027778	34.07388889	130.5716667	132.9266667	Female	Urine									"27 y.o."																														"Sample collected in 2010-2012"	2018/4/6	2018/4/6
PRA000064	SAA003250	ST003	9606			CP2015_110	"Homo sapiens"	Human	2010							Asia	Japan	"Matsuyama or Kumamoto"	32.66027778	34.07388889	130.5716667	132.9266667	Male	Urine									"33 y.o."																														"Sample collected in 2010-2012"	2018/4/6	2018/4/6
PRA000064	SAA003251	ST003	9606			CP2015_111	"Homo sapiens"	Human	2010							Asia	Japan	"Matsuyama or Kumamoto"	32.66027778	34.07388889	130.5716667	132.9266667	Male	Urine									"36 y.o."																														"Sample collected in 2010-2012"	2018/4/6	2018/4/6
PRA000064	SAA003252	ST003	9606			CP2015_112	"Homo sapiens"	Human	2010							Asia	Japan	"Matsuyama or Kumamoto"	32.66027778	34.07388889	130.5716667	132.9266667	Male	Urine									"34 y.o."																														"Sample collected in 2010-2012"	2018/4/6	2018/4/6
PRA000064	SAA003253	ST003	9606			CP2015_113	"Homo sapiens"	Human	2010							Asia	Japan	"Matsuyama or Kumamoto"	32.66027778	34.07388889	130.5716667	132.9266667	Female	Urine									"22 y.o."																														"Sample collected in 2010-2012"	2018/4/6	2018/4/6
PRA000064	SAA003254	ST003	9606			CP2015_114	"Homo sapiens"	Human	2010							Asia	Japan	"Matsuyama or Kumamoto"	32.66027778	34.07388889	130.5716667	132.9266667	Female	Urine									"23 y.o."																														"Sample collected in 2010-2012"	2018/4/6	2018/4/6
PRA000064	SAA003255	ST003	9606			CP2015_115	"Homo sapiens"	Human	2010							Asia	Japan	"Matsuyama or Kumamoto"	32.66027778	34.07388889	130.5716667	132.9266667	Male	Urine									"22 y.o."																														"Sample collected in 2010-2012"	2018/4/6	2018/4/6
PRA000064	SAA003256	ST003	9606			CP2015_116	"Homo sapiens"	Human	2010							Asia	Japan	"Matsuyama or Kumamoto"	32.66027778	34.07388889	130.5716667	132.9266667	Male	Urine									"39 y.o."																														"Sample collected in 2010-2012"	2018/4/6	2018/4/6
PRA000064	SAA003257	ST003	9606			CP2015_117	"Homo sapiens"	Human	2010							Asia	Japan	"Matsuyama or Kumamoto"	32.66027778	34.07388889	130.5716667	132.9266667	Male	Urine									"24 y.o."																														"Sample collected in 2010-2012"	2018/4/6	2018/4/6
PRA000064	SAA003258	ST003	9606			CP2015_118	"Homo sapiens"	Human	2010							Asia	Japan	"Matsuyama or Kumamoto"	32.66027778	34.07388889	130.5716667	132.9266667	Male	Urine									"21 y.o."																														"Sample collected in 2010-2012"	2018/4/6	2018/4/6
PRA000064	SAA003259	ST003	9606			CP2015_119	"Homo sapiens"	Human	2010							Asia	Japan	"Matsuyama or Kumamoto"	32.66027778	34.07388889	130.5716667	132.9266667	Male	Urine									"41 y.o."																														"Sample collected in 2010-2012"	2018/4/6	2018/4/6
PRA000064	SAA003260	ST003	9606			CP2015_120	"Homo sapiens"	Human	2010							Asia	Japan	"Matsuyama or Kumamoto"	32.66027778	34.07388889	130.5716667	132.9266667	Male	Urine									"23 y.o."																														"Sample collected in 2010-2012"	2018/4/6	2018/4/6
PRA000064	SAA003261	ST003	9606			CP2015_121	"Homo sapiens"	Human	2010							Asia	Japan	"Matsuyama or Kumamoto"	32.66027778	34.07388889	130.5716667	132.9266667	Male	Urine									"2 y.o."																														"Sample collected in 2010-2012"	2018/4/6	2018/4/6
PRA000064	SAA003262	ST003	9606			CP2015_122	"Homo sapiens"	Human	2010							Asia	Japan	"Matsuyama or Kumamoto"	32.66027778	34.07388889	130.5716667	132.9266667	Female	Urine									"34 y.o."																														"Sample collected in 2010-2012"	2018/4/6	2018/4/6
PRA000064	SAA003263	ST003	9606			CP2015_123	"Homo sapiens"	Human	2010							Asia	Japan	"Matsuyama or Kumamoto"	32.66027778	34.07388889	130.5716667	132.9266667	Male	Urine									"22 y.o."																														"Sample collected in 2010-2012"	2018/4/6	2018/4/6
PRA000064	SAA003264	ST003	9606			CP2015_124	"Homo sapiens"	Human	2010							Asia	Japan	"Matsuyama or Kumamoto"	32.66027778	34.07388889	130.5716667	132.9266667	Male	Urine									"23 y.o."																														"Sample collected in 2010-2012"	2018/4/6	2018/4/6
PRA000064	SAA003265	ST003	9606			CP2015_125	"Homo sapiens"	Human	2006							Asia	Korea	"Seoul or Busan or Yeosu"	34.409941	37.699269	126.766254	129.306678		Urine																																							"Sample collected in 2006-2007"	2018/4/6	2018/4/6
PRA000064	SAA003266	ST003	9606			CP2015_126	"Homo sapiens"	Human	2006							Asia	Korea	"Seoul or Busan or Yeosu"	34.409941	37.699269	126.766254	129.306678		Urine																																							"Sample collected in 2006-2007"	2018/4/6	2018/4/6
PRA000064	SAA003267	ST003	9606			CP2015_127	"Homo sapiens"	Human	2006							Asia	Korea	"Seoul or Busan or Yeosu"	34.409941	37.699269	126.766254	129.306678		Urine																																							"Sample collected in 2006-2007"	2018/4/6	2018/4/6
PRA000064	SAA003268	ST003	9606			CP2015_128	"Homo sapiens"	Human	2006							Asia	Korea	"Seoul or Busan or Yeosu"	34.409941	37.699269	126.766254	129.306678		Urine																																							"Sample collected in 2006-2007"	2018/4/6	2018/4/6
PRA000064	SAA003269	ST003	9606			CP2015_129	"Homo sapiens"	Human	2006							Asia	Korea	"Seoul or Busan or Yeosu"	34.409941	37.699269	126.766254	129.306678		Urine																																							"Sample collected in 2006-2007"	2018/4/6	2018/4/6
PRA000064	SAA003270	ST003	9606			CP2015_130	"Homo sapiens"	Human	2006							Asia	Korea	"Seoul or Busan or Yeosu"	34.409941	37.699269	126.766254	129.306678		Urine																																							"Sample collected in 2006-2007"	2018/4/6	2018/4/6
PRA000064	SAA003271	ST003	9606			CP2015_131	"Homo sapiens"	Human	2006							Asia	Korea	"Seoul or Busan or Yeosu"	34.409941	37.699269	126.766254	129.306678		Urine																																							"Sample collected in 2006-2007"	2018/4/6	2018/4/6
PRA000064	SAA003272	ST003	9606			CP2015_132	"Homo sapiens"	Human	2006							Asia	Korea	"Seoul or Busan or Yeosu"	34.409941	37.699269	126.766254	129.306678		Urine																																							"Sample collected in 2006-2007"	2018/4/6	2018/4/6
PRA000064	SAA003273	ST003	9606			CP2015_133	"Homo sapiens"	Human	2006							Asia	Korea	"Seoul or Busan or Yeosu"	34.409941	37.699269	126.766254	129.306678		Urine																																							"Sample collected in 2006-2007"	2018/4/6	2018/4/6
PRA000064	SAA003274	ST003	9606			CP2015_134	"Homo sapiens"	Human	2006							Asia	Korea	"Seoul or Busan or Yeosu"	34.409941	37.699269	126.766254	129.306678		Urine																																							"Sample collected in 2006-2007"	2018/4/6	2018/4/6
PRA000064	SAA003275	ST003	9606			CP2015_135	"Homo sapiens"	Human	2006							Asia	Korea	"Seoul or Busan or Yeosu"	34.409941	37.699269	126.766254	129.306678		Urine																																							"Sample collected in 2006-2007"	2018/4/6	2018/4/6
PRA000064	SAA003276	ST003	9606			CP2015_136	"Homo sapiens"	Human	2006							Asia	Korea	"Seoul or Busan or Yeosu"	34.409941	37.699269	126.766254	129.306678		Urine																																							"Sample collected in 2006-2007"	2018/4/6	2018/4/6
PRA000064	SAA003277	ST003	9606			CP2015_137	"Homo sapiens"	Human	2006							Asia	Korea	"Seoul or Busan or Yeosu"	34.409941	37.699269	126.766254	129.306678		Urine																																							"Sample collected in 2006-2007"	2018/4/6	2018/4/6
PRA000064	SAA003278	ST003	9606			CP2015_138	"Homo sapiens"	Human	2006							Asia	Korea	"Seoul or Busan or Yeosu"	34.409941	37.699269	126.766254	129.306678		Urine																																							"Sample collected in 2006-2007"	2018/4/6	2018/4/6
PRA000064	SAA003279	ST003	9606			CP2015_139	"Homo sapiens"	Human	2006							Asia	Korea	"Seoul or Busan or Yeosu"	34.409941	37.699269	126.766254	129.306678		Urine																																							"Sample collected in 2006-2007"	2018/4/6	2018/4/6
PRA000064	SAA003280	ST003	9606			CP2015_140	"Homo sapiens"	Human	2006							Asia	Korea	"Seoul or Busan or Yeosu"	34.409941	37.699269	126.766254	129.306678		Urine																																							"Sample collected in 2006-2007"	2018/4/6	2018/4/6
PRA000064	SAA003281	ST003	9606			CP2015_141	"Homo sapiens"	Human	2006							Asia	Korea	"Seoul or Busan or Yeosu"	34.409941	37.699269	126.766254	129.306678		Urine																																							"Sample collected in 2006-2007"	2018/4/6	2018/4/6
PRA000064	SAA003282	ST003	9606			CP2015_142	"Homo sapiens"	Human	2006							Asia	Korea	"Seoul or Busan or Yeosu"	34.409941	37.699269	126.766254	129.306678		Urine																																							"Sample collected in 2006-2007"	2018/4/6	2018/4/6
PRA000064	SAA003283	ST003	9606			CP2015_143	"Homo sapiens"	Human	2006							Asia	Korea	"Seoul or Busan or Yeosu"	34.409941	37.699269	126.766254	129.306678		Urine																																							"Sample collected in 2006-2007"	2018/4/6	2018/4/6
PRA000064	SAA003284	ST003	9606			CP2015_144	"Homo sapiens"	Human	2006							Asia	Korea	"Seoul or Busan or Yeosu"	34.409941	37.699269	126.766254	129.306678	Male	Urine									"30 y.o."																														"Sample collected in 2006-2007"	2018/4/6	2018/4/6
PRA000064	SAA003285	ST003	9606			CP2015_145	"Homo sapiens"	Human	2006							Asia	Korea	"Seoul or Busan or Yeosu"	34.409941	37.699269	126.766254	129.306678		Urine																																							"Sample collected in 2006-2007"	2018/4/6	2018/4/6
PRA000064	SAA003286	ST003	9606			CP2015_146	"Homo sapiens"	Human	2006							Asia	Korea	"Seoul or Busan or Yeosu"	34.409941	37.699269	126.766254	129.306678		Urine																																							"Sample collected in 2006-2007"	2018/4/6	2018/4/6
PRA000064	SAA003287	ST003	9606			CP2015_147	"Homo sapiens"	Human	2006							Asia	Korea	"Seoul or Busan or Yeosu"	34.409941	37.699269	126.766254	129.306678		Urine																																							"Sample collected in 2006-2007"	2018/4/6	2018/4/6
PRA000064	SAA003288	ST003	9606			CP2015_148	"Homo sapiens"	Human	2006							Asia	Korea	"Seoul or Busan or Yeosu"	34.409941	37.699269	126.766254	129.306678		Urine																																							"Sample collected in 2006-2007"	2018/4/6	2018/4/6
PRA000064	SAA003289	ST003	9606			CP2015_149	"Homo sapiens"	Human	2006							Asia	Korea	"Seoul or Busan or Yeosu"	34.409941	37.699269	126.766254	129.306678		Urine																																							"Sample collected in 2006-2007"	2018/4/6	2018/4/6
PRA000064	SAA003290	ST003	9606			CP2015_150	"Homo sapiens"	Human	2006							Asia	Korea	"Seoul or Busan or Yeosu"	34.409941	37.699269	126.766254	129.306678		Urine																																							"Sample collected in 2006-2007"	2018/4/6	2018/4/6
PRA000064	SAA003291	ST003	9606			CP2015_151	"Homo sapiens"	Human	2010							Asia	Kuwait	"Al-Asimah or Al-Jahra"	29.282801	29.39249	47.632837	48.028438	Male	Urine									"73 y.o."																														"Sample collected in 2010-2012"	2018/4/6	2018/4/6
PRA000064	SAA003292	ST003	9606			CP2015_152	"Homo sapiens"	Human	2010							Asia	Kuwait	"Al-Asimah or Al-Jahra"	29.282801	29.39249	47.632837	48.028438	Female	Urine									"54 y.o."																														"Sample collected in 2010-2012"	2018/4/6	2018/4/6
PRA000064	SAA003293	ST003	9606			CP2015_153	"Homo sapiens"	Human	2010							Asia	Kuwait	"Al-Asimah or Al-Jahra"	29.282801	29.39249	47.632837	48.028438	Male	Urine									"73 y.o."																														"Sample collected in 2010-2012"	2018/4/6	2018/4/6
PRA000064	SAA003294	ST003	9606			CP2015_154	"Homo sapiens"	Human	2010							Asia	Kuwait	"Al-Asimah or Al-Jahra"	29.282801	29.39249	47.632837	48.028438	Male	Urine									"14 y.o."																														"Sample collected in 2010-2012"	2018/4/6	2018/4/6
PRA000064	SAA003295	ST003	9606			CP2015_155	"Homo sapiens"	Human	2010							Asia	Kuwait	"Al-Asimah or Al-Jahra"	29.282801	29.39249	47.632837	48.028438	Male	Urine									"17 y.o."																														"Sample collected in 2010-2012"	2018/4/6	2018/4/6
PRA000064	SAA003296	ST003	9606			CP2015_156	"Homo sapiens"	Human	2010							Asia	Kuwait	"Al-Asimah or Al-Jahra"	29.282801	29.39249	47.632837	48.028438	Male	Urine									"58 y.o."																														"Sample collected in 2010-2012"	2018/4/6	2018/4/6
PRA000064	SAA003297	ST003	9606			CP2015_157	"Homo sapiens"	Human	2010							Asia	Kuwait	"Al-Asimah or Al-Jahra"	29.282801	29.39249	47.632837	48.028438	Female	Urine									"20 y.o."																														"Sample collected in 2010-2012"	2018/4/6	2018/4/6
PRA000064	SAA003298	ST003	9606			CP2015_158	"Homo sapiens"	Human	2010							Asia	Kuwait	"Al-Asimah or Al-Jahra"	29.282801	29.39249	47.632837	48.028438	Male	Urine									"41 y.o."																														"Sample collected in 2010-2012"	2018/4/6	2018/4/6
PRA000064	SAA003299	ST003	9606			CP2015_159	"Homo sapiens"	Human	2010							Asia	Kuwait	"Al-Asimah or Al-Jahra"	29.282801	29.39249	47.632837	48.028438	Male	Urine									"13 y.o."																														"Sample collected in 2010-2012"	2018/4/6	2018/4/6
PRA000064	SAA003300	ST003	9606			CP2015_160	"Homo sapiens"	Human	2010							Asia	Kuwait	"Al-Asimah or Al-Jahra"	29.282801	29.39249	47.632837	48.028438	Male	Urine									"6 y.o."																														"Sample collected in 2010-2012"	2018/4/6	2018/4/6
PRA000064	SAA003301	ST003	9606			CP2015_161	"Homo sapiens"	Human	2010							Asia	Kuwait	"Al-Asimah or Al-Jahra"	29.282801	29.39249	47.632837	48.028438	Male	Urine									"27 y.o."																														"Sample collected in 2010-2012"	2018/4/6	2018/4/6
PRA000064	SAA003302	ST003	9606			CP2015_162	"Homo sapiens"	Human	2010							Asia	Kuwait	"Al-Asimah or Al-Jahra"	29.282801	29.39249	47.632837	48.028438	Male	Urine									"42 y.o."																														"Sample collected in 2010-2012"	2018/4/6	2018/4/6
PRA000064	SAA003303	ST003	9606			CP2015_163	"Homo sapiens"	Human	2010							Asia	Kuwait	"Al-Asimah or Al-Jahra"	29.282801	29.39249	47.632837	48.028438	Female	Urine									"45 y.o."																														"Sample collected in 2010-2012"	2018/4/6	2018/4/6
PRA000064	SAA003304	ST003	9606			CP2015_164	"Homo sapiens"	Human	2010							Asia	Kuwait	"Al-Asimah or Al-Jahra"	29.282801	29.39249	47.632837	48.028438	Female	Urine									"15 y.o."																														"Sample collected in 2010-2012"	2018/4/6	2018/4/6
PRA000064	SAA003305	ST003	9606			CP2015_165	"Homo sapiens"	Human	2010							Asia	Kuwait	"Al-Asimah or Al-Jahra"	29.282801	29.39249	47.632837	48.028438	Female	Urine									"25 y.o."																														"Sample collected in 2010-2012"	2018/4/6	2018/4/6
PRA000064	SAA003306	ST003	9606			CP2015_166	"Homo sapiens"	Human	2010							Asia	Kuwait	"Al-Asimah or Al-Jahra"	29.282801	29.39249	47.632837	48.028438	Male	Urine									"50 y.o."																														"Sample collected in 2010-2012"	2018/4/6	2018/4/6
PRA000064	SAA003307	ST003	9606			CP2015_167	"Homo sapiens"	Human	2010							Asia	Kuwait	"Al-Asimah or Al-Jahra"	29.282801	29.39249	47.632837	48.028438	Male	Urine									"54 y.o."																														"Sample collected in 2010-2012"	2018/4/6	2018/4/6
PRA000064	SAA003308	ST003	9606			CP2015_168	"Homo sapiens"	Human	2010							Asia	Kuwait	"Al-Asimah or Al-Jahra"	29.282801	29.39249	47.632837	48.028438	Male	Urine									"10 y.o."																														"Sample collected in 2010-2012"	2018/4/6	2018/4/6
PRA000064	SAA003309	ST003	9606			CP2015_169	"Homo sapiens"	Human	2010							Asia	Kuwait	"Al-Asimah or Al-Jahra"	29.282801	29.39249	47.632837	48.028438	Male	Urine									"53 y.o."																														"Sample collected in 2010-2012"	2018/4/6	2018/4/6
PRA000064	SAA003310	ST003	9606			CP2015_170	"Homo sapiens"	Human	2010							Asia	Kuwait	"Al-Asimah or Al-Jahra"	29.282801	29.39249	47.632837	48.028438	Male	Urine									"68 y.o."																														"Sample collected in 2010-2012"	2018/4/6	2018/4/6
PRA000064	SAA003311	ST003	9606			CP2015_171	"Homo sapiens"	Human	2010							Asia	Kuwait	"Al-Asimah or Al-Jahra"	29.282801	29.39249	47.632837	48.028438	Male	Urine									"10 y.o."																														"Sample collected in 2010-2012"	2018/4/6	2018/4/6
PRA000064	SAA003312	ST003	9606			CP2015_172	"Homo sapiens"	Human	2010							Asia	Kuwait	"Al-Asimah or Al-Jahra"	29.282801	29.39249	47.632837	48.028438	Male	Urine									"16 y.o."																														"Sample collected in 2010-2012"	2018/4/6	2018/4/6
PRA000064	SAA003313	ST003	9606			CP2015_173	"Homo sapiens"	Human	2010							Asia	Kuwait	"Al-Asimah or Al-Jahra"	29.282801	29.39249	47.632837	48.028438	Female	Urine									"23 y.o."																														"Sample collected in 2010-2012"	2018/4/6	2018/4/6
PRA000064	SAA003314	ST003	9606			CP2015_174	"Homo sapiens"	Human	2010							Asia	Kuwait	"Al-Asimah or Al-Jahra"	29.282801	29.39249	47.632837	48.028438	Male	Urine									"40 y.o."																														"Sample collected in 2010-2012"	2018/4/6	2018/4/6
PRA000064	SAA003315	ST003	9606			CP2015_175	"Homo sapiens"	Human	2010							Asia	Kuwait	"Al-Asimah or Al-Jahra"	29.282801	29.39249	47.632837	48.028438	Male	Urine									"49 y.o."																														"Sample collected in 2010-2012"	2018/4/6	2018/4/6
PRA000064	SAA003316	ST003	9606			CP2015_176	"Homo sapiens"	Human	2010							Asia	Kuwait	"Al-Asimah or Al-Jahra"	29.282801	29.39249	47.632837	48.028438	Male	Urine									"20 y.o."																														"Sample collected in 2010-2012"	2018/4/6	2018/4/6
PRA000064	SAA003317	ST003	9606			CP2015_177	"Homo sapiens"	Human	2010							Asia	Kuwait	"Al-Asimah or Al-Jahra"	29.282801	29.39249	47.632837	48.028438	Female	Urine									"10 y.o."																														"Sample collected in 2010-2012"	2018/4/6	2018/4/6
PRA000064	SAA003318	ST003	9606			CP2015_178	"Homo sapiens"	Human	2010							Asia	Kuwait	"Al-Asimah or Al-Jahra"	29.282801	29.39249	47.632837	48.028438	Male	Urine									"30 y.o."																														"Sample collected in 2010-2012"	2018/4/6	2018/4/6
PRA000064	SAA003319	ST003	9606			CP2015_179	"Homo sapiens"	Human	2010							Asia	Kuwait	"Al-Asimah or Al-Jahra"	29.282801	29.39249	47.632837	48.028438	Male	Urine									"11 y.o."																														"Sample collected in 2010-2012"	2018/4/6	2018/4/6
PRA000064	SAA003320	ST003	9606			CP2015_180	"Homo sapiens"	Human	2010							Asia	Kuwait	"Al-Asimah or Al-Jahra"	29.282801	29.39249	47.632837	48.028438	Male	Urine									"8 y.o."																														"Sample collected in 2010-2012"	2018/4/6	2018/4/6
PRA000064	SAA003321	ST003	9606			CP2015_181	"Homo sapiens"	Human	2010							Asia	Kuwait	"Al-Asimah or Al-Jahra"	29.282801	29.39249	47.632837	48.028438	Male	Urine									"10 y.o."																														"Sample collected in 2010-2012"	2018/4/6	2018/4/6
PRA000064	SAA003322	ST003	9606			CP2015_182	"Homo sapiens"	Human	2010							Asia	Kuwait	"Al-Asimah or Al-Jahra"	29.282801	29.39249	47.632837	48.028438	Female	Urine									"51 y.o."																														"Sample collected in 2010-2012"	2018/4/6	2018/4/6
PRA000064	SAA003323	ST003	9606			CP2015_183	"Homo sapiens"	Human	2010							Asia	Kuwait	"Al-Asimah or Al-Jahra"	29.282801	29.39249	47.632837	48.028438	Male	Urine									"9 y.o."																														"Sample collected in 2010-2012"	2018/4/6	2018/4/6
PRA000064	SAA003324	ST003	9606			CP2015_184	"Homo sapiens"	Human	2010							Asia	Kuwait	"Al-Asimah or Al-Jahra"	29.282801	29.39249	47.632837	48.028438	Male	Urine									"8 y.o."																														"Sample collected in 2010-2012"	2018/4/6	2018/4/6
PRA000064	SAA003325	ST003	9606			CP2015_185	"Homo sapiens"	Human	2010							Asia	Kuwait	"Al-Asimah or Al-Jahra"	29.282801	29.39249	47.632837	48.028438	Male	Urine									"63 y.o."																														"Sample collected in 2010-2012"	2018/4/6	2018/4/6
PRA000064	SAA003326	ST003	9606			CP2015_186	"Homo sapiens"	Human	2010							Asia	Kuwait	"Al-Asimah or Al-Jahra"	29.282801	29.39249	47.632837	48.028438	Female	Urine									"11 y.o."																														"Sample collected in 2010-2012"	2018/4/6	2018/4/6
PRA000064	SAA003327	ST003	9606			CP2015_187	"Homo sapiens"	Human	2010							Asia	Kuwait	"Al-Asimah or Al-Jahra"	29.282801	29.39249	47.632837	48.028438	Female	Urine									"43 y.o."																														"Sample collected in 2010-2012"	2018/4/6	2018/4/6
PRA000064	SAA003328	ST003	9606			CP2015_188	"Homo sapiens"	Human	2010							Asia	Kuwait	"Al-Asimah or Al-Jahra"	29.282801	29.39249	47.632837	48.028438	Female	Urine									"8 y.o."																														"Sample collected in 2010-2012"	2018/4/6	2018/4/6
PRA000064	SAA003329	ST003	9606			CP2015_189	"Homo sapiens"	Human	2010							Asia	Kuwait	"Al-Asimah or Al-Jahra"	29.282801	29.39249	47.632837	48.028438	Female	Urine									"24 y.o."																														"Sample collected in 2010-2012"	2018/4/6	2018/4/6
PRA000064	SAA003330	ST003	9606			CP2015_190	"Homo sapiens"	Human	2010							Asia	Kuwait	"Al-Asimah or Al-Jahra"	29.282801	29.39249	47.632837	48.028438	Female	Urine									"22 y.o."																														"Sample collected in 2010-2012"	2018/4/6	2018/4/6
PRA000064	SAA003331	ST003	9606			CP2015_191	"Homo sapiens"	Human	2012							Asia	"Saudi Arabia"	Jeddah	21.54238056		39.19796944		Male	Urine									"69 y.o."																														"Sample collected in 2012-2014"	2018/4/6	2018/4/6
PRA000064	SAA003332	ST003	9606			CP2015_192	"Homo sapiens"	Human	2012							Asia	"Saudi Arabia"	Jeddah	21.54238056		39.19796944			Urine																																							"Sample collected in 2012-2014"	2018/4/6	2018/4/6
PRA000064	SAA003333	ST003	9606			CP2015_193	"Homo sapiens"	Human	2012							Asia	"Saudi Arabia"	Jeddah	21.54238056		39.19796944		Female	Urine									"30 y.o."																														"Sample collected in 2012-2014"	2018/4/6	2018/4/6
PRA000064	SAA003334	ST003	9606			CP2015_194	"Homo sapiens"	Human	2012							Asia	"Saudi Arabia"	Jeddah	21.54238056		39.19796944		Female	Urine									"21 y.o."																														"Sample collected in 2012-2014"	2018/4/6	2018/4/6
PRA000064	SAA003335	ST003	9606			CP2015_195	"Homo sapiens"	Human	2012							Asia	"Saudi Arabia"	Jeddah	21.54238056		39.19796944		Male	Urine									"35 y.o."																														"Sample collected in 2012-2014"	2018/4/6	2018/4/6
PRA000064	SAA003336	ST003	9606			CP2015_196	"Homo sapiens"	Human	2012							Asia	"Saudi Arabia"	Jeddah	21.54238056		39.19796944		Female	Urine									"63 y.o."																														"Sample collected in 2012-2014"	2018/4/6	2018/4/6
PRA000064	SAA003337	ST003	9606			CP2015_197	"Homo sapiens"	Human	2012							Asia	"Saudi Arabia"	Jeddah	21.54238056		39.19796944			Urine																																							"Sample collected in 2012-2014"	2018/4/6	2018/4/6
PRA000064	SAA003338	ST003	9606			CP2015_198	"Homo sapiens"	Human	2012							Asia	"Saudi Arabia"	Jeddah	21.54238056		39.19796944		Male	Urine									"59 y.o."																														"Sample collected in 2012-2014"	2018/4/6	2018/4/6
PRA000064	SAA003339	ST003	9606			CP2015_199	"Homo sapiens"	Human	2012							Asia	"Saudi Arabia"	Jeddah	21.54238056		39.19796944		Male	Urine									"37 y.o."																														"Sample collected in 2012-2014"	2018/4/6	2018/4/6
PRA000064	SAA003340	ST003	9606			CP2015_200	"Homo sapiens"	Human	2012							Asia	"Saudi Arabia"	Jeddah	21.54238056		39.19796944			Urine																																							"Sample collected in 2012-2014"	2018/4/6	2018/4/6
PRA000064	SAA003341	ST003	9606			CP2015_201	"Homo sapiens"	Human	2012							Asia	"Saudi Arabia"	Jeddah	21.54238056		39.19796944		Female	Urine									"3 y.o."																														"Sample collected in 2012-2014"	2018/4/6	2018/4/6
PRA000064	SAA003342	ST003	9606			CP2015_202	"Homo sapiens"	Human	2012							Asia	"Saudi Arabia"	Jeddah	21.54238056		39.19796944		Female	Urine									"15 y.o."																														"Sample collected in 2012-2014"	2018/4/6	2018/4/6
PRA000064	SAA003343	ST003	9606			CP2015_203	"Homo sapiens"	Human	2012							Asia	"Saudi Arabia"	Jeddah	21.54238056		39.19796944			Urine																																							"Sample collected in 2012-2014"	2018/4/6	2018/4/6
PRA000064	SAA003344	ST003	9606			CP2015_204	"Homo sapiens"	Human	2012							Asia	"Saudi Arabia"	Jeddah	21.54238056		39.19796944			Urine																																							"Sample collected in 2012-2014"	2018/4/6	2018/4/6
PRA000064	SAA003345	ST003	9606			CP2015_205	"Homo sapiens"	Human	2012							Asia	"Saudi Arabia"	Jeddah	21.54238056		39.19796944		Female	Urine									"22 y.o."																														"Sample collected in 2012-2014"	2018/4/6	2018/4/6
PRA000064	SAA003346	ST003	9606			CP2015_206	"Homo sapiens"	Human	2012							Asia	"Saudi Arabia"	Jeddah	21.54238056		39.19796944		Female	Urine									"87 y.o."																														"Sample collected in 2012-2014"	2018/4/6	2018/4/6
PRA000064	SAA003347	ST003	9606			CP2015_207	"Homo sapiens"	Human	2012							Asia	"Saudi Arabia"	Jeddah	21.54238056		39.19796944			Urine																																							"Sample collected in 2012-2014"	2018/4/6	2018/4/6
PRA000064	SAA003348	ST003	9606			CP2015_208	"Homo sapiens"	Human	2012							Asia	"Saudi Arabia"	Jeddah	21.54238056		39.19796944		Female	Urine									"25 y.o."																														"Sample collected in 2012-2014"	2018/4/6	2018/4/6
PRA000064	SAA003349	ST003	9606			CP2015_209	"Homo sapiens"	Human	2012							Asia	"Saudi Arabia"	Jeddah	21.54238056		39.19796944			Urine																																							"Sample collected in 2012-2014"	2018/4/6	2018/4/6
PRA000064	SAA003350	ST003	9606			CP2015_210	"Homo sapiens"	Human	2012							Asia	"Saudi Arabia"	Jeddah	21.54238056		39.19796944		Male	Urine									"65 y.o."																														"Sample collected in 2012-2014"	2018/4/6	2018/4/6
PRA000064	SAA003351	ST003	9606			CP2015_211	"Homo sapiens"	Human	2012							Asia	"Saudi Arabia"	Jeddah	21.54238056		39.19796944		Male	Urine									"4 y.o."																														"Sample collected in 2012-2014"	2018/4/6	2018/4/6
PRA000064	SAA003352	ST003	9606			CP2015_212	"Homo sapiens"	Human	2012							Asia	"Saudi Arabia"	Jeddah	21.54238056		39.19796944			Urine																																							"Sample collected in 2012-2014"	2018/4/6	2018/4/6
PRA000064	SAA003353	ST003	9606			CP2015_213	"Homo sapiens"	Human	2012							Asia	"Saudi Arabia"	Jeddah	21.54238056		39.19796944		Female	Urine									"35 y.o."																														"Sample collected in 2012-2014"	2018/4/6	2018/4/6
PRA000064	SAA003354	ST003	9606			CP2015_214	"Homo sapiens"	Human	2012							Asia	"Saudi Arabia"	Jeddah	21.54238056		39.19796944			Urine																																							"Sample collected in 2012-2014"	2018/4/6	2018/4/6
PRA000064	SAA003355	ST003	9606			CP2015_215	"Homo sapiens"	Human	2012							Asia	"Saudi Arabia"	Jeddah	21.54238056		39.19796944			Urine																																							"Sample collected in 2012-2014"	2018/4/6	2018/4/6
PRA000064	SAA003356	ST003	9606			CP2015_216	"Homo sapiens"	Human	2012							Asia	"Saudi Arabia"	Jeddah	21.54238056		39.19796944			Urine																																							"Sample collected in 2012-2014"	2018/4/6	2018/4/6
PRA000064	SAA003357	ST003	9606			CP2015_217	"Homo sapiens"	Human	2012							Asia	"Saudi Arabia"	Jeddah	21.54238056		39.19796944			Urine																																							"Sample collected in 2012-2014"	2018/4/6	2018/4/6
PRA000064	SAA003358	ST003	9606			CP2015_218	"Homo sapiens"	Human	2012							Asia	"Saudi Arabia"	Jeddah	21.54238056		39.19796944			Urine																																							"Sample collected in 2012-2014"	2018/4/6	2018/4/6
PRA000064	SAA003359	ST003	9606			CP2015_219	"Homo sapiens"	Human	2012							Asia	"Saudi Arabia"	Jeddah	21.54238056		39.19796944			Urine																																							"Sample collected in 2012-2014"	2018/4/6	2018/4/6
PRA000064	SAA003360	ST003	9606			CP2015_220	"Homo sapiens"	Human	2012							Asia	"Saudi Arabia"	Jeddah	21.54238056		39.19796944		Female	Urine									"23 y.o."																														"Sample collected in 2012-2014"	2018/4/6	2018/4/6
PRA000064	SAA003361	ST003	9606			CP2015_221	"Homo sapiens"	Human	2010							Asia	Vietnam	Hanoi	21.028511		105.804817		Female	Urine									"79 y.o."																														"Sample collected in 2010-2012"	2018/4/6	2018/4/6
PRA000064	SAA003362	ST003	9606			CP2015_222	"Homo sapiens"	Human	2010							Asia	Vietnam	Hanoi	21.028511		105.804817		Male	Urine									"52 y.o."																														"Sample collected in 2010-2012"	2018/4/6	2018/4/6
PRA000064	SAA003363	ST003	9606			CP2015_223	"Homo sapiens"	Human	2010							Asia	Vietnam	Hanoi	21.028511		105.804817		Male	Urine									"51 y.o."																														"Sample collected in 2010-2012"	2018/4/6	2018/4/6
PRA000064	SAA003364	ST003	9606			CP2015_224	"Homo sapiens"	Human	2010							Asia	Vietnam	Hanoi	21.028511		105.804817		Female	Urine									"56 y.o."																														"Sample collected in 2010-2012"	2018/4/6	2018/4/6
PRA000064	SAA003365	ST003	9606			CP2015_225	"Homo sapiens"	Human	2010							Asia	Vietnam	Hanoi	21.028511		105.804817		Male	Urine									"29 y.o."																														"Sample collected in 2010-2012"	2018/4/6	2018/4/6
PRA000064	SAA003366	ST003	9606			CP2015_226	"Homo sapiens"	Human	2010							Asia	Vietnam	Hanoi	21.028511		105.804817		Female	Urine									"54 y.o."																														"Sample collected in 2010-2012"	2018/4/6	2018/4/6
PRA000064	SAA003367	ST003	9606			CP2015_227	"Homo sapiens"	Human	2010							Asia	Vietnam	Hanoi	21.028511		105.804817		Male	Urine									"61 y.o."																														"Sample collected in 2010-2012"	2018/4/6	2018/4/6
PRA000064	SAA003368	ST003	9606			CP2015_228	"Homo sapiens"	Human	2010							Asia	Vietnam	Hanoi	21.028511		105.804817		Male	Urine									"19 y.o."																														"Sample collected in 2010-2012"	2018/4/6	2018/4/6
PRA000064	SAA003369	ST003	9606			CP2015_229	"Homo sapiens"	Human	2010							Asia	Vietnam	Hanoi	21.028511		105.804817		Female	Urine									"80 y.o."																														"Sample collected in 2010-2012"	2018/4/6	2018/4/6
PRA000064	SAA003370	ST003	9606			CP2015_230	"Homo sapiens"	Human	2010							Asia	Vietnam	Hanoi	21.028511		105.804817		Female	Urine									"47 y.o."																														"Sample collected in 2010-2012"	2018/4/6	2018/4/6
PRA000064	SAA003371	ST003	9606			CP2015_231	"Homo sapiens"	Human	2010							Asia	Vietnam	Hanoi	21.028511		105.804817		Female	Urine									"68 y.o."																														"Sample collected in 2010-2012"	2018/4/6	2018/4/6
PRA000064	SAA003372	ST003	9606			CP2015_232	"Homo sapiens"	Human	2010							Asia	Vietnam	Hanoi	21.028511		105.804817		Male	Urine									"35 y.o."																														"Sample collected in 2010-2012"	2018/4/6	2018/4/6
PRA000064	SAA003373	ST003	9606			CP2015_233	"Homo sapiens"	Human	2010							Asia	Vietnam	Hanoi	21.028511		105.804817		Female	Urine									"77 y.o."																														"Sample collected in 2010-2012"	2018/4/6	2018/4/6
PRA000064	SAA003374	ST003	9606			CP2015_234	"Homo sapiens"	Human	2010							Asia	Vietnam	Hanoi	21.028511		105.804817		Female	Urine									"83 y.o."																														"Sample collected in 2010-2012"	2018/4/6	2018/4/6
PRA000064	SAA003375	ST003	9606			CP2015_235	"Homo sapiens"	Human	2010							Asia	Vietnam	Hanoi	21.028511		105.804817		Male	Urine									"27 y.o."																														"Sample collected in 2010-2012"	2018/4/6	2018/4/6
PRA000064	SAA003376	ST003	9606			CP2015_236	"Homo sapiens"	Human	2010							Asia	Vietnam	Hanoi	21.028511		105.804817		Female	Urine									"62 y.o."																														"Sample collected in 2010-2012"	2018/4/6	2018/4/6
PRA000064	SAA003377	ST003	9606			CP2015_237	"Homo sapiens"	Human	2010							Asia	Vietnam	Hanoi	21.028511		105.804817		Female	Urine									"39 y.o."																														"Sample collected in 2010-2012"	2018/4/6	2018/4/6
PRA000064	SAA003378	ST003	9606			CP2015_238	"Homo sapiens"	Human	2010							Asia	Vietnam	Hanoi	21.028511		105.804817		Male	Urine									"58 y.o."																														"Sample collected in 2010-2012"	2018/4/6	2018/4/6
PRA000064	SAA003379	ST003	9606			CP2015_239	"Homo sapiens"	Human	2010							Asia	Vietnam	Hanoi	21.028511		105.804817		Male	Urine									"30 y.o."																														"Sample collected in 2010-2012"	2018/4/6	2018/4/6
PRA000064	SAA003380	ST003	9606			CP2015_240	"Homo sapiens"	Human	2012							Europe	Greece	Athens	37.98381		23.727539		Male	Urine									"23 y.o."																														"Sample collected in 2012-2014"	2018/4/6	2018/4/6
PRA000064	SAA003381	ST003	9606			CP2015_241	"Homo sapiens"	Human	2012							Europe	Greece	Athens	37.98381		23.727539		Male	Urine									"57 y.o."																														"Sample collected in 2012-2014"	2018/4/6	2018/4/6
PRA000064	SAA003382	ST003	9606			CP2015_242	"Homo sapiens"	Human	2012							Europe	Greece	Athens	37.98381		23.727539		Male	Urine									"25 y.o."																														"Sample collected in 2012-2014"	2018/4/6	2018/4/6
PRA000064	SAA003383	ST003	9606			CP2015_243	"Homo sapiens"	Human	2012							Europe	Greece	Athens	37.98381		23.727539		Male	Urine									"29 y.o."																														"Sample collected in 2012-2014"	2018/4/6	2018/4/6
PRA000064	SAA003384	ST003	9606			CP2015_244	"Homo sapiens"	Human	2012							Europe	Greece	Athens	37.98381		23.727539		Male	Urine									"64 y.o."																														"Sample collected in 2012-2014"	2018/4/6	2018/4/6
PRA000064	SAA003385	ST003	9606			CP2015_245	"Homo sapiens"	Human	2012							Europe	Greece	Athens	37.98381		23.727539		Male	Urine									"30 y.o."																														"Sample collected in 2012-2014"	2018/4/6	2018/4/6
PRA000064	SAA003386	ST003	9606			CP2015_246	"Homo sapiens"	Human	2012							Europe	Greece	Athens	37.98381		23.727539		Male	Urine									"28 y.o."																														"Sample collected in 2012-2014"	2018/4/6	2018/4/6
PRA000064	SAA003387	ST003	9606			CP2015_247	"Homo sapiens"	Human	2012							Europe	Greece	Athens	37.98381		23.727539		Male	Urine									"75 y.o."																														"Sample collected in 2012-2014"	2018/4/6	2018/4/6
PRA000064	SAA003388	ST003	9606			CP2015_248	"Homo sapiens"	Human	2012							Europe	Greece	Athens	37.98381		23.727539		Male	Urine									"30 y.o."																														"Sample collected in 2012-2014"	2018/4/6	2018/4/6
PRA000064	SAA003389	ST003	9606			CP2015_249	"Homo sapiens"	Human	2012							Europe	Greece	Athens	37.98381		23.727539		Male	Urine									"58 y.o."																														"Sample collected in 2012-2014"	2018/4/6	2018/4/6
PRA000064	SAA003390	ST003	9606			CP2015_250	"Homo sapiens"	Human	2012							Europe	Greece	Athens	37.98381		23.727539		Male	Urine									"25 y.o."																														"Sample collected in 2012-2014"	2018/4/6	2018/4/6
PRA000064	SAA003391	ST003	9606			CP2015_251	"Homo sapiens"	Human	2012							Europe	Greece	Athens	37.98381		23.727539		Male	Urine									"31 y.o."																														"Sample collected in 2012-2014"	2018/4/6	2018/4/6
PRA000064	SAA003392	ST003	9606			CP2015_252	"Homo sapiens"	Human	2012							Europe	Greece	Athens	37.98381		23.727539		Male	Urine									"28 y.o."																														"Sample collected in 2012-2014"	2018/4/6	2018/4/6
PRA000064	SAA003393	ST003	9606			CP2015_253	"Homo sapiens"	Human	2012							Europe	Greece	Athens	37.98381		23.727539		Male	Urine									"32 y.o."																														"Sample collected in 2012-2014"	2018/4/6	2018/4/6
PRA000064	SAA003394	ST003	9606			CP2015_254	"Homo sapiens"	Human	2012							Europe	Greece	Athens	37.98381		23.727539		Male	Urine									"56 y.o."																														"Sample collected in 2012-2014"	2018/4/6	2018/4/6
PRA000064	SAA003395	ST003	9606			CP2015_255	"Homo sapiens"	Human	2012							Europe	Greece	Athens	37.98381		23.727539		Female	Urine									"26 y.o."																														"Sample collected in 2012-2014"	2018/4/6	2018/4/6
PRA000064	SAA003396	ST003	9606			CP2015_256	"Homo sapiens"	Human	2012							Europe	Greece	Athens	37.98381		23.727539		Female	Urine									"25 y.o."																														"Sample collected in 2012-2014"	2018/4/6	2018/4/6
PRA000064	SAA003397	ST003	9606			CP2015_257	"Homo sapiens"	Human	2012							Europe	Greece	Athens	37.98381		23.727539		Female	Urine									"57 y.o."																														"Sample collected in 2012-2014"	2018/4/6	2018/4/6
PRA000064	SAA003398	ST003	9606			CP2015_258	"Homo sapiens"	Human	2012							Europe	Greece	Athens	37.98381		23.727539		Female	Urine																																							"Sample collected in 2012-2014"	2018/4/6	2018/4/6
PRA000064	SAA003399	ST003	9606			CP2015_259	"Homo sapiens"	Human	2012							Europe	Greece	Athens	37.98381		23.727539		Female	Urine									"31 y.o."																														"Sample collected in 2012-2014"	2018/4/6	2018/4/6
PRA000064	SAA003400	ST003	9606			CP2015_260	"Homo sapiens"	Human	2012							Europe	Greece	Athens	37.98381		23.727539		Female	Urine									"52 y.o."																														"Sample collected in 2012-2014"	2018/4/6	2018/4/6
PRA000064	SAA003401	ST003	9606			CP2015_261	"Homo sapiens"	Human	2012							Europe	Greece	Athens	37.98381		23.727539		Female	Urine									"52 y.o."																														"Sample collected in 2012-2014"	2018/4/6	2018/4/6
PRA000064	SAA003402	ST003	9606			CP2015_262	"Homo sapiens"	Human	2012							Europe	Greece	Athens	37.98381		23.727539		Female	Urine									"25 y.o."																														"Sample collected in 2012-2014"	2018/4/6	2018/4/6
PRA000064	SAA003403	ST003	9606			CP2015_263	"Homo sapiens"	Human	2012							Europe	Greece	Athens	37.98381		23.727539		Female	Urine																																							"Sample collected in 2012-2014"	2018/4/6	2018/4/6
PRA000064	SAA003404	ST003	9606			CP2015_264	"Homo sapiens"	Human	2012							Europe	Greece	Athens	37.98381		23.727539		Female	Urine																																							"Sample collected in 2012-2014"	2018/4/6	2018/4/6
PRA000064	SAA003405	ST003	9606			CP2015_265	"Homo sapiens"	Human	2012							Europe	Greece	Athens	37.98381		23.727539		Female	Urine									"22 y.o."																														"Sample collected in 2012-2014"	2018/4/6	2018/4/6
PRA000064	SAA003406	ST003	9606			CP2015_266	"Homo sapiens"	Human	2012							Europe	Greece	Athens	37.98381		23.727539		Female	Urine									"52 y.o."																														"Sample collected in 2012-2014"	2018/4/6	2018/4/6
PRA000064	SAA003407	ST003	9606			CP2015_267	"Homo sapiens"	Human	2012							Europe	Greece	Athens	37.98381		23.727539		Female	Urine									"50 y.o."																														"Sample collected in 2012-2014"	2018/4/6	2018/4/6
PRA000064	SAA003408	ST003	9606			CP2015_268	"Homo sapiens"	Human	2012							Europe	Greece	Athens	37.98381		23.727539		Female	Urine									"25 y.o."																														"Sample collected in 2012-2014"	2018/4/6	2018/4/6
PRA000064	SAA003409	ST003	9606			CP2015_269	"Homo sapiens"	Human	2012							Europe	Greece	Athens	37.98381		23.727539		Female	Urine									"49 y.o."																														"Sample collected in 2012-2014"	2018/4/6	2018/4/6
PRA000064	SAA003410	ST003	9606			CP2015_270	"Homo sapiens"	Human	2010							"North America"	America	Albany	42.65258		-73.756233		Female	Urine									"50 y.o."																														"Sample collected in 2010-2012"	2018/4/6	2018/4/6
PRA000064	SAA003411	ST003	9606			CP2015_271	"Homo sapiens"	Human	2010							"North America"	America	Albany	42.65258		-73.756233		Female	Urine									"50 y.o."																														"Sample collected in 2010-2012"	2018/4/6	2018/4/6
PRA000064	SAA003412	ST003	9606			CP2015_272	"Homo sapiens"	Human	2010							"North America"	America	Albany	42.65258		-73.756233		Male	Urine									"50 y.o."																														"Sample collected in 2010-2012"	2018/4/6	2018/4/6
PRA000064	SAA003413	ST003	9606			CP2015_273	"Homo sapiens"	Human	2010							"North America"	America	Albany	42.65258		-73.756233		Male	Urine									"58 y.o."																														"Sample collected in 2010-2012"	2018/4/6	2018/4/6
PRA000064	SAA003414	ST003	9606			CP2015_274	"Homo sapiens"	Human	2010							"North America"	America	Albany	42.65258		-73.756233		Male	Urine									"60 y.o."																														"Sample collected in 2010-2012"	2018/4/6	2018/4/6
PRA000064	SAA003415	ST003	9606			CP2015_275	"Homo sapiens"	Human	2010							"North America"	America	Albany	42.65258		-73.756233		Male	Urine									"23 y.o."																														"Sample collected in 2010-2012"	2018/4/6	2018/4/6
PRA000064	SAA003416	ST003	9606			CP2015_276	"Homo sapiens"	Human	2010							"North America"	America	Albany	42.65258		-73.756233		Male	Urine									"49 y.o."																														"Sample collected in 2010-2012"	2018/4/6	2018/4/6
PRA000064	SAA003417	ST003	9606			CP2015_277	"Homo sapiens"	Human	2010							"North America"	America	Albany	42.65258		-73.756233		Male	Urine									"34 y.o."																														"Sample collected in 2010-2012"	2018/4/6	2018/4/6
PRA000064	SAA003418	ST003	9606			CP2015_278	"Homo sapiens"	Human	2010							"North America"	America	Albany	42.65258		-73.756233		Female	Urine									"32 y.o."																														"Sample collected in 2010-2012"	2018/4/6	2018/4/6
PRA000064	SAA003419	ST003	9606			CP2015_279	"Homo sapiens"	Human	2010							"North America"	America	Albany	42.65258		-73.756233		Male	Urine									"42 y.o."																														"Sample collected in 2010-2012"	2018/4/6	2018/4/6
PRA000064	SAA003420	ST003	9606			CP2015_280	"Homo sapiens"	Human	2010							"North America"	America	Albany	42.65258		-73.756233		Male	Urine									"37 y.o."																														"Sample collected in 2010-2012"	2018/4/6	2018/4/6
PRA000064	SAA003421	ST003	9606			CP2015_281	"Homo sapiens"	Human	2010							"North America"	America	Albany	42.65258		-73.756233		Male	Urine									"27 y.o."																														"Sample collected in 2010-2012"	2018/4/6	2018/4/6
PRA000064	SAA003422	ST003	9606			CP2015_282	"Homo sapiens"	Human	2010							"North America"	America	Albany	42.65258		-73.756233		Male	Urine									"31 y.o."																														"Sample collected in 2010-2012"	2018/4/6	2018/4/6
PRA000064	SAA003423	ST003	9606			CP2015_283	"Homo sapiens"	Human	2010							"North America"	America	Albany	42.65258		-73.756233		Male	Urine									"31 y.o."																														"Sample collected in 2010-2012"	2018/4/6	2018/4/6
PRA000064	SAA003424	ST003	9606			CP2015_284	"Homo sapiens"	Human	2010							"North America"	America	Albany	42.65258		-73.756233		Male	Urine									"33 y.o."																														"Sample collected in 2010-2012"	2018/4/6	2018/4/6
PRA000064	SAA003425	ST003	9606			CP2015_285	"Homo sapiens"	Human	2010							"North America"	America	Albany	42.65258		-73.756233		Male	Urine									"40 y.o."																														"Sample collected in 2010-2012"	2018/4/6	2018/4/6
PRA000064	SAA003426	ST003	9606			CP2015_286	"Homo sapiens"	Human	2010							"North America"	America	Albany	42.65258		-73.756233		Male	Urine									"45 y.o."																														"Sample collected in 2010-2012"	2018/4/6	2018/4/6
PRA000064	SAA003427	ST003	9606			CP2015_287	"Homo sapiens"	Human	2010							"North America"	America	Albany	42.65258		-73.756233		Female	Urine									"38 y.o."																														"Sample collected in 2010-2012"	2018/4/6	2018/4/6
PRA000064	SAA003428	ST003	9606			CP2015_288	"Homo sapiens"	Human	2010							"North America"	America	Albany	42.65258		-73.756233		Male	Urine									"15 y.o."																														"Sample collected in 2010-2012"	2018/4/6	2018/4/6
PRA000064	SAA003429	ST003	9606			CP2015_289	"Homo sapiens"	Human	2010							"North America"	America	Albany	42.65258		-73.756233		Male	Urine									"11 y.o."																														"Sample collected in 2010-2012"	2018/4/6	2018/4/6
PRA000064	SAA003430	ST003	9606			CP2015_290	"Homo sapiens"	Human	2010							"North America"	America	Albany	42.65258		-73.756233		Female	Urine									"26 y.o."																														"Sample collected in 2010-2012"	2018/4/6	2018/4/6
PRA000064	SAA003431	ST003	9606			CP2015_291	"Homo sapiens"	Human	2010							"North America"	America	Albany	42.65258		-73.756233		Male	Urine									"48 y.o."																														"Sample collected in 2010-2012"	2018/4/6	2018/4/6
PRA000064	SAA003432	ST003	9606			CP2015_292	"Homo sapiens"	Human	2010							"North America"	America	Albany	42.65258		-73.756233		Female	Urine									"29 y.o."																														"Sample collected in 2010-2012"	2018/4/6	2018/4/6
PRA000064	SAA003433	ST003	9606			CP2015_293	"Homo sapiens"	Human	2010							"North America"	America	Albany	42.65258		-73.756233		Female	Urine									"51 y.o."																														"Sample collected in 2010-2012"	2018/4/6	2018/4/6
PRA000064	SAA003434	ST003	9606			CP2015_294	"Homo sapiens"	Human	2010							"North America"	America	Albany	42.65258		-73.756233		Male	Urine									"50 y.o."																														"Sample collected in 2010-2012"	2018/4/6	2018/4/6
PRA000064	SAA003435	ST003	9606			CP2015_295	"Homo sapiens"	Human	2010							"North America"	America	Albany	42.65258		-73.756233		Female	Urine									"41 y.o."																														"Sample collected in 2010-2012"	2018/4/6	2018/4/6
PRA000064	SAA003436	ST003	9606			CP2015_296	"Homo sapiens"	Human	2010							"North America"	America	Albany	42.65258		-73.756233		Male	Urine									"41 y.o."																														"Sample collected in 2010-2012"	2018/4/6	2018/4/6
PRA000064	SAA003437	ST003	9606			CP2015_297	"Homo sapiens"	Human	2010							"North America"	America	Albany	42.65258		-73.756233		Male	Urine									"46 y.o."																														"Sample collected in 2010-2012"	2018/4/6	2018/4/6
PRA000064	SAA003438	ST003	9606			CP2015_298	"Homo sapiens"	Human	2010							"North America"	America	Albany	42.65258		-73.756233		Male	Urine									"66 y.o."																														"Sample collected in 2010-2012"	2018/4/6	2018/4/6
PRA000064	SAA003439	ST003	9606			CP2015_299	"Homo sapiens"	Human	2010							"North America"	America	Albany	42.65258		-73.756233		Female	Urine									"43 y.o."																														"Sample collected in 2010-2012"	2018/4/6	2018/4/6
PRA000064	SAA003440	ST003	9606			CP2015_300	"Homo sapiens"	Human	2010							"North America"	America	Albany	42.65258		-73.756233		Female	Urine									"25 y.o."																														"Sample collected in 2010-2012"	2018/4/6	2018/4/6
PRA000124	SAA009350	ST013				A-water1	Water	"Brackish water"	2014	9						Aisa	India	"Kosasthalaiyar River, Chennai"	13.225		80.3157																7.07			29.7																							"Collected during wet seasons, but no rain before and during the sampling days."	2023/1/16	2023/1/16
PRA000124	SAA009351	ST013				A-water2	Water	"Brackish water"	2014	9						Aisa	India	"Kosasthalaiyar River, Chennai"	13.234		80.3161																7.78			28.9																							"Collected during wet seasons, but no rain before and during the sampling days."	2023/1/16	2023/1/16
PRA000124	SAA009352	ST013				A-water3	Water	"Brackish water"	2014	9						Aisa	India	"Kosasthalaiyar River, Chennai"	13.231		80.3199																7.3			32.2																							"Collected during wet seasons, but no rain before and during the sampling days."	2023/1/16	2023/1/16
PRA000124	SAA009353	ST013				B-water1	Water	"Brackish water"	2014	9						Aisa	India	"Adyar River, Chennai"	13.0116		80.259																7.9			31.5																							"Collected during wet seasons, but no rain before and during the sampling days."	2023/1/16	2023/1/16
PRA000124	SAA009354	ST013				B-water2	Water	"Brackish water"	2014	9						Aisa	India	"Adyar River, Chennai"	13.0233		80.2748																7.7			30																							"Collected during wet seasons, but no rain before and during the sampling days."	2023/1/16	2023/1/16
PRA000124	SAA009355	ST013				B-water3	Water	"Brackish water"	2014	9						Aisa	India	"Adyar River, Chennai"	13.0135		80.2767																8.25			30.5																							"Collected during wet seasons, but no rain before and during the sampling days."	2023/1/16	2023/1/16
PRA000124	SAA009356	ST013				C-water1	Water	"Brackish water"	2014	9						Aisa	India	"Muttukadu Backwaters, Chennai"	12.8031		80.248																8.17			35.1																							"Collected during wet seasons, but no rain before and during the sampling days."	2023/1/16	2023/1/16
PRA000124	SAA009357	ST013				C-water2	Water	"Brackish water"	2014	9						Aisa	India	"Muttukadu Backwaters, Chennai"	12.8053		80.2431																8.02			32.8																							"Collected during wet seasons, but no rain before and during the sampling days."	2023/1/16	2023/1/16
PRA000124	SAA009358	ST013				C-water3	Water	"Brackish water"	2014	9						Aisa	India	"Muttukadu Backwaters, Chennai"	12.8093		80.2453																8.68			32.8																							"Collected during wet seasons, but no rain before and during the sampling days."	2023/1/16	2023/1/16
PRA000124	SAA009359	ST013				C-water4	Water	"Brackish water"	2014	9						Aisa	India	"Muttukadu Backwaters, Chennai"	12.8099		80.2452																8.7			34.2																							"Collected during wet seasons, but no rain before and during the sampling days."	2023/1/16	2023/1/16
PRA000124	SAA009360	ST013				C-water5	Water	"Brackish water"	2014	9						Aisa	India	"Muttukadu Backwaters, Chennai"	12.8113		80.2463																7.3			31.8																							"Collected during wet seasons, but no rain before and during the sampling days."	2023/1/16	2023/1/16
PRA000124	SAA009361	ST015				D-water1	Water	"River water"	2014	9						Aisa	India	"Vrishabhavathi River, Bengaluru"	12.9455		77.5292																7.26			27																							"Collected during wet seasons, but no rain before and during the sampling days."	2023/1/16	2023/1/16
PRA000124	SAA009362	ST015				D-water2	Water	"River water"	2014	9						Aisa	India	"Vrishabhavathi River, Bengaluru"	12.9347		77.5179																7.16			26.8																							"Collected during wet seasons, but no rain before and during the sampling days."	2023/1/16	2023/1/16
PRA000124	SAA009363	ST015				D-water3	Water	"River water"	2014	9						Aisa	India	"Vrishabhavathi River, Bengaluru"	12.9357		77.5139																7.19			27.2																							"Collected during wet seasons, but no rain before and during the sampling days."	2023/1/16	2023/1/16
PRA000124	SAA009364	ST015				D-water4	Water	"River water"	2014	9						Aisa	India	"Vrishabhavathi River, Bengaluru"	12.9176		77.4913																7.17			26.6																							"Collected during wet seasons, but no rain before and during the sampling days."	2023/1/16	2023/1/16
PRA000124	SAA009365	ST015				D-water5	Water	"River water"	2014	9						Aisa	India	"Vrishabhavathi River, Bengaluru"	12.8729		77.4487																7.17			26																							"Collected during wet seasons, but no rain before and during the sampling days."	2023/1/16	2023/1/16
PRA000124	SAA009366	ST015				E-water1	Water	"River/reservoir water"	2014	9						Aisa	India	"Vrishabhavathi Reservoir, Bengaluru"	12.7607		77.4168																7.21			27.2																							"Collected during wet seasons, but no rain before and during the sampling days."	2023/1/16	2023/1/16
PRA000124	SAA009367	ST015				E-water1'	Water	"River/reservoir water"	2014	9						Aisa	India	"Vrishabhavathi Reservoir, Bengaluru"	12.7607		77.4168																7.03			26.8																							"Collected during wet seasons, but no rain before and during the sampling days."	2023/1/16	2023/1/16
PRA000124	SAA009368	ST015				F-water	Water	"Lake water"	2014	9						Aisa	India	"Gopahalli Lake, Bengaluru"	12.7281		77.416																8.37			26.5																							"Collected during wet seasons, but no rain before and during the sampling days."	2023/1/16	2023/1/16
PRA000124	SAA009369	ST015				D-water6	Water	"River water"	2015	9						Aisa	India	"Vrishabhavathi River, Bengaluru"	12.945		77.5339																7.13		86.1	29.6																							"Collected during wet seasons, but no rain before and during the sampling days."	2023/1/16	2023/1/16
PRA000124	SAA009370	ST015				D-water7	Water	"River water"	2015	9						Aisa	India	"Vrishabhavathi River, Bengaluru"	12.9454		77.5287																7.37		86.8	30																							"Collected during wet seasons, but no rain before and during the sampling days."	2023/1/16	2023/1/16
PRA000124	SAA009371	ST015				D-water8	Water	"River water"	2015	9						Aisa	India	"Vrishabhavathi River, Bengaluru"	12.9348		77.5179																7.39		92.8	29.5																							"Collected during wet seasons, but no rain before and during the sampling days."	2023/1/16	2023/1/16
PRA000124	SAA009372	ST015				D-water9	Water	"River water"	2015	9						Aisa	India	"Vrishabhavathi River, Bengaluru"	12.9354		77.5139																7.44		126.3	30.1																							"Collected during wet seasons, but no rain before and during the sampling days."	2023/1/16	2023/1/16
PRA000124	SAA009373	ST015				D-water10	Water	"River water"	2015	9						Aisa	India	"Vrishabhavathi River, Bengaluru"	12.9176		77.4913																7.59		106	29.4																							"Collected during wet seasons, but no rain before and during the sampling days."	2023/1/16	2023/1/16
PRA000124	SAA009374	ST015				E-water2	Water	"River/reservoir water"	2015	9						Aisa	India	"Vrishabhavathi Reservoir, Bengaluru"	12.7604		77.417																7.28		114.6	32																							"Collected during wet seasons, but no rain before and during the sampling days."	2023/1/16	2023/1/16
PRA000124	SAA009375	ST015				E-water2'	Water	"River/reservoir water"	2015	9						Aisa	India	"Vrishabhavathi Reservoir, Bengaluru"	12.7604		77.417																7.68		111.6	31.9																							"Collected during wet seasons, but no rain before and during the sampling days."	2023/1/16	2023/1/16
PRA000124	SAA009376	ST015				G-water1	Water	"Lake/pond/river water"	2015	9						Aisa	India	"Varthur Kere, Bengaluru"	12.9453		77.7469																7.51		99.6	27.9																							"Collected during wet seasons, but no rain before and during the sampling days."	2023/1/16	2023/1/16
PRA000124	SAA009377	ST015				G-water2	Water	"Lake/pond/river water"	2015	9						Aisa	India	"Varthur Kere, Bengaluru"	12.945		77.7473																7.54		98.1	27.5																							"Collected during wet seasons, but no rain before and during the sampling days."	2023/1/16	2023/1/16
PRA000124	SAA009378	ST015				G-water3	Water	"Lake/pond/river water"	2015	9						Aisa	India	"Varthur Kere, Bengaluru"	12.9409		77.6874																7.4		95.4	27.5																							"Collected during wet seasons, but no rain before and during the sampling days."	2023/1/16	2023/1/16
PRA000124	SAA009379	ST015				G-water4	Water	"Lake/pond/river water"	2015	9						Aisa	India	"Varthur Kere, Bengaluru"	12.946		77.6982																7.4		94.7	27.5																							"Collected during wet seasons, but no rain before and during the sampling days."	2023/1/16	2023/1/16
PRA000124	SAA009380	ST015				G-water5	Water	"Lake/pond/river water"	2015	9						Aisa	India	"Varthur Kere, Bengaluru"	12.9565		77.745																7.75		101	31.6																							"Collected during wet seasons, but no rain before and during the sampling days."	2023/1/16	2023/1/16
PRA000124	SAA009381	ST015				H-water	Water	"Lake/pond water"	2015	9						Aisa	India	"Ulsoor Lake, Bengaluru"	12.9847		77.6218																8.47		36.8	27.3																							"Collected during wet seasons, but no rain before and during the sampling days."	2023/1/16	2023/1/16
PRA000124	SAA009382	ST015				I-water	Water	"Lake/pond water"	2015	1						Aisa	Indoneasia	"Danau Sunter Lake, Jakarta"	-6.1456		106.8812																8.53		421	29.7																							"Collected during wet seasons, but no rain before and during the sampling days."	2023/1/16	2023/1/16
PRA000124	SAA009383	ST015				J-water	Water	"Lake/pond water"	2015	1						Aisa	Indoneasia	"Kemayoran Golf Lake, Jakarta"	-6.1375		106.8494																7.03		366	30.3																							"Collected during wet seasons, but no rain before and during the sampling days."	2023/1/16	2023/1/16
PRA000124	SAA009384	ST015				M-water1	Water	"Lake/pond water"	2015	1						Aisa	Indoneasia	"Setu Gintung Lake, Tangerang"	-6.3067		106.7639																7.44		17.8	29.6																							"Collected during wet seasons, but no rain before and during the sampling days."	2023/1/16	2023/1/16
PRA000124	SAA009385	ST015				M-water2	Water	"Lake/pond water"	2015	1						Aisa	Indoneasia	"Setu Gintung Lake, Tangerang"	-6.3023		106.7647																7.46		17.8	30.2																							"Collected during wet seasons, but no rain before and during the sampling days."	2023/1/16	2023/1/16
PRA000124	SAA009386	ST015				N-water	Water	"Lake/pond water"	2015	1						Aisa	Indoneasia	"Situ Rawa Cipondoh, Tangerang"	-6.1948		106.6716																7.53		28.2	30																							"Collected during wet seasons, but no rain before and during the sampling days."	2023/1/16	2023/1/16
PRA000124	SAA009387	ST015				O-water1	Water	"Stream water"	2015	1						Aisa	Indoneasia	"Kali Petukangan (PIZ), Jakarta"	-6.1894		106.9168																5.22		82.2	28.4																							"Collected during wet seasons, but no rain before and during the sampling days."	2023/1/16	2023/1/16
PRA000124	SAA009388	ST015				O-water2	Water	"Stream water"	2015	1						Aisa	Indoneasia	"Kali Petukangan (PIZ), Jakarta"	-6.1909		106.917																6.75		97.7	28.2																							"Collected during wet seasons, but no rain before and during the sampling days."	2023/1/16	2023/1/16
PRA000124	SAA009389	ST015				O-water3	Water	"Stream water"	2015	1						Aisa	Indoneasia	"Kali Petukangan (PIZ), Jakarta"	-6.1985		106.9172																7.29		57.8	28.7																							"Collected during wet seasons, but no rain before and during the sampling days."	2023/1/16	2023/1/16
PRA000124	SAA009390	ST015				O-water4	Water	"Stream water"	2015	1						Aisa	Indoneasia	"Kali Petukangan (PIZ), Jakarta"	-6.1866		106.9239																7.02		86.6	30.2																							"Collected during wet seasons, but no rain before and during the sampling days."	2023/1/16	2023/1/16
PRA000124	SAA009391	ST015				P-water1	Water	"River water"	2015	1						Aisa	Indoneasia	"Sunter River (downstream of PIZ), Jakarta"	-6.1934		106.9017																7.1		71.4	26.9																							"Collected during wet seasons, but no rain before and during the sampling days."	2023/1/16	2023/1/16
PRA000124	SAA009392	ST015				P-water2	Water	"River water"	2015	1						Aisa	Indoneasia	"Sunter River (downstream of PIZ), Jakarta"	-6.1837		106.9046																7.14		85.4	28.3																							"Collected during wet seasons, but no rain before and during the sampling days."	2023/1/16	2023/1/16
PRA000124	SAA009393	ST015				Q-water1	Water	"River water"	2015	1						Aisa	Indoneasia	"Cakung Drain (downstream of PIZ), Jakarta"	-6.1831		106.9289																6.85		93.4	28.6																							"Collected during wet seasons, but no rain before and during the sampling days."	2023/1/16	2023/1/16
PRA000124	SAA009394	ST015				Q-water2	Water	"River water"	2015	1						Aisa	Indoneasia	"Cakung Drain (downstream of PIZ), Jakarta"	-6.1587		106.9354																6.62		105.5	31																							"Collected during wet seasons, but no rain before and during the sampling days."	2023/1/16	2023/1/16
PRA000124	SAA009395	ST015				Q-water3	Water	"River water"	2015	1						Aisa	Indoneasia	"Cakung Drain (downstream of PIZ), Jakarta"	-6.1531		106.9384																6.64		109.8	30.7																							"Collected during wet seasons, but no rain before and during the sampling days."	2023/1/16	2023/1/16
PRA000124	SAA009396	ST015				Q-water4	Water	"River water"	2015	1						Aisa	Indoneasia	"Cakung Drain (downstream of PIZ), Jakarta"	-6.0979		106.9397																6.49		214	30.3																							"Collected during wet seasons, but no rain before and during the sampling days."	2023/1/16	2023/1/16
PRA000124	SAA009397	ST015				R-water1	Water	"Lake water"	2015	9						Aisa	Vietnam	"Yen So Lake, Hanoi"	20.9746		105.8651																7.37		52.4	30.4																							"Collected during wet seasons, but no rain before and during the sampling days."	2023/1/16	2023/1/16
PRA000124	SAA009398	ST015				R-water2	Water	"Lake water"	2015	9						Aisa	Vietnam	"Yen So Lake, Hanoi"	20.9717		105.8621																7.86		53.3	31																							"Collected during wet seasons, but no rain before and during the sampling days."	2023/1/16	2023/1/16
PRA000124	SAA009399	ST015				R-water3	Water	"Lake water"	2015	9						Aisa	Vietnam	"Yen So Lake, Hanoi"	20.9694		105.8588																8.28		48.1	32																							"Collected during wet seasons, but no rain before and during the sampling days."	2023/1/16	2023/1/16
PRA000124	SAA009400	ST015				R-water4	Water	"Lake water"	2015	9						Aisa	Vietnam	"Yen So Lake, Hanoi"	20.9646		105.8516																8.96		39.2	33.2																							"Collected during wet seasons, but no rain before and during the sampling days."	2023/1/16	2023/1/16
PRA000124	SAA009401	ST015				S-water1	Water	"River water"	2015	9						Aisa	Vietnam	"Da River, Hoa Binh"	20.8222		105.3378																7.74		17.5	27.8																							"Chosen as the control (unpoluted) site.; Collected during wet seasons, but no rain before and during the sampling days."	2023/1/16	2023/1/16
PRA000124	SAA009402	ST015				S-water2	Water	"River water"	2015	9						Aisa	Vietnam	"Da River, Hoa Binh"	20.8278		105.35																7.3		17.1	27.2																							"Chosen as the control (unpoluted) site.; Collected during wet seasons, but no rain before and during the sampling days."	2023/1/16	2023/1/16
PRA000124	SAA009403	ST015				S-water3	Water	"River water"	2015	9						Aisa	Vietnam	"Da River, Hoa Binh"	20.8524		105.3455																7.9		17.3	27.1																							"Chosen as the control (unpoluted) site.; Collected during wet seasons, but no rain before and during the sampling days."	2023/1/16	2023/1/16
PRA000124	SAA009404	ST008	48193			"A-Grey mullet1"	"Mugil cephalus"	"Flathead grey mullet"	2014	9						Aisa	India	"Kosasthalaiyar River, Chennai"	13.234		80.3161		Unknown	Plasma			87	g	17.7	cm																																	"Collected during wet seasons, but no rain before and during the sampling days."	2023/01/16	2023/01/16
PRA000124	SAA009405	ST008	48193			"A-Grey mullet2"	"Mugil cephalus"	"Flathead grey mullet"	2014	9						Aisa	India	"Kosasthalaiyar River, Chennai"	13.234		80.3161		Unknown	Plasma			114	g	20	cm																																	"Collected during wet seasons, but no rain before and during the sampling days."	2023/01/16	2023/01/16
PRA000124	SAA009406	ST008	48193			"A-Grey mullet3"	"Mugil cephalus"	"Flathead grey mullet"	2014	9						Aisa	India	"Kosasthalaiyar River, Chennai"	13.234		80.3161		Female	Plasma			57	g	14.5	cm																																	"Collected during wet seasons, but no rain before and during the sampling days."	2023/01/16	2023/01/16
PRA000124	SAA009407	ST008	48193			"A-Grey mullet4"	"Mugil cephalus"	"Flathead grey mullet"	2014	9						Aisa	India	"Kosasthalaiyar River, Chennai"	13.234		80.3161		Female	Plasma			52	g	13.5	cm																																	"Collected during wet seasons, but no rain before and during the sampling days."	2023/01/16	2023/01/16
PRA000124	SAA009408	ST008	48193			"A-Grey mullet5"	"Mugil cephalus"	"Flathead grey mullet"	2014	9						Aisa	India	"Kosasthalaiyar River, Chennai"	13.234		80.3161		Unknown	Plasma			44	g	13.5	cm																																	"Collected during wet seasons, but no rain before and during the sampling days."	2023/01/16	2023/01/16
PRA000124	SAA009409	ST008	48193			"B-Grey mullet1"	"Mugil cephalus"	"Flathead grey mullet"	2014	9						Aisa	India	"Adyar River, Chennai"	13.0135		80.2767		Unknown	Plasma			136	g	19.5	cm																																	"Collected during wet seasons, but no rain before and during the sampling days."	2023/01/16	2023/01/16
PRA000124	SAA009410	ST008	48193			"B-Grey mullet2"	"Mugil cephalus"	"Flathead grey mullet"	2014	9						Aisa	India	"Adyar River, Chennai"	13.0135		80.2767		Unknown	Plasma			138	g	19.5	cm																																	"Collected during wet seasons, but no rain before and during the sampling days."	2023/01/16	2023/01/16
PRA000124	SAA009411	ST008	48193			"B-Grey mullet3"	"Mugil cephalus"	"Flathead grey mullet"	2014	9						Aisa	India	"Adyar River, Chennai"	13.0135		80.2767		Female	Plasma			202	g	22.5	cm																																	"Collected during wet seasons, but no rain before and during the sampling days."	2023/01/16	2023/01/16
PRA000124	SAA009412	ST008	48193			"C-Grey mullet1"	"Mugil cephalus"	"Flathead grey mullet"	2014	9						Aisa	India	"Muttukadu Backwaters, Chennai"	12.8091		80.2452		Unknown	Plasma			201	g	22.5	cm																																	"Collected during wet seasons, but no rain before and during the sampling days."	2023/01/16	2023/01/16
PRA000124	SAA009413	ST008	48193			"C-Grey mullet2"	"Mugil cephalus"	"Flathead grey mullet"	2014	9						Aisa	India	"Muttukadu Backwaters, Chennai"	12.8091		80.2452		Unknown	Plasma			75	g	15.4	cm																																	"Collected during wet seasons, but no rain before and during the sampling days."	2023/01/16	2023/01/16
PRA000124	SAA009414	ST008	48193			"C-Grey mullet3"	"Mugil cephalus"	"Flathead grey mullet"	2014	9						Aisa	India	"Muttukadu Backwaters, Chennai"	12.8091		80.2452		Unknown	Plasma			57	g	14.7	cm																																	"Collected during wet seasons, but no rain before and during the sampling days."	2023/01/16	2023/01/16
PRA000124	SAA009415	ST008	48193			"C-Grey mullet4"	"Mugil cephalus"	"Flathead grey mullet"	2014	9						Aisa	India	"Muttukadu Backwaters, Chennai"	12.8105		80.2477		Unknown	Plasma			62	g	15.3	cm																																	"Collected during wet seasons, but no rain before and during the sampling days."	2023/01/16	2023/01/16
PRA000124	SAA009416	ST008	8139			C-Tilapia1	"Oreochromis spp."	Tilapia	2014	9						Aisa	India	"Muttukadu Backwaters, Chennai"	12.8091		80.2452		Unknown	Plasma			360	g	22.5	cm																																	"Collected during wet seasons, but no rain before and during the sampling days."	2023/01/16	2023/01/16
PRA000124	SAA009417	ST008	8139			C-Tilapia2	"Oreochromis spp."	Tilapia	2014	9						Aisa	India	"Muttukadu Backwaters, Chennai"	12.8091		80.2452		Unknown	Plasma			129	g	15	cm																																	"Collected during wet seasons, but no rain before and during the sampling days."	2023/01/16	2023/01/16
PRA000124	SAA009418	ST008	8139			C-Tilapia3	"Oreochromis spp."	Tilapia	2014	9						Aisa	India	"Muttukadu Backwaters, Chennai"	12.8091		80.2452		Unknown	Plasma			74	g	13.5	cm																																	"Collected during wet seasons, but no rain before and during the sampling days."	2023/01/16	2023/01/16
PRA000124	SAA009419	ST008	8139			C-Tilapia4	"Oreochromis spp."	Tilapia	2014	9						Aisa	India	"Muttukadu Backwaters, Chennai"	12.8105		80.2477		Unknown	Plasma			100	g	15.5	cm																																	"Collected during wet seasons, but no rain before and during the sampling days."	2023/01/16	2023/01/16
PRA000124	SAA009420	ST008	8139			C-Tilapia5	"Oreochromis spp."	Tilapia	2014	9						Aisa	India	"Muttukadu Backwaters, Chennai"	12.8105		80.2477		Unknown	Plasma			113	g	17	cm																																	"Collected during wet seasons, but no rain before and during the sampling days."	2023/01/16	2023/01/16
PRA000124	SAA009421	ST008	8139			C-Tilapia6	"Oreochromis spp."	Tilapia	2014	9						Aisa	India	"Muttukadu Backwaters, Chennai"	12.8105		80.2477		Unknown	Plasma			116	g	16	cm																																	"Collected during wet seasons, but no rain before and during the sampling days."	2023/01/16	2023/01/16
PRA000124	SAA009422	ST008	8139			C-Tilapia7	"Oreochromis spp."	Tilapia	2014	9						Aisa	India	"Muttukadu Backwaters, Chennai"	12.8105		80.2477		Unknown	Plasma			84	g	14	cm																																	"Collected during wet seasons, but no rain before and during the sampling days."	2023/01/16	2023/01/16
PRA000124	SAA009423	ST008	238232			"C-Green chromide1"	"Etroplus suratensis"	"Green chromide"	2014	9						Aisa	India	"Muttukadu Backwaters, Chennai"	12.8105		80.2477		Unknown	Plasma			94	g	12	cm																																	"Collected during wet seasons, but no rain before and during the sampling days."	2023/01/16	2023/01/16
PRA000124	SAA009424	ST008	13012			E-Catfish1	"Clarias spp."	"Freshwater catfish"	2014	9						Aisa	India	"Vrishabhavathi Reservoir, Bengaluru"	12.7606		77.4169		Unknown	Plasma			900	g	40.5	cm																																	"Collected during wet seasons, but no rain before and during the sampling days."	2023/01/16	2023/01/16
PRA000124	SAA009425	ST008	13012			E-Catfish2	"Clarias spp."	"Freshwater catfish"	2014	9						Aisa	India	"Vrishabhavathi Reservoir, Bengaluru"	12.7606		77.4169		Female	Plasma			2000	g	58.4	cm																																	"Collected during wet seasons, but no rain before and during the sampling days."	2023/01/16	2023/01/16
PRA000124	SAA009426	ST008	8139			F-Tilapia1	"Oreochromis spp."	Tilapia	2014	9						Aisa	India	"Gopahalli Lake, Bengaluru"	12.7302		77.4159		Unknown	Plasma			632	g	25.5	cm																																	"Collected during wet seasons, but no rain before and during the sampling days."	2023/01/16	2023/01/16
PRA000124	SAA009427	ST008	8139			F-Tilapia2	"Oreochromis spp."	Tilapia	2014	9						Aisa	India	"Gopahalli Lake, Bengaluru"	12.7302		77.4159		Female	Plasma			428	g	24.7	cm																																	"Collected during wet seasons, but no rain before and during the sampling days."	2023/01/16	2023/01/16
PRA000124	SAA009428	ST008	8139			F-Tilapia3	"Oreochromis spp."	Tilapia	2014	9						Aisa	India	"Gopahalli Lake, Bengaluru"	12.7302		77.4159		Unknown	Plasma			432	g	22.5	cm																																	"Collected during wet seasons, but no rain before and during the sampling days."	2023/01/16	2023/01/16
PRA000124	SAA009429	ST008	8139			F-Tilapia4	"Oreochromis spp."	Tilapia	2014	9						Aisa	India	"Gopahalli Lake, Bengaluru"	12.7302		77.4159		Unknown	Plasma			359	g	20.8	cm																																	"Collected during wet seasons, but no rain before and during the sampling days."	2023/01/16	2023/01/16
PRA000124	SAA009430	ST008	8139			F-Tilapia5	"Oreochromis spp."	Tilapia	2014	9						Aisa	India	"Gopahalli Lake, Bengaluru"	12.7302		77.4159		Female	Plasma			307	g	21	cm																																	"Collected during wet seasons, but no rain before and during the sampling days."	2023/01/16	2023/01/16
PRA000124	SAA009431	ST008	8139			F-Tilapia6	"Oreochromis spp."	Tilapia	2014	9						Aisa	India	"Gopahalli Lake, Bengaluru"	12.7302		77.4159		Female	Plasma			343	g	20.8	cm																																	"Collected during wet seasons, but no rain before and during the sampling days."	2023/01/16	2023/01/16
PRA000124	SAA009432	ST008	8139			F-Tilapia7	"Oreochromis spp."	Tilapia	2014	9						Aisa	India	"Gopahalli Lake, Bengaluru"	12.7302		77.4159		Female	Plasma			358	g	21	cm																																	"Collected during wet seasons, but no rain before and during the sampling days."	2023/01/16	2023/01/16
PRA000124	SAA009433	ST008	13012			E-Catfish3	"Clarias spp."	"Freshwater catfish"	2015	9						Aisa	India	"Vrishabhavathi Reservoir, Bengaluru"	12.7604		77.417		Male	Plasma			1900	g	50	cm																																	"Collected during wet seasons, but no rain before and during the sampling days."	2023/01/16	2023/01/16
PRA000124	SAA009434	ST008	13012			E-Catfish4	"Clarias spp."	"Freshwater catfish"	2015	9						Aisa	India	"Vrishabhavathi Reservoir, Bengaluru"	12.7604		77.417		Male	Plasma			1700	g	49	cm																																	"Collected during wet seasons, but no rain before and during the sampling days."	2023/01/16	2023/01/16
PRA000124	SAA009435	ST008	13012			E-Catfish5	"Clarias spp."	"Freshwater catfish"	2015	9						Aisa	India	"Vrishabhavathi Reservoir, Bengaluru"	12.7604		77.417		Female	Plasma			2100	g	51	cm																																	"Collected during wet seasons, but no rain before and during the sampling days."	2023/01/16	2023/01/16
PRA000124	SAA009436	ST008	13012			E-Catfish6	"Clarias spp."	"Freshwater catfish"	2015	9						Aisa	India	"Vrishabhavathi Reservoir, Bengaluru"	12.7604		77.417		Male	Plasma			2300	g	52.5	cm																																	"Collected during wet seasons, but no rain before and during the sampling days."	2023/01/16	2023/01/16
PRA000124	SAA009437	ST008	84645			H-Rohu1	"Labeo rohita"	Rohu	2015	9						Aisa	India	"Ulsoor Lake, Bengaluru"	12.9847		77.6218		Unknown	Plasma			192	g	19.6	cm																																	"Collected during wet seasons, but no rain before and during the sampling days."	2023/01/16	2023/01/16
PRA000124	SAA009438	ST008	8139			H-Tilapia1	"Oreochromis spp."	Tilapia	2015	9						Aisa	India	"Ulsoor Lake, Bengaluru"	12.9847		77.6218		Unknown	Plasma			148	g	16	cm																																	"Collected during wet seasons, but no rain before and during the sampling days."	2023/01/16	2023/01/16
PRA000124	SAA009439	ST008	8139			H-Tilapia2	"Oreochromis spp."	Tilapia	2015	9						Aisa	India	"Ulsoor Lake, Bengaluru"	12.9847		77.6218		Unknown	Plasma			304	g	19.7	cm																																	"Collected during wet seasons, but no rain before and during the sampling days."	2023/01/16	2023/01/16
PRA000124	SAA009440	ST008	8139			H-Tilapia3	"Oreochromis spp."	Tilapia	2015	9						Aisa	India	"Ulsoor Lake, Bengaluru"	12.9847		77.6218		Unknown	Plasma			135	g	15	cm																																	"Collected during wet seasons, but no rain before and during the sampling days."	2023/01/16	2023/01/16
PRA000124	SAA009441	ST008	8139			H-Tilapia4	"Oreochromis spp."	Tilapia	2015	9						Aisa	India	"Ulsoor Lake, Bengaluru"	12.9847		77.6218		Unknown	Plasma			157	g	16.5	cm																																	"Collected during wet seasons, but no rain before and during the sampling days."	2023/01/16	2023/01/16
PRA000124	SAA009442	ST008	8139			H-Tilapia5	"Oreochromis spp."	Tilapia	2015	9						Aisa	India	"Ulsoor Lake, Bengaluru"	12.9847		77.6218		Unknown	Plasma			163	g	16.5	cm																																	"Collected during wet seasons, but no rain before and during the sampling days."	2023/01/16	2023/01/16
PRA000124	SAA009443	ST008	8139			H-Tilapia6	"Oreochromis spp."	Tilapia	2015	9						Aisa	India	"Ulsoor Lake, Bengaluru"	12.9847		77.6218		Unknown	Plasma			157	g	16	cm																																	"Collected during wet seasons, but no rain before and during the sampling days."	2023/01/16	2023/01/16
PRA000124	SAA009444	ST008	8139			I-Tilapia1	"Oreochromis spp."	Tilapia	2015	1						Aisa	Indoneasia	"Danau Sunter Lake, Jakarta"	-6.1456		106.8812		Male	Plasma			455	g	22	cm																																	"Collected during wet seasons, but no rain before and during the sampling days."	2023/01/16	2023/01/16
PRA000124	SAA009445	ST008	8139			I-Tilapia2	"Oreochromis spp."	Tilapia	2015	1						Aisa	Indoneasia	"Danau Sunter Lake, Jakarta"	-6.1456		106.8812		Female	Plasma			907	g	28	cm																																	"Collected during wet seasons, but no rain before and during the sampling days."	2023/01/16	2023/01/16
PRA000124	SAA009446	ST008	8139			I-Tilapia3	"Oreochromis spp."	Tilapia	2015	1						Aisa	Indoneasia	"Danau Sunter Lake, Jakarta"	-6.1456		106.8812		Female	Plasma			461	g	22.6	cm																																	"Collected during wet seasons, but no rain before and during the sampling days."	2023/01/16	2023/01/16
PRA000124	SAA009447	ST008	8139			I-Tilapia4	"Oreochromis spp."	Tilapia	2015	1						Aisa	Indoneasia	"Danau Sunter Lake, Jakarta"	-6.1456		106.8812		Unknown	Plasma			483	g	22.5	cm																																	"Collected during wet seasons, but no rain before and during the sampling days."	2023/01/16	2023/01/16
PRA000124	SAA009448	ST008	8139			I-Tilapia5	"Oreochromis spp."	Tilapia	2015	1						Aisa	Indoneasia	"Danau Sunter Lake, Jakarta"	-6.1456		106.8812		Unknown	Plasma			699	g	24.5	cm																																	"Collected during wet seasons, but no rain before and during the sampling days."	2023/01/16	2023/01/16
PRA000124	SAA009449	ST008	8139			I-Tilapia6	"Oreochromis spp."	Tilapia	2015	1						Aisa	Indoneasia	"Danau Sunter Lake, Jakarta"	-6.1456		106.8812		Female	Plasma			728	g	27.8	cm																																	"Collected during wet seasons, but no rain before and during the sampling days."	2023/01/16	2023/01/16
PRA000124	SAA009450	ST008	8139			I-Tilapia7	"Oreochromis spp."	Tilapia	2015	1						Aisa	Indoneasia	"Danau Sunter Lake, Jakarta"	-6.1456		106.8812		Unknown	Plasma			422	g	22.4	cm																																	"Collected during wet seasons, but no rain before and during the sampling days."	2023/01/16	2023/01/16
PRA000124	SAA009451	ST008	8139			I-Tilapia8	"Oreochromis spp."	Tilapia	2015	1						Aisa	Indoneasia	"Danau Sunter Lake, Jakarta"	-6.1456		106.8812		Unknown	Plasma			598	g	23.3	cm																																	"Collected during wet seasons, but no rain before and during the sampling days."	2023/01/16	2023/01/16
PRA000124	SAA009452	ST008	8139			I-Tilapia9	"Oreochromis spp."	Tilapia	2015	1						Aisa	Indoneasia	"Danau Sunter Lake, Jakarta"	-6.1456		106.8812		Male	Plasma			748	g	26.5	cm																																	"Collected during wet seasons, but no rain before and during the sampling days."	2023/01/16	2023/01/16
PRA000124	SAA009453	ST008	8139			I-Tilapia10	"Oreochromis spp."	Tilapia	2015	1						Aisa	Indoneasia	"Danau Sunter Lake, Jakarta"	-6.1456		106.8812		Female	Plasma			371	g	20.2	cm																																	"Collected during wet seasons, but no rain before and during the sampling days."	2023/01/16	2023/01/16
PRA000124	SAA009454	ST008	164016			"I-Janitor fish1"	"Pterygoplichthys spp."	"Janitor fish/Sailfin catfish"	2015	1						Aisa	Indoneasia	"Danau Sunter Lake, Jakarta"	-6.1456		106.8812		Unknown	Plasma			356	g	24	cm																																	"Collected during wet seasons, but no rain before and during the sampling days."	2023/01/16	2023/01/16
PRA000124	SAA009455	ST008	164016			"I-Janitor fish 2"	"Pterygoplichthys spp."	"Janitor fish/Sailfin catfish"	2015	1						Aisa	Indoneasia	"Danau Sunter Lake, Jakarta"	-6.1456		106.8812		Unknown	Plasma			359	g	28.5	cm																																	"Collected during wet seasons, but no rain before and during the sampling days."	2023/01/16	2023/01/16
PRA000124	SAA009456	ST008	8139			J-Tilapia1	"Oreochromis spp."	Tilapia	2015	1						Aisa	Indoneasia	"Kemayoran Golf Lake, Jakarta"	-6.1375		106.8494		Female	Plasma			43	g	10.6	cm																																	"Collected during wet seasons, but no rain before and during the sampling days."	2023/01/16	2023/01/16
PRA000124	SAA009457	ST008	8139			J-Tilapia2	"Oreochromis spp."	Tilapia	2015	1						Aisa	Indoneasia	"Kemayoran Golf Lake, Jakarta"	-6.1375		106.8494		Unknown	Plasma			42	g	10.9	cm																																	"Collected during wet seasons, but no rain before and during the sampling days."	2023/01/16	2023/01/16
PRA000124	SAA009458	ST008	8139			J-Tilapia3	"Oreochromis spp."	Tilapia	2015	1						Aisa	Indoneasia	"Kemayoran Golf Lake, Jakarta"	-6.1375		106.8494		Unknown	Plasma			45	g	10.8	cm																																	"Collected during wet seasons, but no rain before and during the sampling days."	2023/01/16	2023/01/16
PRA000124	SAA009459	ST008	8139			J-Tilapia4	"Oreochromis spp."	Tilapia	2015	1						Aisa	Indoneasia	"Kemayoran Golf Lake, Jakarta"	-6.1375		106.8494		Unknown	Plasma			40	g	10.7	cm																																	"Collected during wet seasons, but no rain before and during the sampling days."	2023/01/16	2023/01/16
PRA000124	SAA009460	ST008	8139			J-Tilapia5	"Oreochromis spp."	Tilapia	2015	1						Aisa	Indoneasia	"Kemayoran Golf Lake, Jakarta"	-6.1375		106.8494		Unknown	Plasma			51	g	11.5	cm																																	"Collected during wet seasons, but no rain before and during the sampling days."	2023/01/16	2023/01/16
PRA000124	SAA009461	ST008	8139			J-Tilapia6	"Oreochromis spp."	Tilapia	2015	1						Aisa	Indoneasia	"Kemayoran Golf Lake, Jakarta"	-6.1375		106.8494		Unknown	Plasma			31	g	10.4	cm																																	"Collected during wet seasons, but no rain before and during the sampling days."	2023/01/16	2023/01/16
PRA000124	SAA009462	ST008	8139			J-Tilapia7	"Oreochromis spp."	Tilapia	2015	1						Aisa	Indoneasia	"Kemayoran Golf Lake, Jakarta"	-6.1375		106.8494		Unknown	Plasma			40	g	11.4	cm																																	"Collected during wet seasons, but no rain before and during the sampling days."	2023/01/16	2023/01/16
PRA000124	SAA009463	ST008	8139			J-Tilapia8	"Oreochromis spp."	Tilapia	2015	1						Aisa	Indoneasia	"Kemayoran Golf Lake, Jakarta"	-6.1375		106.8494		Unknown	Plasma			36	g	10.7	cm																																	"Collected during wet seasons, but no rain before and during the sampling days."	2023/01/16	2023/01/16
PRA000124	SAA009464	ST008	8139			J-Tilapia9	"Oreochromis spp."	Tilapia	2015	1						Aisa	Indoneasia	"Kemayoran Golf Lake, Jakarta"	-6.1375		106.8494		Unknown	Plasma			42	g	10.8	cm																																	"Collected during wet seasons, but no rain before and during the sampling days."	2023/01/16	2023/01/16
PRA000124	SAA009465	ST008	8000			K-Catfish1	"Pangasius spp."	"Shark catfish"	2015	1						Aisa	Indoneasia	"Waduk Sunter Utara Lake, Jakarta"	-6.1268		106.8725		Unknown	Plasma			86	g	17.9	cm																																	"Collected during wet seasons, but no rain before and during the sampling days."	2023/01/16	2023/01/16
PRA000124	SAA009466	ST008	64152			"K-Snakehead murrel"	"Channa striata"	"Snakehead murrel"	2015	1						Aisa	Indoneasia	"Waduk Sunter Utara Lake, Jakarta"	-6.1268		106.8725		Unknown	Plasma			82	g	18.7	cm																																	"Collected during wet seasons, but no rain before and during the sampling days."	2023/01/16	2023/01/16
PRA000124	SAA009467	ST008	8139			L-Tilapia1	"Oreochromis spp."	Tilapia	2015	1						Aisa	Indoneasia	"Waduk Sunter Utara Pond, Jakarta"	-6.1243		106.8696		Unknown	Plasma			126	g	14.5	cm																																	"Collected during wet seasons, but no rain before and during the sampling days."	2023/01/16	2023/01/16
PRA000124	SAA009468	ST008	8139			L-Tilapia2	"Oreochromis spp."	Tilapia	2015	1						Aisa	Indoneasia	"Waduk Sunter Utara Pond, Jakarta"	-6.1243		106.8696		Female	Plasma			124	g	14.6	cm																																	"Collected during wet seasons, but no rain before and during the sampling days."	2023/01/16	2023/01/16
PRA000124	SAA009469	ST008	8139			L-Tilapia3	"Oreochromis spp."	Tilapia	2015	1						Aisa	Indoneasia	"Waduk Sunter Utara Pond, Jakarta"	-6.1243		106.8696		Unknown	Plasma			173	g	17.1	cm																																	"Collected during wet seasons, but no rain before and during the sampling days."	2023/01/16	2023/01/16
PRA000124	SAA009470	ST008	8139			L-Tilapia4	"Oreochromis spp."	Tilapia	2015	1						Aisa	Indoneasia	"Waduk Sunter Utara Pond, Jakarta"	-6.1243		106.8696		Unknown	Plasma			168	g	16.3	cm																																	"Collected during wet seasons, but no rain before and during the sampling days."	2023/01/16	2023/01/16
PRA000124	SAA009471	ST008	8139			L-Tilapia5	"Oreochromis spp."	Tilapia	2015	1						Aisa	Indoneasia	"Waduk Sunter Utara Pond, Jakarta"	-6.1243		106.8696		Unknown	Plasma			117	g	14.4	cm																																	"Collected during wet seasons, but no rain before and during the sampling days."	2023/01/16	2023/01/16
PRA000124	SAA009472	ST008	8139			L-Tilapia6	"Oreochromis spp."	Tilapia	2015	1						Aisa	Indoneasia	"Waduk Sunter Utara Pond, Jakarta"	-6.1243		106.8696		Unknown	Plasma			124	g	14.3	cm																																	"Collected during wet seasons, but no rain before and during the sampling days."	2023/01/16	2023/01/16
PRA000124	SAA009473	ST008	8139			L-Tilapia7	"Oreochromis spp."	Tilapia	2015	1						Aisa	Indoneasia	"Waduk Sunter Utara Pond, Jakarta"	-6.1243		106.8696		Unknown	Plasma			101	g	13.3	cm																																	"Collected during wet seasons, but no rain before and during the sampling days."	2023/01/16	2023/01/16
PRA000124	SAA009474	ST008	8139			L-Tilapia8	"Oreochromis spp."	Tilapia	2015	1						Aisa	Indoneasia	"Waduk Sunter Utara Pond, Jakarta"	-6.1243		106.8696		Unknown	Plasma			291	g	19.9	cm																																	"Collected during wet seasons, but no rain before and during the sampling days."	2023/01/16	2023/01/16
PRA000124	SAA009475	ST008	8128			L-Tilapia9	"Oreochromis niloticus"	"Nile tilapia"	2015	1						Aisa	Indoneasia	"Waduk Sunter Utara Pond, Jakarta"	-6.1243		106.8696		Unknown	Plasma			120	g	14.4	cm																																	"Collected during wet seasons, but no rain before and during the sampling days."	2023/01/16	2023/01/16
PRA000124	SAA009476	ST008	8128			L-Tilapia10	"Oreochromis niloticus"	"Nile tilapia"	2015	1						Aisa	Indoneasia	"Waduk Sunter Utara Pond, Jakarta"	-6.1243		106.8696		Unknown	Plasma			139	g	14.7	cm																																	"Collected during wet seasons, but no rain before and during the sampling days."	2023/01/16	2023/01/16
PRA000124	SAA009477	ST008	164016			"L-Janitor fish1"	"Pterygoplichthys spp."	"Janitor fish/Sailfin catfish"	2015	1						Aisa	Indoneasia	"Waduk Sunter Utara Pond, Jakarta"	-6.1243		106.8696		Unknown	Plasma			241	g	22.5	cm																																	"Collected during wet seasons, but no rain before and during the sampling days."	2023/01/16	2023/01/16
PRA000124	SAA009478	ST008	8128			M-Tilapia1	"Oreochromis niloticus"	"Nile tilapia"	2015	1						Aisa	Indoneasia	"Situ Gintung Lake, Tangerang"	-6.3067		106.7639		Female	Plasma			209	g	17.3	cm																																	"Collected during wet seasons, but no rain before and during the sampling days."	2023/01/16	2023/01/16
PRA000124	SAA009479	ST008	8128			M-Tilapia2	"Oreochromis niloticus"	"Nile tilapia"	2015	1						Aisa	Indoneasia	"Situ Gintung Lake, Tangerang"	-6.3067		106.7639		Unknown	Plasma			153	g	16.3	cm																																	"Collected during wet seasons, but no rain before and during the sampling days."	2023/01/16	2023/01/16
PRA000124	SAA009480	ST008	8128			M-Tilapia3	"Oreochromis niloticus"	"Nile tilapia"	2015	1						Aisa	Indoneasia	"Situ Gintung Lake, Tangerang"	-6.3067		106.7639		Unknown	Plasma			156	g	16.1	cm																																	"Collected during wet seasons, but no rain before and during the sampling days."	2023/01/16	2023/01/16
PRA000124	SAA009481	ST008	8128			M-Tilapia4	"Oreochromis niloticus"	"Nile tilapia"	2015	1						Aisa	Indoneasia	"Situ Gintung Lake, Tangerang"	-6.3067		106.7639		Unknown	Plasma			182	g	16.9	cm																																	"Collected during wet seasons, but no rain before and during the sampling days."	2023/01/16	2023/01/16
PRA000124	SAA009482	ST008	8128			M-Tilapia5	"Oreochromis niloticus"	"Nile tilapia"	2015	1						Aisa	Indoneasia	"Situ Gintung Lake, Tangerang"	-6.3067		106.7639		Unknown	Plasma			132	g	15	cm																																	"Collected during wet seasons, but no rain before and during the sampling days."	2023/01/16	2023/01/16
PRA000124	SAA009483	ST008	8139			N-Tilapia1	"Oreochromis spp."	Tilapia	2015	1						Aisa	Indoneasia	"Situ Rawa Cipondoh, Tangerang"	-6.1948		106.6716		Unknown	Plasma			359	g	21.7	cm																																	"Collected during wet seasons, but no rain before and during the sampling days."	2023/01/16	2023/01/16
PRA000124	SAA009484	ST008	8139			N-Tilapia2	"Oreochromis spp."	Tilapia	2015	1						Aisa	Indoneasia	"Situ Rawa Cipondoh, Tangerang"	-6.1948		106.6716		Male	Plasma			550	g	26	cm																																	"Collected during wet seasons, but no rain before and during the sampling days."	2023/01/16	2023/01/16
PRA000124	SAA009485	ST008	8139			N-Tilapia3	"Oreochromis spp."	Tilapia	2015	1						Aisa	Indoneasia	"Situ Rawa Cipondoh, Tangerang"	-6.1948		106.6716		Unknown	Plasma			275	g	19.5	cm																																	"Collected during wet seasons, but no rain before and during the sampling days."	2023/01/16	2023/01/16
PRA000124	SAA009486	ST008	8139			N-Tilapia4	"Oreochromis spp."	Tilapia	2015	1						Aisa	Indoneasia	"Situ Rawa Cipondoh, Tangerang"	-6.1948		106.6716		Unknown	Plasma			421	g	23.2	cm																																	"Collected during wet seasons, but no rain before and during the sampling days."	2023/01/16	2023/01/16
PRA000124	SAA009487	ST008	8139			N-Tilapia5	"Oreochromis spp."	Tilapia	2015	1						Aisa	Indoneasia	"Situ Rawa Cipondoh, Tangerang"	-6.1948		106.6716		Unknown	Plasma			520	g	24.2	cm																																	"Collected during wet seasons, but no rain before and during the sampling days."	2023/01/16	2023/01/16
PRA000124	SAA009488	ST008	13012			R-Catfish1	"Clarias spp."	"Freshwater catfish"	2015	9						Aisa	Vietnam	"Yen So Lake, Hanoi"	20.9746		105.8651		Unknown	Plasma			286	g	28	cm																																	"Collected during wet seasons, but no rain before and during the sampling days."	2023/01/16	2023/01/16
PRA000124	SAA009489	ST008	8139			R-Tilapia1	"Oreochromis spp."	Tilapia	2015	9						Aisa	Vietnam	"Yen So Lake, Hanoi"	20.9746		105.8651		Unknown	Plasma			157	g	19	cm																																	"Collected during wet seasons, but no rain before and during the sampling days."	2023/01/16	2023/01/16
PRA000124	SAA009490	ST008	8139			R-Tilapia2	"Oreochromis spp."	Tilapia	2015	9						Aisa	Vietnam	"Yen So Lake, Hanoi"	20.9746		105.8651		Unknown	Plasma			214	g	17	cm																																	"Collected during wet seasons, but no rain before and during the sampling days."	2023/01/16	2023/01/16
PRA000124	SAA009491	ST008	8139			R-Tilapia3	"Oreochromis spp."	Tilapia	2015	9						Aisa	Vietnam	"Yen So Lake, Hanoi"	20.9746		105.8651		Unknown	Plasma			180	g	15.7	cm																																	"Collected during wet seasons, but no rain before and during the sampling days."	2023/01/16	2023/01/16
PRA000124	SAA009492	ST008	13095			R-Carp1	"Hypophthalmichthys molitrix"	"Silver carp"	2015	9						Aisa	Vietnam	"Yen So Lake, Hanoi"	20.9746		105.8651		Unknown	Plasma			253	g	25.8	cm																																	"Collected during wet seasons, but no rain before and during the sampling days."	2023/01/16	2023/01/16
PRA000124	SAA009493	ST008	7959			R-Carp2	"Ctenopharyngodon idella"	"Grass carp"	2015	9						Aisa	Vietnam	"Yen So Lake, Hanoi"	20.9746		105.8651		Unknown	Plasma			656	g	34.1	cm																																	"Collected during wet seasons, but no rain before and during the sampling days."	2023/01/16	2023/01/16
PRA000124	SAA009494	ST008	7959			R-Carp3	"Ctenopharyngodon idella"	"Grass carp"	2015	9						Aisa	Vietnam	"Yen So Lake, Hanoi"	20.9746		105.8651		Unknown	Plasma			500	g	31	cm																																	"Collected during wet seasons, but no rain before and during the sampling days."	2023/01/16	2023/01/16
PRA000124	SAA009495	ST008	172907			R-Carp4	"Cirrhinus molitorella"	"Mud carp"	2015	9						Aisa	Vietnam	"Yen So Lake, Hanoi"	20.9694		105.8588		Unknown	Plasma			234	g	23.2	cm																																	"Collected during wet seasons, but no rain before and during the sampling days."	2023/01/16	2023/01/16
PRA000124	SAA009496	ST008	13095			R-Carp5	"Hypophthalmichthys molitrix"	"Silver carp"	2015	9						Aisa	Vietnam	"Yen So Lake, Hanoi"	20.9694		105.8588		Unknown	Plasma			347	g	26.5	cm																																	"Collected during wet seasons, but no rain before and during the sampling days."	2023/01/16	2023/01/16
PRA000124	SAA009497	ST008	13095			R-Carp6	"Hypophthalmichthys molitrix"	"Silver carp"	2015	9						Aisa	Vietnam	"Yen So Lake, Hanoi"	20.9694		105.8588		Unknown	Plasma			250	g	26.5	cm																																	"Collected during wet seasons, but no rain before and during the sampling days."	2023/01/16	2023/01/16
PRA000124	SAA009498	ST008	7959			R-Carp7	"Ctenopharyngodon idella"	"Grass carp"	2015	9						Aisa	Vietnam	"Yen So Lake, Hanoi"	20.9694		105.8588		Unknown	Plasma			495	g	29	cm																																	"Collected during wet seasons, but no rain before and during the sampling days."	2023/01/16	2023/01/16
PRA000124	SAA009499	ST008	13095			R-Carp8	"Hypophthalmichthys molitrix"	"Silver carp"	2015	9						Aisa	Vietnam	"Yen So Lake, Hanoi"	20.9694		105.8588		Unknown	Plasma			371	g	28	cm																																	"Collected during wet seasons, but no rain before and during the sampling days."	2023/01/16	2023/01/16
PRA000124	SAA009500	ST008	13095			R-Carp9	"Hypophthalmichthys molitrix"	"Silver carp"	2015	9						Aisa	Vietnam	"Yen So Lake, Hanoi"	20.9694		105.8588		Unknown	Plasma			256	g	25.8	cm																																	"Collected during wet seasons, but no rain before and during the sampling days."	2023/01/16	2023/01/16
PRA000124	SAA009501	ST008	7959			R-Carp10	"Ctenopharyngodon idella"	"Grass carp"	2015	9						Aisa	Vietnam	"Yen So Lake, Hanoi"	20.9646		105.8516		Unknown	Plasma			792	g	36	cm																																	"Collected during wet seasons, but no rain before and during the sampling days."	2023/01/16	2023/01/16
PRA000124	SAA009502	ST008	172907			R-Carp11	"Cirrhinus molitorella"	"Mud carp"	2015	9						Aisa	Vietnam	"Yen So Lake, Hanoi"	20.9646		105.8516		Unknown	Plasma			378	g	27	cm																																	"Collected during wet seasons, but no rain before and during the sampling days."	2023/01/16	2023/01/16
PRA000124	SAA009503	ST008	7959			R-Carp12	"Ctenopharyngodon idella"	"Grass carp"	2015	9						Aisa	Vietnam	"Yen So Lake, Hanoi"	20.9646		105.8516		Unknown	Plasma			500	g	32.3	cm																																	"Collected during wet seasons, but no rain before and during the sampling days."	2023/01/16	2023/01/16
PRA000124	SAA009504	ST008	13095			R-Carp13	"Hypophthalmichthys molitrix"	"Silver carp"	2015	9						Aisa	Vietnam	"Yen So Lake, Hanoi"	20.9646		105.8516		Unknown	Plasma			357	g	28.6	cm																																	"Collected during wet seasons, but no rain before and during the sampling days."	2023/01/16	2023/01/16
PRA000124	SAA009505	ST008	13095			R-Carp14	"Hypophthalmichthys molitrix"	"Silver carp"	2015	9						Aisa	Vietnam	"Yen So Lake, Hanoi"	20.9646		105.8516		Unknown	Plasma			300	g	28	cm																																	"Collected during wet seasons, but no rain before and during the sampling days."	2023/01/16	2023/01/16
PRA000124	SAA009506	ST008	13095			R-Carp15	"Hypophthalmichthys molitrix"	"Silver carp"	2015	9						Aisa	Vietnam	"Yen So Lake, Hanoi"	20.9646		105.8516		Unknown	Plasma			340	g	29.1	cm																																	"Collected during wet seasons, but no rain before and during the sampling days."	2023/01/16	2023/01/16
PRA000124	SAA009507	ST008	13095			R-Carp16	"Hypophthalmichthys molitrix"	"Silver carp"	2015	9						Aisa	Vietnam	"Yen So Lake, Hanoi"	20.9646		105.8516		Unknown	Plasma			298	g	29	cm																																	"Collected during wet seasons, but no rain before and during the sampling days."	2023/01/16	2023/01/16
PRA000124	SAA009508	ST008	13095			R-Carp17	"Hypophthalmichthys molitrix"	"Silver carp"	2015	9						Aisa	Vietnam	"Yen So Lake, Hanoi"	20.9646		105.8516		Unknown	Plasma			342	g	28	cm																																	"Collected during wet seasons, but no rain before and during the sampling days."	2023/01/16	2023/01/16
PRA000124	SAA009509	ST008	13095			R-Carp18	"Hypophthalmichthys molitrix"	"Silver carp"	2015	9						Aisa	Vietnam	"Yen So Lake, Hanoi"	20.9646		105.8516		Unknown	Plasma			295	g	27.2	cm																																	"Collected during wet seasons, but no rain before and during the sampling days."	2023/01/16	2023/01/16
PRA000124	SAA009510	ST008	7962			S-Carp1	"Cyprinus carpio"	"Common carp"	2015	9						Aisa	Vietnam	"Da River, Hoa Binh"	20.8222		105.3378		Unknown	Plasma			774	g	31.5	cm																																	"Chosen as the control (unpoluted) site.; Collected during wet seasons, but no rain before and during the sampling days."	2023/01/16	2023/01/16
PRA000124	SAA009511	ST008	7962			S-Carp2	"Cyprinus carpio"	"Common carp"	2015	9						Aisa	Vietnam	"Da River, Hoa Binh"	20.8222		105.3378		Unknown	Plasma			340	g	23.8	cm																																	"Chosen as the control (unpoluted) site.; Collected during wet seasons, but no rain before and during the sampling days."	2023/01/16	2023/01/16
PRA000124	SAA009512	ST008	7962			S-Carp3	"Cyprinus carpio"	"Common carp"	2015	9						Aisa	Vietnam	"Da River, Hoa Binh"	20.8222		105.3378		Unknown	Plasma			370	g	26.4	cm																																	"Chosen as the control (unpoluted) site.; Collected during wet seasons, but no rain before and during the sampling days."	2023/01/16	2023/01/16
PRA000124	SAA009513	ST008	7962			S-Carp4	"Cyprinus carpio"	"Common carp"	2015	9						Aisa	Vietnam	"Da River, Hoa Binh"	20.8222		105.3378		Unknown	Plasma			960	g	38.7	cm																																	"Chosen as the control (unpoluted) site.; Collected during wet seasons, but no rain before and during the sampling days."	2023/01/16	2023/01/16
PRA000124	SAA009514	ST008	7962			S-Carp5	"Cyprinus carpio"	"Common carp"	2015	9						Aisa	Vietnam	"Da River, Hoa Binh"	20.8222		105.3378		Female	Plasma			703	g	32.8	cm																																	"Chosen as the control (unpoluted) site.; Collected during wet seasons, but no rain before and during the sampling days."	2023/01/16	2023/01/16
PRA000124	SAA009515	ST008	7962			S-Carp6	"Cyprinus carpio"	"Common carp"	2015	9						Aisa	Vietnam	"Da River, Hoa Binh"	20.8222		105.3378		Unknown	Plasma			444	g	28.4	cm																																	"Chosen as the control (unpoluted) site.; Collected during wet seasons, but no rain before and during the sampling days."	2023/01/16	2023/01/16
PRA000124	SAA009516	ST008	7962			S-Carp7	"Cyprinus carpio"	"Common carp"	2015	9						Aisa	Vietnam	"Da River, Hoa Binh"	20.8222		105.3378		Unknown	Plasma			779	g	32	cm																																	"Chosen as the control (unpoluted) site.; Collected during wet seasons, but no rain before and during the sampling days."	2023/01/16	2023/01/16
PRA000124	SAA009517	ST008	7962			S-Carp8	"Cyprinus carpio"	"Common carp"	2015	9						Aisa	Vietnam	"Da River, Hoa Binh"	20.8222		105.3378		Unknown	Plasma			795	g	34.8	cm																																	"Chosen as the control (unpoluted) site.; Collected during wet seasons, but no rain before and during the sampling days."	2023/01/16	2023/01/16
PRA000124	SAA009518	ST008	7962			S-Carp9	"Cyprinus carpio"	"Common carp"	2015	9						Aisa	Vietnam	"Da River, Hoa Binh"	20.8222		105.3378		Unknown	Plasma			459	g	26.6	cm																																	"Chosen as the control (unpoluted) site.; Collected during wet seasons, but no rain before and during the sampling days."	2023/01/16	2023/01/16
PRA000124	SAA009519	ST008	7962			S-Carp10	"Cyprinus carpio"	"Common carp"	2015	9						Aisa	Vietnam	"Da River, Hoa Binh"	20.8222		105.3378		Female	Plasma			428	g	27.7	cm																																	"Chosen as the control (unpoluted) site.; Collected during wet seasons, but no rain before and during the sampling days."	2023/01/16	2023/01/16
